[[{"header":{"parameterUnit":"m.s-1","parameterCategory":1,"la1":31.0,"la2":29.5877,"lo1":-88.7671,"lo2":-86.6584,"dy":0.0162,"dx":0.0185,"nx":115,"ny":88,"refTime":"2023-04-20T06:00:00:Z","depth":0,"parameterNumber":2,"parameterNumberName":"U-component_of_WINDS"},"data":[0.0,0.0,0.0,0.0,0.0,0.0,0.0,0.0,0.0,0.0,0.0,0.0,0.0,0.0,0.0,0.0,0.0,0.0,0.0,0.0,0.0,0.0,0.0,0.0,0.0,0.0,0.0,0.0,0.0,0.0,0.0,0.0,0.0,0.0,0.0,0.0,0.0,0.0,0.0,0.0,0.0,0.0,0.0,0.0,0.0,0.0,0.0,0.0,0.0,0.0,0.0,0.0,0.0,0.0,0.0,0.0,0.0,0.0,0.0,0.0,0.0,0.0,0.0,0.0,0.0,0.0,0.0,0.0,0.0,0.0,0.0,0.0,0.0,0.0,0.0,0.0,0.0,0.0,0.0,0.0,0.0,0.0,0.0,0.0,0.0,0.0,0.0,0.0,0.0,0.0,0.0,0.0,0.0,0.0,0.0,0.0,0.0,0.0,0.0,0.0,0.0,0.0,0.0,0.0,0.0,0.0,0.0,0.0,0.0,0.0,0.0,0.0,0.0,0.0,0.0,0.0,0.0,0.0,0.0,0.0,0.0,0.0,0.0,0.0,0.0,0.0,0.0,0.0,0.0,0.0,0.0,0.0,0.0,0.0,0.0,0.0,0.0,0.0,0.0,0.0,0.0,0.0,0.0,0.0,0.0,0.0,0.0,0.0,0.0,0.0,0.0,0.0,0.0,0.0,0.0,0.0,0.0,0.0,0.0,0.0,0.0,0.0,0.0,0.0,0.0,0.0,0.0,0.0,0.0,0.0,0.0,0.0,0.0,0.0,0.0,0.0,0.0,0.0,0.0,0.0,0.0,0.0,0.0,0.0,0.0,0.0,0.0,0.0,0.0,0.0,0.0,0.0,0.0,0.0,0.0,0.0,0.0,0.0,0.0,0.0,0.0,0.0,0.0,0.0,0.0,0.0,0.0,0.0,0.0,0.0,0.0,0.0,0.0,0.0,0.0,0.0,0.0,0.0,0.0,0.0,0.0,0.0,0.0,0.0,0.0,0.0,0.0,0.0,0.0,0.0,0.0,0.0,0.0,0.0,0.0,0.0,0.0,0.0,0.0,0.0,0.0,0.0,0.0,0.0,0.0,0.0,0.0,0.0,0.0,0.0,0.0,0.0,0.0,0.0,0.0,0.0,0.0,0.0,0.0,0.0,0.0,0.0,0.0,0.0,0.0,0.0,0.0,0.0,0.0,0.0,0.0,0.0,0.0,0.0,0.0,0.0,0.0,0.0,0.0,0.0,0.0,0.0,0.0,0.0,0.0,0.0,0.0,0.0,0.0,0.0,0.0,0.0,0.0,0.0,0.0,0.0,0.0,0.0,0.0,0.0,0.0,0.0,0.0,0.0,0.0,0.0,0.0,0.0,0.0,0.0,0.0,0.0,0.0,0.0,0.0,0.0,0.0,0.0,0.0,0.0,0.0,0.0,0.0,0.0,0.0,0.0,0.0,0.0,0.0,0.0,0.0,0.0,0.0,0.0,0.0,0.0,0.0,0.0,0.0,0.0,0.0,0.0,0.0,0.0,0.0,0.0,0.0,0.0,0.0,0.0,0.0,0.0,0.0,0.0,0.0,0.0,0.0,0.0,0.0,0.0,0.0,0.0,0.0,0.0,0.0,0.0,0.0,0.0,0.0,0.0,0.0,0.0,0.0,0.0,0.0,0.0,0.0,0.0,0.0,0.0,0.0,0.0,0.0,0.0,0.0,0.0,0.0,0.0,0.0,0.0,0.0,0.0,0.0,0.0,0.0,0.0,0.0,0.0,0.0,0.0,0.0,0.0,0.0,0.0,0.0,0.0,0.0,0.0,0.0,0.0,0.0,0.0,0.0,0.0,0.0,0.0,0.0,0.0,0.0,0.0,0.0,0.0,0.0,0.0,0.0,0.0,0.0,0.0,0.0,0.0,0.0,0.0,0.0,0.0,0.0,0.0,0.0,0.0,0.0,0.0,0.0,0.0,0.0,0.0,0.0,0.0,0.0,0.0,0.0,0.0,0.0,0.0,0.0,0.0,0.0,0.0,0.0,0.0,0.0,0.0,0.0,0.0,0.0,0.0,0.0,0.0,0.0,0.0,0.0,0.0,0.0,0.0,0.0,0.0,0.0,0.0,0.0,0.0,0.0,0.0,0.0,0.0,0.0,0.0,0.0,0.0,0.0,0.0,0.0,0.0,0.0,0.0,0.0,0.0,0.0,0.0,0.0,0.0,0.0,0.0,0.0,0.0,0.0,0.0,0.0,0.0,0.0,0.0,0.0,0.0,0.0,0.0,0.0,0.0,0.0,0.0,0.0,0.0,0.0,0.0,0.0,0.0,0.0,0.0,0.0,0.0,0.0,0.0,0.0,0.0,0.0,0.0,0.0,0.0,0.0,0.0,0.0,0.0,0.0,0.0,0.0,0.0,0.0,0.0,0.0,0.0,0.0,0.0,0.0,0.0,0.0,0.0,0.0,0.0,0.0,0.0,0.0,0.0,0.0,0.0,0.0,0.0,0.0,0.0,0.0,0.0,0.0,0.0,0.0,0.0,0.0,0.0,0.0,0.0,0.0,0.0,0.0,0.0,0.0,0.0,0.0,0.0,0.0,0.0,0.0,0.0,0.0,0.0,0.0,0.0,0.0,0.0,0.0,0.0,0.0,0.0,0.0,0.0,0.0,0.0,0.0,0.0,0.0,0.0,0.0,0.0,0.0,0.0,0.0,0.0,0.0,0.0,0.0,0.0,0.0,0.0,0.0,0.0,0.0,0.0,0.0,0.0,0.0,0.0,0.0,0.0,0.0,0.0,0.0,0.0,0.0,0.0,0.0,0.0,0.0,0.0,0.0,0.0,0.0,0.0,0.0,0.0,0.0,0.0,0.0,0.0,0.0,0.0,0.0,0.0,0.0,0.0,0.0,0.0,0.0,0.0,0.0,0.0,0.0,0.0,0.0,0.0,0.0,0.0,0.0,0.0,0.0,0.0,0.0,0.0,0.0,0.0,0.0,0.0,0.0,0.0,0.0,0.0,0.0,0.0,0.0,0.0,0.0,0.0,0.0,0.0,0.0,0.0,0.0,0.0,0.0,0.0,0.0,0.0,0.0,0.0,0.0,0.0,0.0,0.0,0.0,0.0,0.0,0.0,0.0,0.0,0.0,0.0,0.0,0.0,0.0,0.0,0.0,0.0,0.0,0.0,0.0,0.0,0.0,0.0,0.0,0.0,0.0,0.0,0.0,0.0,0.0,0.0,0.0,0.0,0.0,0.0,0.0,0.0,0.0,0.0,0.0,0.0,0.0,0.0,0.0,0.0,0.0,0.0,0.0,0.0,0.0,0.0,0.0,0.0,0.0,0.0,0.0,0.0,0.0,0.0,0.0,0.0,0.0,0.0,0.0,0.0,0.0,0.0,0.0,0.0,0.0,0.0,0.0,0.0,0.0,0.0,0.0,0.0,0.0,0.0,0.0,0.0,0.0,0.0,0.0,0.0,0.0,0.0,0.0,0.0,0.0,0.0,0.0,0.0,0.0,0.0,0.0,0.0,0.0,0.0,0.0,0.0,0.0,0.0,0.0,0.0,0.0,0.0,0.0,0.0,0.0,0.0,0.0,0.0,0.0,0.0,0.0,0.0,0.0,0.0,0.0,0.0,0.0,0.0,0.0,0.0,0.0,0.0,0.0,0.0,0.0,0.0,0.0,0.0,0.0,0.0,0.0,0.0,0.0,0.0,0.0,0.0,0.0,0.0,0.0,0.0,0.0,0.0,0.0,0.0,0.0,0.0,0.0,0.0,0.0,0.0,0.0,0.0,0.0,0.0,0.0,0.0,0.0,0.0,0.0,0.0,0.0,0.0,0.0,0.0,0.0,0.0,0.0,0.0,0.0,0.0,0.0,0.0,0.0,0.0,0.0,0.0,0.0,0.0,0.0,0.0,0.0,0.0,0.0,0.0,0.0,0.0,0.0,0.0,0.0,0.0,0.0,0.0,0.0,0.0,0.0,0.0,0.0,0.0,0.0,0.0,0.0,0.0,0.0,0.0,0.0,0.0,0.0,0.0,0.0,0.0,0.0,0.0,0.0,0.0,0.0,0.0,0.0,0.0,0.0,0.0,0.0,0.0,0.0,0.0,0.0,0.0,0.0,0.0,0.0,0.0,0.0,0.0,0.0,0.0,0.0,0.0,0.0,0.0,0.0,0.0,0.0,0.0,0.0,0.0,0.0,0.0,0.0,0.0,0.0,0.0,0.0,0.0,0.0,0.0,0.0,0.0,0.0,0.0,0.0,0.0,0.0,0.0,0.0,0.0,0.047,0.0,0.0,0.0,0.0,0.0,0.0,0.0,0.0,0.0,0.0,0.0,0.0,0.0,0.0,0.0,0.0,0.0,0.0,0.0,0.0,0.0,0.0,0.0,0.0,0.0,0.0,0.0,0.0,0.0,0.0,0.0,0.0,0.0,0.0,0.0,0.0,0.0,0.0,0.0,0.0,0.0,0.0,0.0,0.0,0.0,0.0,0.0,0.0,0.0,0.0,0.0,0.0,0.0,0.0,0.0,0.0,0.0,0.0,0.0,0.0,0.0,0.0,0.0,0.0,0.0,0.0,0.0,0.0,0.0,0.0,0.0,0.0,0.0,0.0,0.0,0.0,0.0,0.0,0.0,0.0,0.0,0.0,0.0,0.0,0.0,0.0,0.0,0.0,0.0,0.0,0.0,0.0,0.0,0.0,0.0,0.0,0.0,0.0,0.0,0.0,0.0,0.0,0.0,0.0,0.0,0.0,0.0,0.0,0.0,0.0,0.2021,0.1534,0.12,0.0807,0.0291,0.0,0.0,0.0,0.0,0.0,0.0,0.0,0.0,0.0,0.0,0.0,0.0,0.0,0.0,0.0,0.0,0.0,0.0,0.0,0.0,0.0,0.0,0.0,0.0,0.0,0.0,0.0,0.0,0.0,0.0,0.0,0.0,0.0,0.0,0.0,0.0,0.0,0.0,0.0,0.0,0.0,0.0,0.0,0.0,0.0,0.0,0.0,0.0,0.0,0.0,0.0,0.0,0.0,0.0,0.0,0.0,0.0,0.0,0.0,0.0,0.0,0.0,0.0,0.0,0.0,0.0,0.0,0.0,0.0,0.0,0.0,0.0,0.0,0.0,0.0,0.0,0.0,0.0,0.0,0.0,0.0,0.0,0.0,0.0,0.0,0.0,0.0,0.0,0.0,0.0,0.0,0.0,0.0,0.0,0.0,0.0,0.0,0.0,0.0,0.0,0.0,0.0,0.0,0.0,0.0,0.0,0.0,0.0,0.0,0.0,0.0,0.0,0.1105,0.0628,-0.0101,0.0,0.0,0.0,0.0,0.0,0.0,0.0,0.0,0.0,0.0,0.0,0.0,0.0,0.0,0.0,0.0,0.0,0.0,0.0,0.0,0.0,0.0,0.0,0.0,0.0,0.0,0.0,0.0,0.0,0.0,0.0,0.0,0.0,0.0,0.0,0.0,0.0,0.0,0.0,0.0,0.0,0.0,0.0,0.0,0.0,0.0,0.0,0.0,0.0,0.0,0.0,0.0,0.0,0.0,0.0,0.0,0.0,0.0,0.0,0.0,0.0,0.0,0.0,0.0,0.0,0.0,0.0,0.0,0.0,0.0,0.0,0.0,0.0,0.0,0.0,0.0,0.0,0.0,0.0,0.0,0.0,0.0,0.0,0.0,0.0,0.0,0.0,0.0,0.0,0.0,0.0,0.0,0.0,0.0,0.0,0.0,0.0,0.0,0.0,0.0,0.0,0.0,0.0,0.0,0.0,0.0,0.0,0.0,0.0,0.0,0.2342,0.184,0.1228,0.0,-0.0662,0.0,0.0,0.0,0.0,0.0,0.0,0.0,0.0,0.0,0.0,0.0,0.0,0.0,0.0,0.0,0.0,0.0,0.0,0.0,0.0,0.0,0.0,0.0,0.0,0.0,0.0,0.0,0.0,0.0,0.0,0.0,0.0,0.0,0.0,0.0,0.0,0.0,0.0,0.0,0.0,0.0,0.0,0.0,0.0,0.0,0.0,0.0,0.0,0.0,0.0,0.0,0.0,0.0,0.0,0.0,0.0,0.0,0.0,0.0,0.0,0.0,0.0,0.0,0.0,0.0,0.0,0.0,0.0,0.0,0.0,0.0,0.0,0.0,0.0,0.0,0.0,0.0,0.0,0.0,0.0,0.0,0.0,0.0,0.0,0.0,0.0,0.0,0.0,0.0,0.0,0.0,0.0,0.0,0.0,0.0,0.0,0.0,0.0,0.0,0.0,0.0,0.0,0.0,0.0,0.0,0.0,0.0,0.0,0.0,0.0,0.2199,0.1319,0.0578,-0.0156,0.0,0.0,0.0,0.0,0.0,0.0,0.0,0.0,0.0,0.0,0.0,0.0,0.0,0.0,0.0,0.0,0.0,0.0,0.0,0.0,0.0,0.0,0.0,0.0,0.0,0.0,0.0,0.0,0.0,0.0,0.0,0.0,0.0,0.0,0.0,0.0,0.0,0.0,0.0,0.0,0.0,0.0,0.0,0.0,0.0,0.0,0.0,0.0,0.0,0.0,0.0,0.0,0.0,0.0,0.0,0.0,0.0,0.0,0.0,0.0,0.0,0.0,0.0,0.0,0.0,0.0,0.0,0.0,0.0,0.0,0.0,0.0,0.0,0.0,0.0,0.0,0.0,0.0,0.0,0.0,0.0,0.0,0.0,0.0,0.0,0.0,0.0,0.0,0.0,0.0,0.0,0.0,0.0,0.0,0.0,0.0,0.0,0.0,0.0,0.0,0.0,0.0,0.0,0.0,0.0,0.0,0.0,0.0,0.0,0.0,0.2326,0.1994,0.0814,0.0039,-0.0568,-0.102,0.0,0.0,0.0,0.0,0.0,0.0,0.0,0.0,0.0,0.0,0.0,0.0,0.0,0.0,0.0,0.0,0.0,0.0,0.0,0.0,0.0,0.0,0.0,0.0,0.0,0.0,0.0,0.0,0.0,0.0,0.0,0.0,0.0,0.0,0.0,0.0,0.0,0.0,0.0,0.0,0.0,0.0,0.0,0.0,0.0,0.0,0.0,0.0,0.0,0.0,0.0,0.0,0.0,0.0,0.0,0.0,0.0,0.0,0.0,0.0,0.0,0.0,0.0,0.0,0.0,0.0,0.0,0.0,0.0,0.0,0.0,0.0,0.0,0.0,0.0,0.0,0.0,0.0,0.0,0.0,0.0,0.0,0.0,0.0,0.0,0.0,0.0,0.0,0.0,0.0,0.0,0.0,0.0,0.0,0.0,0.0,0.0,0.0,0.0,0.0,0.0,0.0,0.0,0.0,0.0,0.0,0.0,0.0,0.1117,0.1987,0.1836,0.0465,-0.0173,-0.0678,0.0,0.0,0.0,0.0,0.0,0.0,0.0,0.0,0.0,0.0,0.0,0.0,0.0,0.0,0.0,0.0,0.0,0.0,0.0,0.0,0.0,0.0,0.0,0.0,0.0,0.0,0.0,0.0,0.0,0.0,0.0,0.0,0.0,0.0,0.0,0.0,0.0,0.0,0.0,0.0,0.0,0.0,0.0,0.0,0.0,0.0,0.0,0.0,0.0,0.0,0.0,0.0,0.0,0.0,0.0,0.0,0.0,0.0,0.0,0.0,0.0,0.0,0.0,0.0,0.0,0.0,0.0,0.0,0.0,0.0,0.0,0.0,0.0,0.0,0.0,0.0,0.0,0.0,0.0,0.0,0.0,0.0,0.0,0.0,0.0,0.0,0.0,0.0,0.0,0.0,0.0,0.0,0.0,0.0,0.0,0.0,0.0,0.0,0.0,0.0,0.0,0.0,0.0,0.0,0.0,0.0,0.0,0.0,0.0,0.0904,0.1049,0.0875,0.0275,-0.0185,-0.061,0.0,0.0,0.0,0.0,0.0,0.0,0.0,0.0,0.0,0.0,0.0,0.0,0.0,0.0,0.0,0.0,0.0,0.0,0.0,0.0,0.0,0.0,0.0,0.0,0.0,0.0,0.0,0.0,0.0,0.0,0.0,0.0,0.0,0.0,0.0,0.0,0.0,0.0,0.0,0.0,0.0,0.0,0.0,0.0,0.0,0.0,0.0,0.0,0.0,0.0,0.0,0.0,0.0,0.0,0.0,0.0,0.0,0.0,0.0,0.0,0.0,0.0,0.0,0.0,0.0,0.0,0.0,0.0,0.0,0.0,0.0,0.0,0.0,0.0,0.0,0.0,0.0,0.0,0.0,0.0,0.0,0.0,0.0,0.0,0.0,0.0,0.0,0.0,0.0,0.0,0.0,0.0,0.0,0.0,0.0,0.0,0.0,0.0,0.0,0.0,0.0,0.0,0.0,0.0,0.0,0.0,0.0,0.0,0.0,0.0756,0.0,0.0218,0.0091,-0.0285,-0.0653,0.0,0.0,0.0,0.0,0.0,0.0,0.0,0.0,0.0,0.0,0.0,0.0,0.0,0.0,0.0,0.0,0.0,0.0,0.0,0.0,0.0,0.0,0.0,0.0,0.0,0.0,0.0,0.0,0.0,0.0,0.0,0.0,0.0,0.0,0.0,0.0,0.0,0.0,0.0,0.0,0.0,0.0,0.0,0.0,0.0,0.0,0.0,0.0,0.0,0.0,0.0,0.0,0.0,0.0,0.0,0.0,0.0,0.0,0.0,0.0,0.0,0.0,0.0,0.0,0.0,0.0,0.0,0.0,0.0,0.0,0.0,0.0,0.0,0.0,0.0,0.0,0.0,0.0,0.0,0.0,0.0,0.0,0.0,0.0,0.0,0.0,0.0,0.0,0.0,0.0,0.0,0.0,0.0,0.0,0.0,0.0,0.0,0.0,0.0,0.0,0.0,0.0,0.0,0.0,0.0,0.0,0.0,0.0,0.0172,0.0605,0.0215,-0.0063,-0.0133,-0.0495,-0.0828,0.0,0.0,0.0,0.0,0.0,0.0,0.0,0.0,0.0,0.0,0.0,0.0,0.0,0.0,0.0,0.0,0.0,0.0,0.0,0.0,0.0,0.0,0.0,0.0,0.0,0.0,0.0,0.0,0.0,0.0,0.0,0.0,0.0,0.0,0.0,0.0,0.0,0.0,0.0,0.0,0.0,0.0,0.0,0.0,0.0,0.0,0.0,0.0,0.0,0.0,0.0,0.0,0.0,0.0,0.0,0.0,0.0,0.0,0.0,0.0,0.0,0.0,0.0,0.0,0.0,0.0,0.0,0.0,0.0,0.0,0.0,0.0,0.0,0.0,0.0,0.0,0.0,0.0,0.0,0.0,0.0,0.0,0.0,0.0,0.0,0.0,0.0,0.0,0.0,0.0,0.0,0.0,0.0,0.0,0.0,0.0,0.0,0.0,0.0,0.0,0.0,0.0,0.0,0.0,0.0,0.0,0.0,0.0,0.0,-0.0971,-0.0788,-0.073,-0.085,-0.0889,-0.105,0.0,0.0,0.0,0.0,0.0,0.0,0.0,0.0,0.0,0.0,0.0,0.0,0.0,0.0,0.0,0.0,0.0,0.0,0.0,0.0,0.0,0.0,0.0,0.0,0.0,0.0,0.0,0.0,0.0,0.0,0.0,0.0,0.0,0.0,0.0,0.0,0.0,0.0,0.0,0.0,0.0,0.0,0.0,0.0,0.0,0.0,0.0,0.0,0.0,0.0,0.0,0.0,0.0,0.0,0.0,0.0,0.0,0.0,0.0,0.0,0.0,0.0,0.0,0.0,0.0,0.0,0.0,0.0,0.0,0.0,0.0,0.0,0.0,0.0,0.0,0.0,0.0,0.0,0.0,0.0,0.0,0.0,0.0,0.0,0.0,0.0,0.0,0.0,0.0,0.0,0.0,0.0,0.0,0.0,0.0,0.0,0.0,0.0,0.0,0.0,0.0,0.0,0.0,0.0,0.0,0.0,0.0,0.0,0.0,-0.2828,-0.2061,-0.1648,-0.1674,-0.1622,-0.1633,-0.1723,0.0,0.0,0.0,0.0,0.0,0.0,0.0,0.0,0.0,0.0,0.0,0.0,0.0,0.0,0.0,0.0,0.0,0.0,0.0,0.0,0.0,0.0,0.0,0.0,0.0,0.0,0.0,0.0,0.0,0.0,0.0,0.0,0.0,0.0,0.0,0.0,0.0,0.0,0.0,0.0,0.0,0.0,0.0,0.0,0.0,0.0,0.0,0.0,0.0,0.0,0.0,0.0,0.0,0.0,0.0,0.0,0.0,0.0,0.0,0.0,0.0,0.0,0.0,0.0,0.0,0.0,0.0,0.0,0.0,0.0,0.0,0.0,0.0,0.0,0.0,0.0,0.0,0.0,0.0,0.0,0.0,0.0,0.0,0.0,0.0,0.0,0.0,0.0,0.0,0.0,0.0,0.0,0.0,0.0,0.0,0.0,0.0,0.0,0.0,0.0,0.0,0.0,0.0,0.0,0.0,0.0,0.0,0.0,-0.4816,-0.353,-0.2798,-0.2623,-0.2639,-0.2507,0.0,0.0,0.0,0.0,0.0,0.0,0.0,0.0,0.0,0.0,0.0,0.0,0.0,0.0,0.0,0.0,0.0,0.0,0.0,0.0,0.0,0.0,0.0,0.0,0.0,0.0,0.0,0.0,0.0,0.0,0.0,0.0,0.0,0.0,0.0,0.0,0.0,0.0,0.0,0.0,0.0,0.0,0.0,0.0,0.0,0.0,0.0,0.0,0.0,0.0,0.0,0.0,0.0,0.0,0.0,0.0,0.0,0.0,0.0,0.0,0.0,0.0,0.0,0.0,0.0,0.0,0.0,0.0,0.0,0.0,0.0,0.0,0.0,0.0,0.0,0.0,0.0,0.0,0.0,0.0,0.0,0.0,0.0,0.0,0.0,0.0,0.0,0.0,0.0,0.0,0.0,0.0,0.0,0.0,0.0,0.0,0.0,0.0,0.0,0.0,0.0,0.0,0.0,0.0,0.0,0.0,0.0,0.0,0.0,-0.5014,-0.5048,-0.4707,-0.3996,-0.3557,-0.326,0.0,0.0,0.0,0.0,0.0,0.0,0.0,0.0,0.0,0.0,0.0,0.0,0.0,0.0,0.0,0.0,0.0,0.0,0.0,0.0,0.0,0.0,0.0,0.0,0.0,0.0,0.0,0.0,0.0,0.0,0.0,0.0,0.0,0.0,0.0,0.0,0.0,0.0,0.0,0.0,0.0,0.0,0.0,0.0,0.0,0.0,0.0,0.0,0.0,0.0,0.0,0.0,0.0,0.0,0.0,0.0,0.0,0.0,0.0,0.0,0.0,0.0,0.0,0.0,0.0,0.0,0.0,0.0,0.0,0.0,0.0,0.0,0.0,0.0,0.0,0.0,0.0,0.0,0.0,0.0,0.0,0.0,0.0,0.0,0.0,0.0,0.0,0.0,0.0,0.0,0.0,0.0,0.0,0.0,0.0,0.0,0.0,0.0,0.0,0.0,0.0,0.0,0.0,0.0,0.0,0.0,0.0,0.0,-0.5517,-0.5641,-0.6006,-0.5912,-0.5329,-0.4636,-0.4124,0.0,0.0,0.0,0.0,0.0,0.0,0.0,0.0,0.0,0.0,0.0,0.0,0.0,0.0,0.0,0.0,0.0,0.0,0.0,0.0,0.0,0.0,0.0,0.0,0.0,0.0,0.0,0.0,0.0,0.0,0.0,0.0,0.0,0.0,0.0,0.0,0.0,0.0,0.0,0.0,0.0,0.0,0.0,0.0,0.0,0.0,0.0,0.0,0.0,0.0,0.0,0.0,0.0,0.0,0.0,0.0,0.0,0.0,0.0,0.0,0.0,0.0,0.0,0.0,0.0,0.0,0.0,0.0,0.0,0.0,0.0,0.0,0.0,0.0,0.0,0.0,0.0,0.0,0.0,0.0,0.0,0.0,0.0,0.0,0.0,0.0,0.0,0.0,0.0,0.0,0.0,0.0,0.0,0.0,0.0,0.0,0.0,0.0,0.0,0.0,0.0,0.0,0.0,0.0,0.0,0.0,0.0,0.0,-0.6259,-0.6391,-0.6537,-0.6536,-0.6386,-0.5648,-0.4945,0.0,0.0,0.0,0.0,0.0,0.0,0.0,0.0,0.0,0.0,0.0,0.0,0.0,0.0,0.0,0.0,0.0,0.0,0.0,0.0,0.0,0.0,0.0,0.0,0.0,0.0,0.0,0.0,0.0,0.0,0.0,0.0,0.0,0.0,0.0,0.0,0.0,0.0,0.0,0.0,0.0,0.0,0.0,0.0,0.0,0.0,0.0,0.0,0.0,0.0,0.0,0.0,0.0,0.0,0.0,0.0,0.0,0.0,0.0,0.0,0.0,0.0,0.0,0.0,0.0,0.0,0.0,0.0,0.0,0.0,0.0,0.0,0.0,0.0,0.0,0.0,0.0,0.0,0.0,0.0,0.0,0.0,0.0,0.0,0.0,0.0,0.0,0.0,0.0,0.0,0.0,0.0,0.0,0.0,0.0,0.0,0.0,0.0,0.0,0.0,0.0,0.0,0.0,0.0,0.0,0.0,0.0,0.0,-0.6139,-0.6321,-0.6568,-0.6604,-0.6408,-0.5839,-0.5322,0.0,0.0,0.0,0.0,0.0,0.0,0.0,0.0,0.0,0.0,0.0,0.0,0.0,0.0,0.0,0.0,0.0,0.0,0.0,0.0,0.0,0.0,0.0,0.0,0.0,0.0,0.0,0.0,0.0,0.0,0.0,0.0,0.0,0.0,0.0,0.0,0.0,0.0,0.0,0.0,0.0,0.0,0.0,0.0,0.0,0.0,0.0,0.0,0.4297,0.0,0.0,0.0,0.0,0.0,0.0,0.0,0.0,0.0,0.0,0.0,0.0,0.0,0.0,0.0,0.0,0.0,0.0,0.0,0.0,0.0,0.0,0.0,0.0,0.0,0.0,0.0,0.0,0.0,0.0,0.0,0.0,0.0,0.0,0.0,0.0,0.0,0.0,0.0,0.0,0.0,0.0,0.0,0.0,0.0,0.0,0.0,0.0,0.0,0.0,0.0,0.0,0.0,0.0,0.0,0.0,0.0,0.0,0.0,-0.6463,-0.6717,-0.6856,-0.6856,-0.666,-0.6075,-0.5586,0.0,0.0,0.0,0.0,0.0,0.0,0.0,0.0,0.0,0.0,0.0,0.0,0.0,0.0,0.0,0.0,0.0,0.0,0.0,0.0,0.0,0.0,0.0,0.0,0.0,0.0,0.0,0.0,0.0,0.0,0.0,0.0,0.0,0.0,0.0,0.0,0.0,0.0,0.0,0.0,0.0,0.0,0.0,0.0,0.0,0.0,0.0,0.0,0.0,0.0,0.0,0.0,0.0,0.0,0.0,0.0,0.0,0.0,0.0,0.0,0.0,0.0,0.0,0.0,0.0,0.0,0.0,0.0,0.0,0.0,0.0,0.0,0.0,0.0,0.0,0.0,0.0,0.0,0.0,0.0,0.0,0.0,0.0,0.0,0.0,0.0,0.0,0.0,0.0,0.0,0.0,0.0,0.0,0.0,0.0,0.0,0.0,0.0,0.0,0.0,0.0,0.0,0.0,0.0,0.0,0.0,0.0,-0.6549,-0.6913,-0.7223,-0.7214,-0.7158,-0.698,-0.6281,-0.5736,-0.5385,0.0,0.0,0.0,0.0,0.0,0.0,0.0,0.0,0.0,0.0,0.0,0.0,0.0,0.0,0.0,0.0,0.0,0.0,0.0,0.0,0.0,0.0,0.0,0.0,0.0,0.0,0.0,0.0,0.0,0.0,0.0,0.0,0.0,0.0,0.0,0.0,0.0,0.0,0.1437,0.2024,0.0,0.0,0.0,0.0,0.0,0.0,0.0,0.0,0.445,0.0,0.0,0.0,0.0,0.0,0.0,0.0,0.0,0.0,0.0,0.0,0.0,0.0,0.0,0.0,0.0,0.0,0.0,0.0,0.0,0.0,0.0,0.0,0.0,0.0,0.0,0.0,0.0,0.0,0.0,0.0,0.0,0.0,0.0,0.0,0.0,0.0,0.0,0.0,0.0,0.0,0.0,0.0,0.0,0.0,0.0,0.0,0.0,0.0,0.0,0.0,0.0,0.0,0.0,0.0,0.0,-0.6501,-0.6816,-0.7106,-0.7451,-0.7345,-0.7193,-0.698,-0.6288,-0.5724,-0.5291,0.0,0.0,0.0,0.0,0.0,0.0,0.0,0.0,0.0,0.0,0.0,0.0,0.0,0.0,0.0,0.0,0.0,0.0,0.0,0.0,0.0,0.0,0.0,0.0,0.0,0.0,0.0,0.0,0.0,0.0,0.0,0.0,0.0,0.0,0.0,0.0,0.0,0.0,0.0,0.2186,0.2633,0.0,0.0,0.0,0.0,0.0,0.0,0.0,0.0,0.3923,0.0,0.0,0.0,0.0,0.0,0.0,0.0,0.0,0.0,0.0,0.0,0.0,0.0,0.0,0.0,0.0,0.0,0.0,0.0,0.0,0.0,0.0,0.0,0.0,0.0,0.0,0.0,0.0,0.0,0.0,0.0,0.0,0.0,0.0,0.0,0.0,0.0,0.0,0.0,0.0,0.0,0.0,0.0,0.0,0.0,0.0,0.0,0.0,0.0,0.0,0.0,0.0,0.0,0.0,0.0,-0.6776,-0.7034,-0.7354,-0.7794,-0.7654,-0.7427,-0.7108,-0.6276,-0.5635,0.0,0.0,0.0,0.0,0.0,0.0,0.0,0.0,0.0,0.0,0.0,0.0,0.0,0.0,0.0,0.0,0.0,0.0,0.0,0.0,0.0,0.0,0.0,0.0,0.0,0.0,0.0,0.0,0.0,0.0,0.0,0.0,0.0,0.0,0.0,0.0,0.0,0.0,0.0,0.0,0.2209,0.2764,0.3851,0.0,0.0,0.0,0.0,0.0,0.0,0.3876,0.3293,0.0,0.0,0.0,0.0,0.0,0.0,0.0,0.0,0.0,0.0,0.0,0.0,0.0,0.0,0.0,0.0,0.0,0.0,0.0,0.0,0.0,0.0,0.0,0.0,0.0,0.0,0.0,0.0,0.0,0.0,0.0,0.0,0.0,0.0,0.0,0.0,0.0,0.0,0.0,0.0,0.0,0.0,0.0,0.0,0.0,0.0,0.0,0.0,0.0,0.0,0.0,0.0,0.0,0.0,0.0,-0.7051,-0.7321,-0.7633,-0.8067,-0.7938,-0.7635,-0.721,-0.6287,-0.554,0.0,0.0,0.0,0.0,0.0,0.0,0.0,0.0,0.0,0.0,0.0,0.0,0.0,0.0,0.0,0.0,0.0,0.0,0.0,0.0,0.0,0.0,0.0,0.0,0.0,0.0,0.0,0.0,0.0,0.0,0.0,0.0,0.0,0.0,0.0,0.0,0.0,0.0,0.0,0.0,0.0,0.274,0.3468,0.3777,0.0,0.0,0.0,0.0,0.3742,0.3004,0.0,0.0,0.0,0.0,0.0,0.0,0.0,0.0,0.0,0.0,0.0,0.0,0.0,0.0,0.0,0.0,0.0,0.0,0.0,0.0,0.0,0.0,0.0,0.0,0.0,0.0,0.0,0.0,0.0,0.0,0.0,0.0,0.0,0.0,0.0,0.0,0.0,0.0,0.0,0.0,0.0,0.0,0.0,0.0,0.0,0.0,0.0,0.0,0.0,0.0,0.0,0.0,0.0,0.0,0.0,0.0,-0.7318,-0.7726,-0.7963,-0.8086,-0.8083,-0.7805,-0.721,-0.6287,-0.5426,0.0,0.0,0.0,0.0,0.0,0.0,0.0,0.0,0.0,0.0,0.0,0.0,0.0,0.0,0.0,0.0,0.0,0.0,0.0,0.0,0.0,0.0,0.0,0.0,0.0,0.0,0.0,0.0,0.0,0.0,0.0,0.0,0.0,0.0,0.0,0.0,0.0,0.0,0.0,0.0,0.0,0.2329,0.3062,0.2849,0.2708,0.0,0.0,0.2937,0.2952,0.2097,0.0,0.0,0.0,0.0,0.0,0.0,0.0,0.0,0.0,0.0,0.0,0.0,0.0,0.0,0.0,0.0,0.0,0.0,0.0,0.0,0.0,0.0,0.0,0.0,0.0,0.0,0.0,0.0,0.0,0.0,0.0,0.0,0.0,0.0,0.0,0.0,0.0,0.0,0.0,0.0,0.0,0.0,0.0,0.0,0.0,0.0,0.0,0.0,0.0,0.0,0.0,0.0,0.0,0.0,0.0,-0.6592,-0.7275,-0.7751,-0.7967,-0.7936,-0.7822,-0.7499,-0.6937,-0.6005,-0.517,0.0,0.0,0.0,0.0,0.0,0.0,0.0,0.0,0.0,0.0,0.0,0.0,0.0,0.0,0.0,0.0,0.0,0.0,0.0,0.0,0.0,0.0,0.0,0.0,0.0,0.0,0.0,0.0,0.0,0.0,0.0,0.0,0.0,0.0,0.0,0.0,0.0,0.0,0.0,0.0,0.0,0.0,0.2688,0.2408,0.0,0.0,0.0,0.1653,0.1557,0.0,0.0,0.0,0.0,0.0,0.0,0.0,0.0,0.0,0.0,0.0,0.0,0.0,0.0,0.0,0.0,0.0,0.0,0.0,0.0,0.0,0.0,0.0,0.0,0.0,0.0,0.0,0.0,0.0,0.0,0.0,0.0,0.0,0.0,0.0,0.0,0.0,0.0,0.0,0.0,0.0,0.0,0.0,0.0,0.0,0.0,0.0,0.0,0.0,0.0,0.0,0.0,0.0,0.0,0.0,0.0,0.0,-0.726,-0.7717,-0.7915,-0.7864,-0.7696,-0.7315,-0.6766,-0.5927,0.0,0.0,0.0,0.0,0.0,0.0,0.0,0.0,0.0,0.0,0.0,0.0,0.0,0.0,0.0,0.0,0.0,0.0,0.0,0.0,0.0,0.0,0.0,0.0,0.0,0.0,0.0,0.2306,0.0,0.0,0.0,0.0,0.0,0.0,0.0,0.0,0.0,0.0,0.0,0.0,0.0,0.0,0.1708,0.194,0.1682,0.1355,0.0,0.0,0.0338,0.0241,-0.01,-0.0199,0.0,0.0,0.0,0.0,0.0,0.0,0.0,0.0,0.0,0.0,0.0,0.0,0.0,0.0,0.0,0.0,0.0,0.0,0.0,0.0,0.0,0.0,0.0,0.0,0.0,0.0,0.0,0.0,0.0,0.0,0.0,0.0,0.0,0.0,0.0,0.0,0.0,0.0,0.0,0.0,0.0,0.0,0.0,0.0,0.0,0.0,0.0,0.0,0.0,0.0,0.0,0.0,0.0,0.0,0.0,-0.7442,-0.7691,-0.7897,-0.8067,-0.7893,-0.7534,-0.698,-0.6298,-0.5408,0.0,0.0,0.0,0.0,0.0,0.0,0.0,0.0,0.0,0.0,0.0,0.0,0.0,0.0,0.0,0.0,0.0,0.0,0.0,0.0,0.0,0.0,0.0,0.0,0.0,0.0,0.0,0.0,0.0,0.0,0.0,0.0,0.0,0.0,0.0,0.0,0.0,0.0,0.0,0.0,0.0,0.0801,0.0565,0.0253,-0.0067,0.0,0.0,-0.0793,-0.0811,-0.1165,-0.1232,-0.046,0.0,0.0,0.0,0.0,0.0,0.0,0.0,0.0,0.0,0.0,0.0,0.0,0.0,0.0,0.0,0.0,0.0,0.0,0.0,0.0,0.0,0.0,0.0,0.0,0.0,0.0,0.0,0.0,0.0,0.0,0.0,0.0,0.0,0.0,0.0,0.0,0.0,0.0,0.0,0.0,0.0,0.0,0.0,0.0,0.0,0.0,0.0,0.0,0.0,0.0,0.0,0.0,0.0,-0.6797,-0.7388,-0.7751,-0.7933,-0.7918,-0.7637,-0.7294,-0.6833,-0.6045,-0.5251,0.0,0.0,0.0,0.0,0.0,0.0,0.0,0.0,0.0,0.0,0.0,0.0,0.0,0.0,0.0,0.0,0.0,0.0,0.0,0.0,0.0,0.0,0.0,0.0,0.0,0.0,0.0,0.0,0.267,0.2251,0.1703,0.0,0.0,0.0,0.0,0.0,0.0,0.0,0.0,0.0,0.0,0.0278,-0.0095,-0.0407,0.0,0.0,-0.1028,-0.102,-0.1334,-0.1168,-0.0803,-0.0302,0.0244,0.0,0.0,0.0,0.0,0.0,0.0,0.0,0.0,0.0,0.0,0.0,0.0,0.0,0.0,0.0,0.0,0.0,0.0,0.0,0.0,0.0,0.0,0.0,0.0,0.0,0.0,0.0,0.0,0.0,0.0,0.0,0.0,0.0,0.0,0.0,0.0,0.0,0.0,0.0,0.0,0.0,0.0,0.0,0.0,0.0,0.0,0.0,0.0,0.0,0.0,0.0,0.0,-0.6873,-0.7422,-0.7706,-0.7833,-0.7821,-0.7448,-0.7091,-0.67,-0.6001,-0.5352,0.0,0.0,0.0,0.0,0.0,0.0,0.0,0.0,0.0,0.0,0.0,0.0,0.0,0.0,0.0,0.0,0.0,0.0,0.0,0.0,0.0,0.0,0.0,0.0,0.0,0.0,0.0,0.0,0.2621,0.2071,0.1472,0.0,0.0,0.0,0.0,0.0,0.0,0.0,0.0,0.0,0.0,-0.0126,-0.0511,-0.0806,-0.113,-0.1505,-0.134,-0.1267,-0.161,-0.1194,-0.055,0.0226,0.0,0.0,0.0,0.0,0.0,0.0,0.0,0.0,0.0,0.0,0.0,0.0,0.0,0.0,0.0,0.0,0.0,0.0,0.0,0.0,0.0,0.0,0.0,0.0,0.0,0.0,0.0,0.0,0.0,0.0,-0.4158,0.0,0.0,0.0,0.0,0.0,0.0,0.0,0.0,0.0,0.0,0.0,0.0,0.0,0.0,0.0,0.0,0.0,0.0,0.0,0.0,0.0,0.0,-0.6813,-0.7674,-0.7574,-0.7609,-0.7794,-0.7412,-0.7056,-0.6708,-0.6358,-0.587,-0.5189,0.0,0.0,0.0,0.0,0.0,0.0,0.0,0.0,0.0,0.0,0.0,0.0,0.0,0.0,0.0,0.0,0.0,0.0,0.0,0.0,0.0,0.0,0.0,0.0,0.0,0.0,0.2566,0.1588,0.0868,0.0,0.0,0.0,0.0,0.0,0.0,0.0,0.0,0.0,0.0,-0.0016,-0.0462,-0.0668,-0.0987,-0.1308,-0.1632,-0.1683,-0.1652,-0.1612,-0.1411,-0.0675,0.0,0.0,0.0,0.0,0.0,0.0,0.0,0.0,0.0,0.0,0.0,0.0,0.0,0.0,0.0,0.0,0.0,0.0,0.0,0.0,0.0,0.0,0.0,0.0,0.0,0.0,0.0,-0.5463,-0.553,0.0,0.0,0.0,0.0,0.0,0.0,0.0,0.0,0.0,0.0,0.0,-0.7754,-0.7539,0.0,0.0,0.0,0.0,0.0,0.0,0.0,0.0,0.0,0.0,0.0,0.0,-0.6619,-0.7519,-0.7669,-0.7789,-0.7979,-0.7517,-0.715,-0.6906,-0.641,-0.5732,-0.4898,0.0,0.0,0.0,0.0,0.0,0.0,0.0,0.0,0.0,0.0,0.0,0.0,0.0,0.0,0.0,0.0,0.0,0.0,0.0,0.0,0.0,0.0,0.0,0.0,0.0,0.2857,0.0,0.0,0.0,0.0,0.0,0.0,0.0,0.0,0.0,0.0,0.0,0.0437,-0.0162,-0.0365,-0.0626,-0.1043,-0.1197,-0.1355,0.0,0.0,0.0,0.0,0.0,0.0,0.0,0.0,0.0,0.0,0.0,0.0,0.0,0.0,0.2464,0.3725,0.4077,0.4184,0.4278,0.0,0.0,0.0,0.0,0.0,0.0,0.0,0.0,0.0,0.0,0.0,0.0,0.0,0.0,-0.7424,0.0,-0.7561,0.0,0.0,0.0,0.0,0.0,0.0,0.0,0.0,-1.0046,-1.0079,-0.9678,-0.9199,-0.8407,0.0,-0.6657,-0.5712,0.0,0.0,0.0,0.0,0.0,0.0,0.0,0.0,-0.6561,-0.7459,-0.7637,-0.778,-0.7892,-0.7422,-0.7049,-0.6783,-0.6406,-0.586,-0.5154,-0.4503,-0.3861,0.0,0.0,0.0,0.0,0.0,0.0,0.0,0.0,0.0,0.0,0.0,0.0,0.0,0.0,0.0,0.0,0.0,0.0,0.0,0.0,0.0,0.0,0.0,0.2239,0.0,0.0,0.0,0.0,0.0,0.0,0.0,0.0,0.0,0.059,0.031,-0.0101,-0.0589,-0.0715,-0.0895,-0.1246,0.0,0.0,0.0,0.0,0.0,0.0,0.0,-0.0828,-0.0278,0.022,0.0754,0.1351,0.1195,0.0987,0.0987,0.0,0.0,0.2607,0.2891,0.2924,0.2902,0.3088,0.3138,0.2718,0.304,0.3061,0.0,0.0,0.0,0.0,0.0,0.0,0.0,0.0,-0.9858,-0.9798,0.0,-0.9745,0.0,0.0,0.0,0.0,0.0,-1.0517,0.0,0.0,-1.2064,-1.217,-1.1416,-1.0436,-0.9749,-0.932,-0.8098,-0.7272,-0.6831,-0.5659,0.0,0.0,0.0,0.0,0.0,0.0,-0.6705,-0.7496,-0.7524,-0.7546,-0.7593,-0.7155,-0.6763,-0.6456,-0.6399,-0.6237,-0.5928,-0.5474,-0.4994,-0.4517,-0.3578,0.0,0.0,0.0,0.0,0.0,0.0,0.0,0.0,0.0,0.0,0.0,0.0,0.0,0.0,0.0,0.0,0.0,0.0,0.0,0.0,0.1623,0.0,0.0,0.0,0.0,0.0,0.0,0.0,0.0,0.0,0.0,-0.0049,-0.0296,-0.059,-0.0795,0.0,0.0,0.0,0.0,-0.1792,-0.174,-0.1933,-0.207,-0.2008,-0.1869,-0.1399,-0.0281,0.0,0.0,0.1613,0.0956,0.0271,0.0293,0.0046,0.0182,0.0986,0.1033,0.0904,0.0797,0.088,0.069,0.0209,0.0447,0.0604,-1.6306,0.0,0.0,0.0,0.0,-1.1542,-1.189,-1.2221,-1.2137,-1.1991,-1.1814,-1.1509,0.0,0.0,0.0,0.0,0.0,0.0,-1.2209,-1.2924,-1.3454,-1.343,-1.2949,-1.2723,-1.2111,-1.1295,-1.076,-0.9956,-0.8951,-0.829,-0.7136,-0.5502,0.0,0.0,0.0,0.0,-0.6962,-0.767,-0.7718,-0.7653,-0.7532,-0.7244,-0.7005,-0.6769,-0.6528,-0.6343,-0.6263,-0.6036,-0.5643,-0.501,-0.4737,0.0,0.0,0.0,0.0,0.0,0.0,0.0,0.0,0.0,0.0,0.0,0.0,0.0,0.0,0.0,0.0,0.0,0.0,0.0,0.1458,0.0867,0.0392,0.0,0.0,0.0,0.0,0.0,0.0,0.0,0.0,0.0,-0.1584,-0.1284,-0.1087,0.0,0.0,-0.132,-0.1552,-0.188,-0.208,-0.2054,-0.2128,0.0,-0.2207,-0.2017,-0.1753,-0.1404,-0.1183,-0.0959,-0.0775,-0.1137,-0.1474,-0.1447,-0.1641,-0.1703,-0.1498,-0.0692,-0.023,-0.0344,-0.0275,-0.0507,-0.1353,-0.1364,-0.164,-2.0499,-1.737,-1.577,-1.4558,-1.3706,-1.3758,-1.3868,-1.4021,-1.4002,-1.3901,-1.371,-1.349,-1.2956,-1.2206,-1.1919,0.0,0.0,0.0,-1.3328,-1.4146,-1.4467,-1.4568,-1.4412,-1.4131,-1.3643,-1.2995,-1.2351,-1.1609,-1.0819,-0.9992,-0.8867,-0.7432,0.0,0.0,-0.679,-0.6897,-0.7244,-0.7888,-0.7915,-0.7867,-0.7738,-0.7422,-0.722,-0.713,-0.6865,-0.6694,-0.6633,-0.6549,-0.6266,-0.5787,-0.5563,-0.505,0.0,0.0,0.0,0.0,0.0,0.0,0.0,0.0,0.0,0.0,0.0,0.1427,0.1449,0.0,0.0,0.0,0.1324,0.0914,0.022,-0.0319,0.0,0.0,0.0,0.0,0.0,0.0,0.0,-0.3106,-0.303,-0.309,-0.3399,-0.3092,-0.2517,-0.1606,-0.1349,-0.1353,-0.1688,0.0,-0.25,-0.2388,-0.247,-0.2562,-0.2616,-0.2497,-0.2366,-0.227,-0.2208,-0.2149,-0.207,-0.2316,-0.2502,-0.2527,-0.272,-0.2869,-0.2899,-0.2209,-0.1744,-0.2042,-0.2091,-0.24,-0.3386,-0.3442,-0.377,-2.4157,-2.3739,-2.0715,-1.8406,-1.6714,-1.6308,-1.5958,-1.5665,-1.56,-1.5592,-1.5563,-1.5455,-1.5131,-1.4536,-1.3935,0.0,-1.3686,-1.3979,-1.4387,-1.4883,-1.5183,-1.5462,-1.5684,-1.4929,-1.4517,-1.4475,-1.3252,-1.263,-1.249,-1.1167,-1.0332,-0.9989,-0.807,-0.7121,-0.7129,-0.7285,-0.7619,-0.8107,-0.8134,-0.8106,-0.8115,-0.7644,-0.7454,-0.7558,-0.7346,-0.7162,-0.7016,-0.7008,-0.6905,-0.6619,-0.6237,-0.5852,-0.546,0.0,0.0,0.0,0.0,0.0,0.0,0.0,0.0,0.0,0.0,0.0,0.0,0.0,0.0,0.0,-0.0143,0.0,-0.1462,-0.1864,0.0,0.0,0.0,-0.3511,-0.403,-0.4384,-0.4617,-0.4728,0.0,0.0,-0.5245,-0.5286,-0.4517,-0.2388,-0.1658,-0.1467,-0.1839,-0.2567,-0.2996,-0.2686,-0.2909,-0.3111,-0.3071,-0.3058,-0.2983,-0.2839,-0.2874,-0.2773,-0.2602,-0.2766,-0.2981,-0.2959,-0.3199,-0.3388,-0.342,-0.3305,-0.35,-0.3734,-0.4047,-0.4464,-0.513,-0.532,-0.5426,-2.6435,-2.47,-2.3336,-2.1509,-1.9447,-1.8499,-1.8057,-1.7955,-1.7434,-1.7083,-1.682,-1.6089,-1.5563,-1.5169,-1.5022,-1.4949,-1.4949,-1.5022,-1.5218,-1.5502,-1.5556,-1.5749,-1.5984,-1.5797,-1.5596,-1.5394,-1.5279,-1.4781,-1.3921,-1.3255,-1.2629,-1.1998,-1.1037,-0.9736,-0.8123,-0.797,-0.8052,-0.8307,-0.8335,-0.8331,-0.832,-0.8237,-0.813,-0.7958,-0.7757,-0.7501,-0.7154,-0.7146,-0.7053,-0.6849,-0.6859,-0.6607,-0.5964,-0.5303,0.0,0.0,0.0,0.0,0.0,0.0,0.0,0.0,0.0,-0.0999,-0.0797,0.0,-0.1706,0.0,-0.22,-0.2787,-0.3454,-0.3585,0.0,0.0,-0.4935,-0.5198,-0.5672,-0.5463,-0.5459,-0.5918,-0.5828,-0.5736,-0.5739,-0.6082,-0.5965,-0.4873,-0.2859,-0.1721,-0.2372,-0.2867,-0.3142,-0.3042,-0.312,-0.3163,-0.3183,-0.3174,-0.3179,-0.3186,-0.3027,-0.289,-0.2878,-0.295,-0.2986,-0.3012,-0.3225,-0.3401,-0.3469,-0.3477,-0.3605,-0.3914,-0.4151,-0.4493,-0.5144,-0.5453,-0.5746,-2.9367,-2.8082,-2.679,-2.4929,-2.2681,-2.0092,-1.8921,-1.88,-1.8555,-1.8364,-1.8145,-1.7156,-1.6579,-1.6235,-1.6087,-1.6033,-1.6012,-1.6033,-1.6189,-1.6472,-1.6366,-1.6472,-1.6715,-1.6721,-1.6559,-1.6259,-1.6559,-1.6305,-1.5529,-1.505,-1.4578,-1.4077,-1.3086,-1.1961,-1.0739,-1.0263,-1.0078,-1.0168,-0.9751,-0.9557,-0.9518,-0.9008,-0.8651,-0.8511,-0.8219,-0.7964,-0.7737,-0.7643,-0.7549,-0.7428,-0.745,-0.7294,-0.6863,-0.631,-0.5764,0.0,0.0,0.0,0.0,0.0,0.0,0.0,0.0,0.0,0.0,0.0,-0.3352,-0.359,-0.3849,-0.4273,-0.4939,-0.507,-0.5474,-0.6316,-0.6536,-0.6805,-0.7315,-0.7211,-0.7231,-0.7566,-0.7473,-0.7391,-0.7462,-0.7708,-0.7601,-0.6852,-0.5785,-0.4869,-0.4322,-0.4699,-0.4839,-0.4029,-0.3882,-0.3732,-0.3282,-0.3206,-0.3217,-0.3224,-0.3174,-0.3075,-0.3139,-0.3159,-0.3204,-0.3246,-0.3337,-0.3469,-0.3523,-0.3537,-0.3606,-0.3789,-0.4006,-0.4382,-0.4935,-0.5217,-0.5458,-3.1718,-3.1406,-2.9531,-2.7512,-2.5193,-2.1172,-1.9298,-1.8979,-1.921,-1.9283,-1.918,-1.8233,-1.7653,-1.7413,-1.7078,-1.6914,-1.6861,-1.6891,-1.7127,-1.7489,-1.7255,-1.7276,-1.7533,-1.7486,-1.7276,-1.6931,-1.7224,-1.7224,-1.6889,-1.6423,-1.6147,-1.5985,-1.4747,-1.4106,-1.4058,-1.343,-1.2894,-1.2485,-1.1713,-1.1291,-1.1231,-1.0049,-0.936,-0.9211,-0.8875,-0.8645,-0.853,-0.8348,-0.8252,-0.8195,-0.8037,-0.7949,-0.7893,-0.7418,-0.6925,0.0,-0.6015,0.0,0.0,0.0,0.0,0.0,0.0,0.0,0.0,-0.4629,-0.5002,-0.533,-0.5397,-0.5675,-0.6297,-0.6487,-0.6876,-0.7611,-0.7915,-0.8274,-0.8761,-0.9004,-0.9129,-0.9129,-0.9129,-0.9209,-0.9251,-0.938,-0.9081,-0.8343,-0.8761,-0.846,-0.6967,-0.6761,-0.6356,-0.501,-0.4696,-0.4083,-0.34,-0.3228,-0.3234,-0.3228,-0.3184,-0.327,-0.3252,-0.3281,-0.3342,-0.3428,-0.3452,-0.3496,-0.3556,-0.3572,-0.3586,-0.3614,-0.3807,-0.4111,-0.4616,-0.4868,-0.4987,-3.0309,-2.9164,-2.7141,-2.5411,-2.3828,-2.1438,-2.0267,-1.9903,-1.9477,-1.9151,-1.8858,-1.813,-1.7925,-1.8086,-1.7768,-1.743,-1.7138,-1.7415,-1.7523,-1.7489,-1.7445,-1.7517,-1.7719,-1.7466,-1.7185,-1.6921,-1.6865,-1.6881,-1.6916,-1.6807,-1.6962,-1.7392,-1.6964,-1.6766,-1.6772,0.0,0.0,0.0,-1.2887,-1.2719,-1.2542,-1.2035,-1.1327,-1.0432,-1.0311,0.0,-0.9252,-0.9164,-0.8998,-0.8684,-0.878,0.0,0.0,0.0,0.0,0.0,0.0,0.0,0.0,0.0,0.0,0.0,-0.6757,-0.6483,-0.6141,-0.6803,-0.7256,-0.7343,-0.7498,-0.7767,-0.8219,-0.8105,-0.824,-0.8788,-0.8918,-0.908,-0.9372,-0.9372,-0.9331,-0.9355,-0.9355,-0.9314,-0.921,-0.9388,-0.9461,-0.9186,-0.9533,-0.9642,-0.9196,-0.7302,-0.5666,-0.4889,-0.4293,-0.3586,-0.3328,-0.3317,-0.3325,-0.3272,-0.3102,-0.3047,-0.3165,-0.3033,-0.3015,-0.3212,-0.3334,-0.3407,-0.3452,-0.3521,-0.3589,-0.3589,-0.3645,-0.3757,-0.412,-0.4568,-0.4931,-3.1283,0.0,-2.9534,-2.808,0.0,-2.458,-2.2887,-2.1318,-2.0235,-1.9564,-1.9283,-1.9081,-1.8921,-1.8774,-1.8699,-1.8573,-1.8398,-1.8733,-1.8828,-1.8668,-1.8536,-1.8525,-1.8603,-1.8208,-1.7793,-1.7358,-1.7444,-1.7444,-1.7374,-1.751,-1.7844,-1.8287,-1.8017,-1.7894,-1.7894,-1.7989,-1.719,-1.5493,-1.4913,-1.4586,-1.4447,-1.3633,-1.2935,-1.2368,-1.2218,0.0,0.0,0.0,0.0,0.0,0.0,0.0,0.0,-0.9048,0.0,-0.8845,-0.8469,-0.8193,-0.8031,-0.796,-0.808,-0.836,-0.848,-0.8254,-0.7631,-0.8061,-0.8335,-0.8342,-0.8437,-0.8645,-0.8941,-0.8857,-0.8956,-0.9327,-0.941,-0.9459,-0.9567,-0.9526,-0.9551,-0.9616,-0.9535,-0.951,-0.9641,-0.9681,-0.9762,-0.9787,-0.9926,-1.0048,-0.9937,-0.879,-0.7373,-0.602,-0.4898,-0.4041,-0.3473,-0.3361,-0.3353,-0.3163,-0.305,-0.2912,-0.2812,-0.2847,-0.295,-0.321,-0.3242,-0.3238,-0.3436,-0.344,-0.339,-0.3558,-0.3589,-0.3617,-0.3813,-0.4257,-0.4704,-3.2698,-3.2669,-3.2363,-3.1231,-2.9417,-2.7746,-2.5318,-2.2499,0.0,0.0,0.0,-1.9916,-1.9755,-1.9386,-1.9494,-1.9569,-1.9606,-2.0018,-2.0123,-2.0012,-1.9784,-1.9587,-1.9471,-1.9034,-1.8557,-1.8103,-1.8287,-1.8287,-1.8103,-1.8437,-1.8653,-1.8773,-1.8605,-1.8446,-1.8398,-1.8398,-1.824,-1.7947,-1.695,-1.6396,-1.633,-1.5138,-1.4444,-1.4295,-1.4143,-1.3888,-1.3553,-1.2814,-1.2158,-1.164,-1.0715,-1.0152,-1.0108,-0.9947,-0.9762,-0.9567,-0.9508,-0.9423,-0.9287,-0.9311,-0.9435,-0.9657,-0.9624,-0.9346,-0.8816,-0.8873,-0.8949,-0.8924,-0.8899,-0.8956,-0.9187,-0.9193,-0.9275,-0.9549,-0.9606,-0.9622,-0.9697,-0.9697,-0.9778,-0.9917,-0.9811,-0.9827,-1.0105,-1.004,-1.0007,-1.0171,-1.0202,-1.0259,-1.0268,-0.9871,-0.8837,-0.7057,-0.6052,-0.528,-0.4489,-0.4296,-0.3972,-0.3642,-0.3396,-0.3043,-0.2585,-0.2577,-0.2869,-0.3036,-0.3,-0.3083,-0.3351,-0.3271,-0.3205,-0.3544,-0.3608,-0.3589,-0.3645,-0.4033,-0.4397,-3.2698,-3.2584,-3.1227,-3.0461,-2.9997,-2.7909,-2.5336,-2.2466,-2.0351,-1.9576,-1.9752,-1.9239,-1.9283,-1.9735,-1.9456,-1.9454,-1.9635,-2.0245,-2.0476,-2.041,-2.0329,-2.0106,-1.9789,-1.9129,-1.8939,-1.9137,-1.8868,-1.8868,-1.9185,-1.9503,-1.9383,-1.89,-1.9098,-1.9066,-1.8757,-1.8725,-1.8709,-1.8646,-1.8044,-1.7634,-1.7379,-1.6743,-1.6082,-1.5497,-1.544,-1.5131,-1.4542,-1.4369,-1.3639,-1.2192,-1.2092,-1.1635,-1.0604,-1.0426,-1.0436,-1.0575,-1.0367,-1.0126,-0.991,-1.0089,-1.0131,-0.9961,-0.9723,-0.9542,-0.9468,-0.946,-0.9476,-0.9476,-0.9278,-0.9162,-0.9195,-0.916,-0.9262,-0.9488,-0.963,-0.9794,-1.0037,-1.0088,-1.0105,-1.0145,-1.0129,-1.0113,-1.0194,-1.0204,-1.0162,-1.0211,-1.0341,-1.0444,-1.0401,-0.9568,-0.8381,-0.7328,-0.7112,-0.7055,-0.6673,-0.6937,-0.6228,-0.5164,-0.448,-0.3712,-0.2522,-0.2316,-0.2378,-0.239,-0.2545,-0.2726,-0.2983,-0.3068,-0.3181,-0.3416,-0.3528,-0.358,-0.3586,-0.3866,-0.4092,-3.2698,-3.2612,-3.1911,-3.1623,-3.137,-2.8309,-2.573,-2.3524,-2.1294,-2.0194,-2.0033,-2.0062,-2.0369,-2.0822,-2.0866,-2.0908,-2.1034,-2.1133,-2.1122,-2.1041,-2.0846,-2.0613,-2.0407,-2.009,-1.9931,-1.9932,-1.9558,-1.9503,-1.9646,-1.967,-1.955,-1.9399,-1.9582,-1.9582,-1.9399,-1.9383,-1.9304,-1.9137,-1.8688,-1.8384,-1.8231,-1.7902,-1.7568,-1.7236,-1.7236,-1.7108,-1.6816,-1.6211,-1.5581,-1.4898,-1.3649,-1.2687,-1.201,-1.1371,-1.0981,-1.0806,-1.0683,-1.0487,-1.0216,-1.0314,-1.029,-1.0019,-0.9871,-0.9747,-0.9624,-0.9599,-0.9599,-0.9599,-0.9484,-0.9449,-0.9579,-0.9557,-0.9619,-0.985,-0.9956,-1.003,-1.016,-1.0186,-1.0227,-1.0282,-1.0243,-1.0259,-1.0455,-1.0371,-1.0355,-1.0463,-1.0534,-1.0615,-1.068,-1.0306,-0.949,-0.8339,-0.8173,-0.8007,-0.7686,-0.7425,-0.6774,-0.5547,-0.497,-0.4061,-0.2728,-0.2342,-0.2413,-0.2553,-0.257,-0.2592,-0.2739,-0.2805,-0.2985,-0.3213,-0.3314,-0.3384,-0.3547,-0.3701,-0.3813,-3.2781,-3.2698,-3.2698,-3.2698,-3.235,-2.8772,-2.64,-2.492,-2.2499,-2.1145,-2.0736,-2.1043,-2.1393,-2.1715,-2.1964,-2.2111,-2.2156,-2.1859,-2.1639,-2.1519,-2.1087,-2.0924,-2.0907,-2.0854,-2.0769,-2.0718,-2.0489,-2.033,-2.021,-2.0059,-1.998,-2.0012,-1.9932,-1.9909,-1.9909,-1.9909,-1.9781,-1.9503,-1.9129,-1.8884,-1.8804,-1.8658,-1.8613,-1.8714,-1.8699,-1.8754,-1.8762,-1.7939,-1.7395,-1.7117,-1.506,-1.3692,-1.3264,-1.2184,-1.1409,-1.1051,-1.1008,-1.0934,-1.0744,-1.0594,-1.0444,-1.026,-1.0128,-0.9987,-0.9788,-0.9689,-0.9664,-0.9664,-0.9689,-0.9737,-0.9848,-0.9895,-0.9985,-1.0148,-1.0213,-1.0245,-1.0308,-1.0308,-1.0357,-1.0452,-1.0363,-1.043,-1.0618,-1.0574,-1.0542,-1.0639,-1.0743,-1.077,-1.0751,-1.0962,-1.0633,-0.9774,-0.9416,-0.9299,-0.852,-0.8272,-0.7658,-0.6412,-0.5718,-0.4745,-0.3478,-0.2812,-0.264,-0.2729,-0.2619,-0.2523,-0.2559,-0.2615,-0.2768,-0.3007,-0.3171,-0.3303,-0.3547,-0.36,-0.3659,-3.3078,-3.2719,-3.2698,-3.2698,-3.2334,-2.9234,-2.7428,-2.6457,-2.3489,-2.2067,-2.2142,-2.1452,-2.1452,-2.1672,-2.1789,-2.1979,-2.2184,-2.1859,-2.1689,-2.1596,-2.0966,-2.077,-2.0976,-2.0711,-2.1008,-2.1719,-2.1746,-2.1507,-2.1201,-2.1507,-2.1253,-2.0441,-2.0044,-1.9916,-1.9925,-1.99,-1.9884,-1.9837,-1.9519,-1.9161,-1.882,-1.8781,-1.894,-1.9296,-1.932,-1.9359,-1.9423,-1.931,-1.8718,-1.7566,-1.6159,-1.4878,-1.3869,-1.2561,-1.1775,-1.1721,-1.1695,-1.1679,-1.1627,-1.1198,-1.0955,-1.0955,-1.0542,-1.0272,-1.023,-0.9994,-0.986,-0.9868,-0.9868,-0.9864,-0.9834,-0.9923,-1.0028,-1.0094,-1.0228,-1.0374,-1.0568,-1.0639,-1.0675,-1.0691,-1.0642,-1.0683,-1.0672,-1.0664,-1.0691,-1.0707,-1.088,-1.0962,-1.0833,-1.1208,-1.1318,-1.0798,-1.0935,-1.1044,-1.0652,-1.0743,-0.9766,-0.8596,-0.7382,-0.6024,-0.462,-0.3369,-0.2621,-0.2742,-0.2482,-0.2393,-0.2466,-0.2537,-0.2632,-0.2922,-0.3196,-0.3463,-0.3564,-0.3584,-0.36,-3.2863,-3.2698,-3.2698,-3.2698,-3.2363,-3.0256,-2.9199,-2.8727,-2.6537,-2.5572,-2.5389,-2.4279,-2.3307,-2.252,-2.2535,-2.2608,-2.2667,-2.2024,-2.1786,-2.1885,-2.1428,-2.1321,-2.1593,-2.1876,-2.2119,-2.2227,-2.2096,-2.1783,-2.147,-2.1385,-2.1115,-2.0734,-2.0543,-2.0496,-2.0496,-2.0496,-2.0384,-2.0203,-2.0075,-1.9797,-1.9463,-1.9256,-1.932,-1.9646,-1.9718,-1.9828,-1.9966,-1.9865,-1.9588,-1.9189,-1.7762,-1.6657,-1.6097,-1.4133,-1.2925,-1.2776,-1.2174,-1.1813,-1.1813,-1.1606,-1.1423,-1.1289,-1.1075,-1.0818,-1.0493,-1.0381,-1.0294,-1.0202,-1.0111,-1.0102,-1.0139,-1.0201,-1.0281,-1.0403,-1.0491,-1.0586,-1.0688,-1.0715,-1.0715,-1.0715,-1.0715,-1.0715,-1.0715,-1.0715,-1.0715,-1.0743,-1.0935,-1.1044,-1.0989,-1.1463,-1.1618,-1.14,-1.1591,-1.1564,-1.1208,-1.0935,-1.0386,-0.9436,-0.8554,-0.7415,-0.5492,-0.455,-0.3793,-0.3064,-0.2779,-0.2592,-0.2578,-0.2756,-0.2907,-0.3072,-0.327,-0.355,-0.3537,-0.3572,-0.3628,-3.2744,-3.269,-3.2698,-3.2698,-3.2555,-3.0975,-3.0315,-3.0081,-2.8587,-2.7883,-2.7704,-2.6214,-2.4886,-2.3806,-2.3324,-2.3106,-2.2988,-2.2213,-2.1862,-2.1919,-2.1551,-2.1486,-2.1822,-2.2345,-2.2604,-2.2541,-2.2359,-2.2021,-2.155,-2.1105,-2.0899,-2.0899,-2.0899,-2.0899,-2.0899,-2.0899,-2.0772,-2.0543,-2.0448,-2.033,-2.0155,-1.9853,-1.9789,-2.0012,-2.0044,-2.0203,-2.0512,-2.0314,-2.0273,-2.0477,-1.9004,-1.8088,-1.7851,-1.5451,-1.3762,-1.3205,-1.2428,-1.1956,-1.1966,-1.1966,-1.1859,-1.1603,-1.1542,-1.1333,-1.0967,-1.0758,-1.0667,-1.0595,-1.0441,-1.0406,-1.0477,-1.0482,-1.0539,-1.0699,-1.0715,-1.0715,-1.0715,-1.0715,-1.0715,-1.0715,-1.0715,-1.0715,-1.0715,-1.0715,-1.0715,-1.0743,-1.0907,-1.1099,-1.1181,-1.1591,-1.19,-1.1673,-1.1837,-1.1782,-1.1345,-1.1053,-1.0496,-0.9994,-0.9361,-0.8091,-0.6232,-0.5547,-0.4642,-0.354,-0.3298,-0.306,-0.2848,-0.2969,-0.3133,-0.3221,-0.3387,-0.3575,-0.354,-0.3602,-0.363,-3.281,-3.269,-3.2698,-3.2698,-3.2584,-3.1033,-3.0344,-3.0373,-2.8765,-2.8003,-2.7824,-2.6305,-2.5483,-2.5193,-2.3775,-2.3106,-2.3018,-2.2447,-2.2052,-2.1774,-2.1172,-2.0931,-2.1251,-2.1544,-2.2035,-2.2576,-2.283,-2.2593,-2.1984,-2.1306,-2.0899,-2.0931,-2.0962,-2.0915,-2.0915,-2.0915,-2.0883,-2.0845,-2.0575,-2.0543,-2.074,-2.0496,-2.0337,-2.0369,-2.0394,-2.0527,-2.0804,-2.0851,-2.0851,-2.0867,-1.9546,-1.8766,-1.8518,-1.6119,-1.3997,-1.2687,-1.2398,-1.2371,-1.2335,-1.2343,-1.226,-1.2056,-1.1832,-1.1673,-1.1567,-1.1194,-1.1004,-1.1065,-1.083,-1.0667,-1.0683,-1.0647,-1.0664,-1.0715,-1.0715,-1.0715,-1.0715,-1.0715,-1.0715,-1.0715,-1.0715,-1.0715,-1.0715,-1.0715,-1.0704,-1.0759,-1.0943,-1.1152,-1.127,-1.1664,-1.1864,-1.1837,-1.1882,-1.1919,-1.1618,-1.1318,-1.1099,-1.0743,-0.9884,-0.8589,-0.7337,-0.6139,-0.5023,-0.3959,-0.3484,-0.3186,-0.3087,-0.3107,-0.3218,-0.33,-0.3379,-0.3491,-0.355,-0.3575,-0.361,-3.2613,-3.2698,-3.2698,-3.2698,-3.2612,-3.2076,-3.1825,-3.1767,-3.1256,-3.0373,-2.9268,-2.7734,-2.647,-2.5422,-2.3806,-2.3106,-2.3062,-2.2652,-2.2403,-2.2242,-2.2024,-2.1975,-2.2141,-2.2611,-2.2691,-2.2616,-2.3073,-2.3089,-2.2672,-2.237,-2.2148,-2.1894,-2.1714,-2.1481,-2.1232,-2.101,-2.0899,-2.0883,-2.0782,-2.0798,-2.0883,-2.0772,-2.0734,-2.0709,-2.0709,-2.0756,-2.0899,-2.0899,-2.0899,-2.0899,-2.0241,-1.9905,-1.9631,-1.7213,-1.4674,-1.2708,-1.2382,-1.2382,-1.2382,-1.2382,-1.2381,-1.2288,-1.2197,-1.2053,-1.19,-1.1711,-1.1548,-1.1391,-1.1126,-1.0962,-1.0907,-1.0798,-1.0715,-1.0715,-1.0715,-1.0715,-1.0715,-1.0715,-1.0715,-1.0715,-1.0715,-1.0715,-1.0712,-1.0794,-1.0846,-1.0772,-1.1162,-1.1453,-1.1644,-1.1979,-1.2192,-1.2312,-1.2311,-1.2219,-1.2137,-1.17,-1.14,-1.1318,-1.0707,-0.9409,-0.8161,-0.7277,-0.6241,-0.4334,-0.3639,-0.3384,-0.3316,-0.3344,-0.3441,-0.3441,-0.3512,-0.3518,-0.3606,-0.3647,-0.3677,-3.2498,-3.2584,-3.2669,-3.2698,-3.2698,-3.2698,-3.2698,-3.2698,-3.2669,-3.1796,-3.0198,-2.8598,-2.7013,-2.5422,-2.3806,-2.3106,-2.3091,-2.2871,-2.2694,-2.2608,-2.2615,-2.2543,-2.257,-2.3016,-2.3085,-2.2815,-2.3237,-2.339,-2.3168,-2.3041,-2.2895,-2.2641,-2.2334,-2.2021,-2.1724,-2.1296,-2.1048,-2.1074,-2.1074,-2.1074,-2.1058,-2.1058,-2.1048,-2.1042,-2.0962,-2.0899,-2.0899,-2.0899,-2.0899,-2.0873,-2.0719,-2.0215,-1.919,-1.7489,-1.5236,-1.2807,-1.2382,-1.2382,-1.2382,-1.2382,-1.2382,-1.2382,-1.2382,-1.23,-1.2146,-1.2055,-1.1919,-1.1728,-1.1455,-1.1263,-1.1217,-1.0989,-1.0806,-1.0751,-1.0715,-1.0715,-1.0715,-1.0715,-1.0715,-1.0715,-1.0715,-1.0715,-1.0732,-1.0802,-1.0834,-1.0777,-1.1287,-1.1654,-1.194,-1.2151,-1.2432,-1.2692,-1.2431,-1.2274,-1.2119,-1.1791,-1.1673,-1.1618,-1.1455,-1.0233,-0.8989,-0.8189,-0.6944,-0.4975,-0.3949,-0.3726,-0.3589,-0.3589,-0.3589,-0.3589,-0.3578,-0.357,-0.365,-0.3699,-0.3758,-3.2547,-3.2404,-3.2604,-3.2719,-3.2698,-3.2698,-3.2698,-3.2698,-3.2698,-3.1796,-3.0198,-2.8598,-2.7013,-2.5422,-2.3806,-2.3106,-2.3106,-2.3062,-2.2884,-2.2681,-2.2637,-2.2507,-2.2348,-2.2662,-2.3006,-2.3211,-2.3432,-2.3552,-2.3597,-2.3359,-2.3197,-2.3022,-2.272,-2.2513,-2.2466,-2.1772,-2.1396,-2.1396,-2.1396,-2.1423,-2.1396,-2.1423,-2.1396,-2.1391,-2.1137,-2.0994,-2.0962,-2.0931,-2.0947,-2.0931,-2.0931,-1.9569,-1.745,-1.6724,-1.5396,-1.2943,-1.2382,-1.2382,-1.2382,-1.2382,-1.2382,-1.2382,-1.2382,-1.2382,-1.2327,-1.2164,-1.2028,-1.1973,-1.1755,-1.1591,-1.1564,-1.1318,-1.0989,-1.0778,-1.0724,-1.0715,-1.0715,-1.0715,-1.0715,-1.0715,-1.0715,-1.0715,-1.0724,-1.0769,-1.0834,-1.098,-1.1292,-1.1668,-1.2069,-1.2303,-1.2487,-1.2665,-1.259,-1.2386,-1.211,-1.1846,-1.1873,-1.1864,-1.1673,-1.1008,-0.9601,-0.8575,-0.7271,-0.5477,-0.4033,-0.3726,-0.3617,-0.3589,-0.3589,-0.3589,-0.3591,-0.3597,-0.3655,-0.3728,-0.389,-3.263,-3.2726,-3.3045,-3.2996,-3.2719,-3.2698,-3.2698,-3.2669,-3.2698,-3.1796,-3.0198,-2.8616,-2.6983,-2.5422,-2.3837,-2.3137,-2.3106,-2.3106,-2.3047,-2.2959,-2.2945,-2.2891,-2.2868,-2.3139,-2.3581,-2.4054,-2.422,-2.4369,-2.4503,-2.4438,-2.4356,-2.4039,-2.347,-2.3073,-2.2831,-2.218,-2.1825,-2.1798,-2.1825,-2.1825,-2.1798,-2.1798,-2.1798,-2.1783,-2.1714,-2.1666,-2.1624,-2.1401,-2.1238,-2.1222,-2.1222,-1.987,-1.7371,-1.6698,-1.5343,-1.2834,-1.2382,-1.2382,-1.2382,-1.2391,-1.2391,-1.2382,-1.2382,-1.2382,-1.2382,-1.2327,-1.2246,-1.2246,-1.2028,-1.1891,-1.1846,-1.1627,-1.1318,-1.1025,-1.0825,-1.0715,-1.0715,-1.0715,-1.0715,-1.0715,-1.0715,-1.0715,-1.0745,-1.085,-1.1005,-1.1086,-1.1545,-1.2055,-1.2317,-1.2574,-1.2817,-1.3087,-1.2852,-1.2544,-1.2275,-1.2083,-1.2037,-1.2028,-1.1891,-1.17,-1.037,-0.9044,-0.7658,-0.6001,-0.4589,-0.3782,-0.3642,-0.3589,-0.3589,-0.3589,-0.3589,-0.36,-0.3613,-0.3717,-0.3844,-3.2349,-3.2578,-3.2901,-3.2875,-3.26,-3.26,-3.2498,-3.2383,-3.2498,-3.1732,-3.033,-2.9264,-2.8002,-2.6621,-2.541,-2.4564,-2.4039,-2.3992,-2.3651,-2.3168,-2.3106,-2.3113,-2.3134,-2.3437,-2.3805,-2.4208,-2.4487,-2.4703,-2.4919,-2.5042,-2.4992,-2.469,-2.4198,-2.3724,-2.3371,-2.2748,-2.2334,-2.2207,-2.2191,-2.2175,-2.2191,-2.2175,-2.2175,-2.2159,-2.2048,-2.2064,-2.2143,-2.1941,-2.1677,-2.1428,-2.1285,-1.9747,-1.7054,-1.6619,-1.5423,-1.3088,-1.2484,-1.2503,-1.241,-1.2494,-1.2494,-1.2437,-1.2382,-1.2382,-1.2382,-1.2382,-1.2382,-1.2355,-1.2246,-1.2137,-1.211,-1.1891,-1.1646,-1.1482,-1.1099,-1.0825,-1.0743,-1.0715,-1.0715,-1.0715,-1.0715,-1.072,-1.0834,-1.094,-1.1159,-1.1249,-1.1825,-1.2376,-1.259,-1.287,-1.3156,-1.3181,-1.2804,-1.2599,-1.246,-1.2321,-1.2202,-1.2147,-1.2055,-1.1891,-1.12,-0.9924,-0.8596,-0.6306,-0.4616,-0.381,-0.3589,-0.3589,-0.3589,-0.3589,-0.3617,-0.3636,-0.3655,-0.3638,-0.3813,-3.1914,-3.2058,-3.2344,-3.2521,-3.2501,-3.2501,-3.2349,-3.2035,-3.2255,-3.1817,-3.0853,-3.0289,-2.9617,-2.869,-2.754,-2.6371,-2.5621,-2.5027,-2.427,-2.3355,-2.3106,-2.3107,-2.317,-2.3433,-2.3635,-2.3759,-2.4301,-2.4579,-2.4703,-2.4949,-2.5072,-2.5024,-2.4674,-2.4434,-2.3989,-2.3371,-2.2863,-2.2625,-2.2545,-2.2541,-2.2541,-2.2513,-2.2513,-2.2525,-2.2287,-2.2271,-2.2493,-2.2418,-2.2116,-2.1491,-2.1206,-1.9796,-1.7358,-1.6736,-1.5517,-1.2805,-1.2682,-1.2673,-1.2551,-1.2682,-1.272,-1.2532,-1.2513,-1.2447,-1.2503,-1.2503,-1.2475,-1.2466,-1.241,-1.2382,-1.2327,-1.2164,-1.2001,-1.1919,-1.14,-1.0989,-1.0743,-1.0715,-1.0715,-1.0724,-1.0704,-1.0769,-1.096,-1.1033,-1.122,-1.1495,-1.2048,-1.2485,-1.2746,-1.2981,-1.3217,-1.3144,-1.2935,-1.2767,-1.2711,-1.2497,-1.2367,-1.2247,-1.2191,-1.2055,-1.1728,-1.0562,-0.9237,-0.6972,-0.531,-0.4421,-0.3894,-0.4117,-0.3866,-0.3617,-0.3628,-0.365,-0.3743,-0.3831,-0.429,-3.2167,-3.2465,-3.2785,-3.2904,-3.2934,-3.2934,-3.2874,-3.2773,-3.2822,-3.2664,-3.2166,-3.1018,-3.0346,-2.9791,-2.7586,-2.6111,-2.5475,-2.4626,-2.3829,-2.3197,-2.3106,-2.3106,-2.3168,-2.3417,-2.3573,-2.3666,-2.4193,-2.4579,-2.4641,-2.4888,-2.5072,-2.5103,-2.4785,-2.4577,-2.437,-2.3737,-2.3359,-2.3216,-2.299,-2.2863,-2.2863,-2.2863,-2.2879,-2.2863,-2.2768,-2.2752,-2.2831,-2.2625,-2.2318,-2.1905,-2.1777,-2.0214,-1.7352,-1.7114,-1.594,-1.3489,-1.2965,-1.2994,-1.2946,-1.2975,-1.2984,-1.2946,-1.2852,-1.2899,-1.289,-1.2758,-1.2701,-1.2654,-1.2522,-1.2391,-1.2391,-1.2337,-1.2191,-1.1973,-1.1482,-1.1017,-1.0798,-1.0715,-1.0715,-1.0732,-1.0829,-1.0919,-1.1033,-1.1204,-1.1391,-1.161,-1.2111,-1.2675,-1.2859,-1.3228,-1.3524,-1.3485,-1.3332,-1.3116,-1.2899,-1.2693,-1.2515,-1.2384,-1.23,-1.2219,-1.1728,-1.0872,-0.9484,-0.7796,-0.6966,-0.6107,-0.5532,-0.5365,-0.47,-0.4309,-0.3899,-0.4055,-0.4189,-0.4329,-0.5015,-3.1959,-3.2663,-3.2874,-3.3095,-3.3377,-3.3377,-3.3236,-3.2985,-3.3055,-3.3216,-3.3045,-3.2078,-3.1391,-3.0975,-2.8995,-2.721,-2.5937,-2.5171,-2.4378,-2.3562,-2.3398,-2.3252,-2.3181,-2.3324,-2.3386,-2.3448,-2.3929,-2.4146,-2.427,-2.4641,-2.4857,-2.4903,-2.4852,-2.4738,-2.4561,-2.407,-2.3644,-2.347,-2.3184,-2.3022,-2.3022,-2.3022,-2.3006,-2.3022,-2.3022,-2.3022,-2.2974,-2.2815,-2.2545,-2.2271,-2.1956,-2.0524,-1.765,-1.7395,-1.613,-1.3403,-1.3174,-1.3193,-1.3126,-1.3164,-1.3183,-1.3117,-1.3098,-1.3051,-1.2965,-1.2852,-1.2795,-1.2748,-1.2532,-1.2484,-1.255,-1.2475,-1.2228,-1.1864,-1.1509,-1.1181,-1.0907,-1.0778,-1.0715,-1.072,-1.0785,-1.0932,-1.1037,-1.1265,-1.1523,-1.1781,-1.2196,-1.2629,-1.2925,-1.3384,-1.3685,-1.3589,-1.3438,-1.3164,-1.2899,-1.2692,-1.2542,-1.2419,-1.2355,-1.23,-1.1891,-1.12,-1.0206,-0.9099,-0.8459,-0.7852,-0.7188,-0.6695,-0.6495,-0.5973,-0.5087,-0.4644,-0.4923,-0.5421,-0.6083,-3.1653,-3.2744,-3.2744,-3.3174,-3.3799,-3.384,-3.3506,-3.2973,-3.3215,-3.3487,-3.3527,-3.3074,-3.2232,-3.2049,-3.0064,-2.8756,-2.6471,-2.5944,-2.5174,-2.4265,-2.3706,-2.3427,-2.3223,-2.3166,-2.3168,-2.3199,-2.3448,-2.3681,-2.3929,-2.4332,-2.4579,-2.4718,-2.4934,-2.4914,-2.4674,-2.4323,-2.3959,-2.3676,-2.3311,-2.3121,-2.3073,-2.307,-2.3022,-2.3022,-2.3022,-2.3022,-2.3022,-2.2974,-2.2831,-2.2589,-2.2255,-2.0709,-1.8269,-1.7783,-1.6292,-1.4151,-1.3558,-1.3373,-1.324,-1.3334,-1.3382,-1.325,-1.3202,-1.3089,-1.3022,-1.2975,-1.2937,-1.2937,-1.2635,-1.2635,-1.2673,-1.256,-1.2238,-1.1855,-1.1646,-1.1427,-1.1154,-1.0852,-1.0724,-1.0729,-1.0737,-1.0915,-1.1086,-1.1273,-1.1482,-1.1891,-1.2286,-1.2616,-1.2994,-1.3444,-1.3597,-1.3542,-1.3363,-1.3107,-1.2862,-1.2626,-1.2532,-1.2401,-1.2391,-1.2327,-1.2191,-1.1582,-1.0954,-1.0261,-1.0033,-0.9367,-0.8486,-0.8183,-0.8094,-0.7437,-0.644,-0.6139,-0.6139,-0.6861,-0.7538,-3.1928,-3.2995,-3.3025,-3.3517,-3.4191,-3.4251,-3.4035,-3.3636,-3.3946,-3.3935,-3.3624,-3.2564,-3.1965,-3.1652,-2.9361,-2.7258,-2.644,-2.5597,-2.463,-2.4172,-2.3749,-2.3588,-2.3427,-2.3252,-2.312,-2.3168,-2.3448,-2.3697,-2.3945,-2.4115,-2.4487,-2.4888,-2.4734,-2.4795,-2.4883,-2.4581,-2.4482,-2.4245,-2.3753,-2.3406,-2.3282,-2.3108,-2.2981,-2.2965,-2.2994,-2.2978,-2.3022,-2.3022,-2.2974,-2.2867,-2.2688,-2.1689,-1.9794,-1.8632,-1.7189,-1.5511,-1.4114,-1.3619,-1.3561,-1.357,-1.3608,-1.3532,-1.3524,-1.3542,-1.3495,-1.3306,-1.3249,-1.325,-1.3089,-1.2899,-1.2795,-1.2729,-1.2432,-1.2028,-1.1727,-1.1489,-1.1143,-1.0861,-1.0772,-1.0875,-1.0997,-1.1086,-1.107,-1.1473,-1.1735,-1.2005,-1.2311,-1.2646,-1.3054,-1.3474,-1.3517,-1.3501,-1.3391,-1.3173,-1.3051,-1.2795,-1.256,-1.2456,-1.2391,-1.2382,-1.2246,-1.2164,-1.1582,-1.1582,-1.1828,-1.0973,-0.9869,-0.9677,-0.9587,-0.8679,-0.7934,-0.7686,-0.7713,-0.8382,-0.8692,-3.1897,-3.2773,-3.2644,-3.3075,-3.3779,-3.4021,-3.3935,-3.3726,-3.3999,-3.4079,-3.376,-3.2836,-3.2114,-3.1296,-2.9081,-2.7552,-2.6405,-2.5342,-2.4661,-2.4349,-2.4148,-2.3928,-2.3588,-2.3427,-2.3281,-2.3181,-2.3261,-2.3479,-2.3635,-2.3821,-2.4038,-2.4394,-2.4363,-2.4548,-2.4779,-2.4557,-2.4458,-2.4468,-2.407,-2.3721,-2.3473,-2.32,-2.2808,-2.2686,-2.2711,-2.2824,-2.2824,-2.2796,-2.2881,-2.2965,-2.295,-2.2251,-2.0572,-1.9128,-1.7681,-1.6109,-1.457,-1.3773,-1.3684,-1.3693,-1.3684,-1.3693,-1.3693,-1.3627,-1.357,-1.3438,-1.34,-1.3373,-1.3212,-1.3013,-1.2833,-1.2909,-1.2655,-1.2238,-1.1898,-1.1663,-1.1459,-1.1053,-1.0797,-1.0951,-1.1049,-1.1171,-1.1326,-1.1613,-1.2026,-1.2324,-1.2427,-1.2754,-1.3084,-1.3444,-1.3483,-1.3459,-1.3417,-1.3325,-1.3221,-1.2994,-1.2663,-1.2503,-1.2391,-1.2382,-1.2327,-1.2327,-1.23,-1.2327,-1.2246,-1.2164,-1.1309,-1.12,-1.0973,-1.0581,-1.0006,-0.9422,-0.9154,-0.9457,-0.9622,-3.1896,-3.2471,-3.2186,-3.2505,-3.3206,-3.3629,-3.3615,-3.3397,-3.3806,-3.4016,-3.3768,-3.337,-3.2198,-3.1063,-2.9591,-2.8039,-2.6626,-2.5583,-2.488,-2.469,-2.4543,-2.4265,-2.3881,-2.3647,-2.3501,-2.3221,-2.3181,-2.3214,-2.3324,-2.3386,-2.3666,-2.3728,-2.3883,-2.4208,-2.4378,-2.4345,-2.4373,-2.4507,-2.4311,-2.4005,-2.3644,-2.3331,-2.291,-2.256,-2.24,-2.257,-2.2598,-2.257,-2.2626,-2.2909,-2.2937,-2.2256,-2.1031,-1.9292,-1.7915,-1.6374,-1.4798,-1.3803,-1.3693,-1.3693,-1.3693,-1.3693,-1.3693,-1.3647,-1.3524,-1.3505,-1.3466,-1.341,-1.3306,-1.3164,-1.2937,-1.3051,-1.2861,-1.2467,-1.2131,-1.2036,-1.1896,-1.132,-1.108,-1.0988,-1.1126,-1.124,-1.1446,-1.1682,-1.2154,-1.2564,-1.2659,-1.2805,-1.3144,-1.3324,-1.3324,-1.3444,-1.3452,-1.3409,-1.3296,-1.3145,-1.2814,-1.271,-1.2541,-1.2503,-1.2503,-1.2513,-1.2522,-1.2401,-1.2327,-1.2246,-1.2219,-1.1973,-1.1882,-1.2137,-1.1746,-1.0809,-1.0535,-1.0535,-1.0641,-3.2391,-3.2481,-3.2422,-3.2713,-3.3216,-3.3608,-3.3544,-3.3459,-3.3962,-3.4141,-3.3745,-3.2619,-3.1898,-3.0854,-2.94,-2.7878,-2.6476,-2.5509,-2.5056,-2.4924,-2.4763,-2.4485,-2.4309,-2.3928,-2.3749,-2.372,-2.3442,-2.3274,-2.3368,-2.3339,-2.3479,-2.3821,-2.3759,-2.3852,-2.4193,-2.4348,-2.447,-2.4638,-2.4552,-2.4325,-2.4007,-2.3586,-2.3142,-2.2658,-2.2371,-2.2343,-2.2428,-2.2343,-2.2343,-2.2626,-2.2683,-2.2639,-2.1943,-1.9927,-1.848,-1.7401,-1.5332,-1.3923,-1.3744,-1.3693,-1.3693,-1.3693,-1.3693,-1.3693,-1.3666,-1.3657,-1.3599,-1.3599,-1.36,-1.3505,-1.3306,-1.3335,-1.3076,-1.2716,-1.2509,-1.2402,-1.2197,-1.1782,-1.1412,-1.1298,-1.1339,-1.1383,-1.1552,-1.1803,-1.2209,-1.2594,-1.28,-1.2856,-1.3054,-1.3114,-1.3084,-1.3264,-1.3495,-1.3444,-1.34,-1.324,-1.3032,-1.2984,-1.2852,-1.2767,-1.2748,-1.2757,-1.2682,-1.2484,-1.2391,-1.2355,-1.2355,-1.2382,-1.2355,-1.2273,-1.211,-1.1955,-1.1781,-1.1587,-1.1869,-3.236,-3.2109,-3.1808,-3.1949,-3.2336,-3.2772,-3.2997,-3.3111,-3.363,-3.3796,-3.3481,-3.2885,-3.196,-3.0832,-2.9582,-2.7834,-2.6067,-2.5387,-2.5086,-2.5042,-2.4924,-2.4749,-2.4631,-2.4236,-2.4133,-2.4001,-2.3635,-2.3417,-2.356,-2.3273,-2.3339,-2.3417,-2.3386,-2.3573,-2.4007,-2.4224,-2.4518,-2.4702,-2.4821,-2.4674,-2.4293,-2.3803,-2.3187,-2.2464,-2.223,-2.2116,-2.2059,-2.2002,-2.2031,-2.2315,-2.2513,-2.2655,-2.2129,-2.1002,-1.9234,-1.8189,-1.6061,-1.4301,-1.3863,-1.3693,-1.3693,-1.3693,-1.3693,-1.3693,-1.3693,-1.3684,-1.3693,-1.3693,-1.3684,-1.3608,-1.3391,-1.3485,-1.337,-1.3083,-1.2882,-1.2754,-1.2595,-1.2171,-1.1874,-1.1662,-1.1528,-1.1564,-1.1659,-1.1941,-1.2307,-1.2611,-1.2859,-1.2937,-1.2955,-1.2994,-1.2964,-1.3204,-1.3435,-1.3539,-1.3485,-1.3353,-1.3231,-1.3193,-1.3145,-1.306,-1.2946,-1.289,-1.2682,-1.2456,-1.2401,-1.2447,-1.2391,-1.2418,-1.2391,-1.2447,-1.2422,-1.2432,-1.2571,-1.2691,-1.2776,-3.2219,-3.1643,-3.117,-3.1143,-3.1562,-3.2003,-3.2452,-3.2812,-3.3242,-3.3418,-3.3386,-3.3304,-3.2535,-3.1091,-2.9553,-2.7736,-2.542,-2.5297,-2.5086,-2.5086,-2.5071,-2.4924,-2.4763,-2.4617,-2.4499,-2.4382,-2.3928,-2.3662,-2.3532,-2.3252,-2.312,-2.3168,-2.3137,-2.3324,-2.3759,-2.4007,-2.4456,-2.4734,-2.5042,-2.4928,-2.4515,-2.381,-2.3061,-2.208,-2.2048,-2.1917,-2.1888,-2.1689,-2.1746,-2.2002,-2.223,-2.2428,-2.2299,-2.153,-2.03,-1.8771,-1.6827,-1.5184,-1.4072,-1.3693,-1.3693,-1.3693,-1.3693,-1.3693,-1.3693,-1.3693,-1.3693,-1.3693,-1.3684,-1.3646,-1.3523,-1.3599,-1.3589,-1.3445,-1.3221,-1.3072,-1.3038,-1.2791,-1.2454,-1.217,-1.1845,-1.1705,-1.1708,-1.197,-1.229,-1.2389,-1.2637,-1.2646,-1.2694,-1.2934,-1.3024,-1.3204,-1.3396,-1.3558,-1.3551,-1.3523,-1.341,-1.3353,-1.3325,-1.3258,-1.3136,-1.2965,-1.2795,-1.2645,-1.2532,-1.2578,-1.2494,-1.2494,-1.2569,-1.2682,-1.2785,-1.2833,-1.2861,-1.2928,-1.3003,-3.2277,-3.1354,-3.1286,-3.1348,-3.1562,-3.2012,-3.2452,-3.2851,-3.3262,-3.3386,-3.3197,-3.3272,-3.2901,-3.1627,-2.9456,-2.7718,-2.6391,-2.5457,-2.5086,-2.51,-2.5086,-2.5071,-2.4983,-2.4719,-2.4793,-2.4719,-2.4309,-2.3881,-2.3662,-2.3354,-2.3135,-2.3149,-2.3135,-2.3168,-2.3417,-2.3821,-2.4146,-2.4317,-2.4826,-2.4944,-2.4531,-2.3722,-2.3304,-2.2946,-2.2372,-2.1892,-2.1907,-2.1621,-2.1505,-2.1689,-2.1774,-2.1945,-2.2088,-2.2072,-2.1245,-1.9639,-1.7577,-1.5292,-1.4182,-1.3773,-1.3693,-1.3693,-1.3693,-1.3693,-1.3693,-1.3693,-1.3693,-1.3693,-1.3693,-1.3674,-1.3627,-1.3665,-1.3665,-1.3646,-1.3549,-1.3547,-1.3534,-1.3018,-1.2696,-1.2543,-1.2175,-1.1822,-1.1641,-1.1978,-1.2234,-1.2294,-1.2363,-1.2393,-1.2513,-1.2814,-1.3024,-1.3204,-1.3444,-1.3616,-1.3647,-1.3589,-1.3561,-1.3514,-1.3495,-1.3447,-1.3268,-1.3145,-1.3164,-1.3003,-1.288,-1.2785,-1.2786,-1.2814,-1.2871,-1.2918,-1.2994,-1.3032,-1.306,-1.3126,-1.3231,-3.2316,-3.1605,-3.169,-3.1781,-3.1944,-3.2344,-3.2754,-3.3125,-3.3308,-3.2924,-3.2301,-3.2205,-3.1327,-2.9655,-2.7441,-2.6318,-2.5698,-2.5297,-2.5086,-2.51,-2.51,-2.51,-2.5056,-2.4954,-2.4998,-2.491,-2.4661,-2.4382,-2.406,-2.3662,-2.3384,-2.3354,-2.3193,-2.323,-2.3293,-2.3635,-2.4022,-2.4425,-2.4826,-2.4898,-2.4547,-2.4029,-2.354,-2.329,-2.2559,-2.2162,-2.1843,-2.1684,-2.1437,-2.1535,-2.166,-2.1974,-2.2144,-2.2173,-2.1744,-2.0199,-1.8277,-1.6521,-1.5213,-1.4242,-1.3803,-1.3693,-1.3693,-1.3693,-1.3693,-1.3693,-1.3693,-1.3693,-1.3693,-1.3693,-1.3693,-1.3693,-1.3693,-1.3693,-1.3712,-1.3788,-1.3697,-1.3162,-1.2775,-1.2647,-1.25,-1.2113,-1.1815,-1.2001,-1.2172,-1.21,-1.2251,-1.2401,-1.2552,-1.2814,-1.3024,-1.3174,-1.3444,-1.3684,-1.3674,-1.3655,-1.3646,-1.3618,-1.3618,-1.3542,-1.3401,-1.3306,-1.3325,-1.3259,-1.3079,-1.3041,-1.3089,-1.3013,-1.2937,-1.3022,-1.3164,-1.324,-1.3287,-1.3391,-1.3476,-3.2457,-3.1828,-3.2006,-3.2206,-3.2374,-3.2656,-3.3027,-3.3367,-3.3386,-3.2619,-3.1483,-3.0904,-2.9411,-2.7485,-2.6337,-2.5767,-2.5153,-2.51,-2.51,-2.51,-2.51,-2.51,-2.5086,-2.5071,-2.5071,-2.5086,-2.4866,-2.4705,-2.4543,-2.4159,-2.3793,-2.3603,-2.3252,-2.3228,-2.3417,-2.3604,-2.3914,-2.4548,-2.4808,-2.4865,-2.4658,-2.4166,-2.3746,-2.3343,-2.285,-2.2358,-2.1891,-2.1715,-2.1525,-2.1391,-2.1546,-2.1803,-2.1974,-2.2144,-2.2044,-2.0716,-1.9118,-1.7606,-1.6227,-1.5065,-1.3983,-1.3693,-1.3693,-1.3693,-1.3693,-1.3693,-1.3693,-1.3693,-1.3693,-1.3693,-1.3693,-1.3693,-1.3693,-1.3712,-1.375,-1.3863,-1.3866,-1.3405,-1.314,-1.3128,-1.286,-1.2337,-1.2112,-1.215,-1.2126,-1.1922,-1.2056,-1.2337,-1.2561,-1.2763,-1.2964,-1.3114,-1.3453,-1.3673,-1.3693,-1.3693,-1.3693,-1.3693,-1.3693,-1.3646,-1.3524,-1.3477,-1.3496,-1.3392,-1.3259,-1.3306,-1.3363,-1.3145,-1.2984,-1.323,-1.3419,-1.3438,-1.3504,-1.3627,-1.3674,-3.2731,-3.1828,-3.2241,-3.2525,-3.2746,-3.2773,-3.3027,-3.3418,-3.3355,-3.2428,-3.0789,-2.9835,-2.8328,-2.7219,-2.6586,-2.5981,-2.5119,-2.5086,-2.51,-2.51,-2.51,-2.51,-2.51,-2.51,-2.51,-2.51,-2.4998,-2.4998,-2.4954,-2.4587,-2.4101,-2.3647,-2.3354,-2.321,-2.3261,-2.3479,-2.3807,-2.4317,-2.4482,-2.468,-2.4504,-2.4065,-2.3618,-2.3649,-2.3089,-2.2445,-2.2095,-2.1818,-2.1554,-2.1233,-2.1375,-2.1546,-2.1803,-2.2031,-2.193,-2.1517,-1.971,-1.8364,-1.7331,-1.5322,-1.3953,-1.3693,-1.3693,-1.3693,-1.3693,-1.3693,-1.3693,-1.3693,-1.3693,-1.3693,-1.3693,-1.3693,-1.3693,-1.3712,-1.3778,-1.3929,-1.3941,-1.3778,-1.3549,-1.3555,-1.3185,-1.2575,-1.2304,-1.2312,-1.2149,-1.1967,-1.1929,-1.2211,-1.2362,-1.2548,-1.2823,-1.3054,-1.3442,-1.3652,-1.3663,-1.3682,-1.366,-1.3691,-1.3693,-1.3693,-1.3646,-1.3657,-1.3619,-1.3581,-1.3486,-1.3532,-1.357,-1.3391,-1.3343,-1.3572,-1.3685,-1.3599,-1.3618,-1.3712,-1.3712,-3.3197,-3.2917,-3.2786,-3.2734,-3.2778,-3.323,-3.3525,-3.3536,-3.2778,-3.095,-2.8756,-2.7303,-2.6401,-2.6014,-2.588,-2.5644,-2.5119,-2.5086,-2.51,-2.51,-2.51,-2.51,-2.51,-2.51,-2.51,-2.51,-2.51,-2.51,-2.5042,-2.4793,-2.4397,-2.3925,-2.3559,-2.3296,-2.3319,-2.3402,-2.3669,-2.3703,-2.3886,-2.4021,-2.3741,-2.3386,-2.3039,-2.3125,-2.2733,-2.2169,-2.1862,-2.1759,-2.1525,-2.1334,-2.139,-2.1518,-2.166,-2.1831,-2.2031,-2.2088,-2.0098,-1.89,-1.7781,-1.5558,-1.3803,-1.3693,-1.3693,-1.3693,-1.3693,-1.3693,-1.3693,-1.3693,-1.3693,-1.3693,-1.3693,-1.3693,-1.3693,-1.3712,-1.3807,-1.3958,-1.3967,-1.3843,-1.3752,-1.3708,-1.3244,-1.2647,-1.2509,-1.2448,-1.2214,-1.202,-1.1989,-1.2043,-1.2275,-1.2452,-1.2717,-1.2968,-1.3329,-1.3504,-1.3555,-1.3565,-1.3614,-1.3678,-1.3703,-1.3693,-1.3693,-1.3684,-1.3685,-1.3646,-1.3636,-1.3636,-1.3627,-1.3608,-1.3627,-1.3704,-1.3714,-1.3674,-1.3721,-1.3797,-1.3807,-3.3399,-3.3359,-3.2989,-3.291,-3.3094,-3.3597,-3.3598,-3.3214,-3.2746,-3.066,-2.7684,-2.6334,-2.5423,-2.5221,-2.5119,-2.5119,-2.5086,-2.51,-2.51,-2.51,-2.51,-2.51,-2.51,-2.51,-2.51,-2.51,-2.51,-2.51,-2.5086,-2.4851,-2.4499,-2.4162,-2.3884,-2.3545,-2.3241,-2.3371,-2.3484,-2.3366,-2.3324,-2.3459,-2.3275,-2.2786,-2.261,-2.2661,-2.2348,-2.2023,-2.1803,-2.1686,-2.1525,-2.1378,-2.139,-2.159,-2.1675,-2.1732,-2.186,-2.1417,-2.0572,-1.9174,-1.791,-1.5658,-1.3833,-1.3693,-1.3693,-1.3693,-1.3693,-1.3693,-1.3693,-1.3693,-1.3693,-1.3693,-1.3693,-1.3693,-1.3693,-1.3703,-1.3825,-1.3946,-1.3995,-1.3929,-1.3875,-1.3811,-1.3288,-1.2922,-1.2736,-1.2635,-1.2442,-1.2247,-1.2182,-1.2237,-1.2436,-1.2595,-1.2728,-1.2961,-1.3172,-1.3303,-1.3402,-1.3512,-1.3634,-1.3772,-1.3797,-1.3703,-1.3693,-1.3693,-1.3693,-1.3674,-1.3674,-1.3684,-1.3674,-1.3646,-1.3665,-1.3684,-1.3703,-1.374,-1.3835,-1.391,-1.3958,-3.3255,-3.2889,-3.2782,-3.3123,-3.3699,-3.379,-3.3206,-3.2467,-3.2873,-3.1579,-2.869,-2.7286,-2.61,-2.5288,-2.51,-2.51,-2.51,-2.51,-2.51,-2.51,-2.51,-2.51,-2.51,-2.51,-2.51,-2.51,-2.51,-2.51,-2.51,-2.5027,-2.4675,-2.428,-2.3969,-2.3662,-2.3195,-2.3417,-2.3558,-2.3515,-2.3203,-2.3217,-2.3065,-2.2459,-2.2269,-2.2288,-2.2126,-2.1802,-2.1657,-2.1598,-2.1452,-2.1291,-2.1275,-2.1403,-2.159,-2.1618,-2.1774,-2.186,-2.0658,-1.9868,-1.9406,-1.5836,-1.4282,-1.3923,-1.3983,-1.3693,-1.3693,-1.3693,-1.3693,-1.3693,-1.3693,-1.3693,-1.3693,-1.3693,-1.3693,-1.3721,-1.3835,-1.3918,-1.3967,-1.4082,-1.402,-1.3929,-1.3637,-1.3291,-1.3058,-1.283,-1.2669,-1.2523,-1.2385,-1.2455,-1.258,-1.2693,-1.275,-1.2869,-1.3051,-1.3314,-1.3447,-1.3525,-1.3643,-1.3805,-1.3882,-1.3788,-1.3712,-1.3693,-1.3693,-1.3693,-1.3693,-1.3693,-1.3693,-1.3693,-1.374,-1.3797,-1.3788,-1.3825,-1.3929,-1.4052,-1.4128,-3.4084,-3.3655,-3.3318,-3.3479,-3.3959,-3.4,-3.378,-3.3206,-3.1643,-2.9672,-2.7833,-2.6368,-2.5611,-2.5153,-2.51,-2.51,-2.51,-2.51,-2.51,-2.51,-2.51,-2.51,-2.51,-2.51,-2.51,-2.51,-2.51,-2.51,-2.51,-2.51,-2.4866,-2.4485,-2.3925,-2.353,-2.3223,-2.3216,-2.3188,-2.2908,-2.266,-2.2453,-2.2334,-2.1844,-2.1608,-2.1758,-2.1626,-2.1495,-2.1408,-2.1408,-2.1335,-2.1218,-2.1203,-2.1289,-2.139,-2.1403,-2.1518,-2.1689,-2.0902,-2.0314,-1.9145,-1.6709,-1.5105,-1.4748,-1.4162,-1.3753,-1.3693,-1.3693,-1.3693,-1.3693,-1.3693,-1.3693,-1.3693,-1.3693,-1.3693,-1.3693,-1.3778,-1.3873,-1.3953,-1.4129,-1.42,-1.4066,-1.3808,-1.3349,-1.3004,-1.2881,-1.2751,-1.2661,-1.2564,-1.2507,-1.2635,-1.267,-1.2735,-1.2786,-1.2946,-1.3262,-1.3496,-1.3586,-1.3799,-1.4007,-1.3986,-1.3873,-1.3807,-1.3778,-1.3731,-1.375,-1.3721,-1.3693,-1.3721,-1.3759,-1.3863,-1.392,-1.3996,-1.4062,-1.4156,-1.4248,-1.4352,-3.4088,-3.3635,-3.3065,-3.322,-3.3713,-3.3893,-3.4024,-3.3583,-3.0743,-2.8657,-2.7717,-2.6468,-2.551,-2.5255,-2.51,-2.51,-2.51,-2.51,-2.51,-2.51,-2.51,-2.51,-2.51,-2.51,-2.51,-2.51,-2.51,-2.51,-2.51,-2.51,-2.4807,-2.4324,-2.3779,-2.3369,-2.3149,-2.3076,-2.3032,-2.28,-2.2553,-2.22,-2.1921,-2.154,-2.1247,-2.1276,-2.1261,-2.1218,-2.1218,-2.1203,-2.1203,-2.1203,-2.1203,-2.1218,-2.1218,-2.1247,-2.1332,-2.1375,-2.1261,-2.0744,-1.9679,-1.85,-1.7091,-1.622,-1.4729,-1.3813,-1.3693,-1.3693,-1.3693,-1.3693,-1.3693,-1.3693,-1.3693,-1.3693,-1.3693,-1.3693,-1.3721,-1.3816,-1.3882,-1.4069,-1.412,-1.3998,-1.3852,-1.3387,-1.2955,-1.289,-1.2767,-1.2734,-1.2702,-1.2686,-1.2645,-1.2692,-1.2761,-1.2771,-1.2917,-1.3232,-1.3503,-1.3692,-1.3915,-1.4157,-1.4137,-1.4012,-1.4003,-1.4024,-1.391,-1.3816,-1.3835,-1.3844,-1.3797,-1.3835,-1.4024,-1.4213,-1.4342,-1.438,-1.443,-1.4455,-1.455,-3.333,-3.2822,-3.2134,-3.2389,-3.3084,-3.3496,-3.3699,-3.3517,-3.0531,-2.9149,-2.8887,-2.7319,-2.6066,-2.5221,-2.51,-2.51,-2.51,-2.51,-2.51,-2.51,-2.51,-2.51,-2.51,-2.51,-2.51,-2.51,-2.51,-2.51,-2.51,-2.51,-2.4763,-2.4192,-2.3662,-2.3325,-2.3193,-2.3164,-2.312,-2.2915,-2.255,-2.2257,-2.2038,-2.1584,-2.132,-2.1247,-2.1203,-2.1203,-2.1203,-2.1203,-2.1203,-2.1203,-2.1203,-2.1218,-2.1204,-2.1204,-2.1233,-2.1233,-2.1262,-2.122,-2.0888,-1.9816,-1.8597,-1.7174,-1.5278,-1.4231,-1.3693,-1.3693,-1.3693,-1.3693,-1.3693,-1.3693,-1.3693,-1.3693,-1.3693,-1.3693,-1.3693,-1.3731,-1.375,-1.3829,-1.388,-1.3811,-1.3696,-1.336,-1.2931,-1.2799,-1.2799,-1.2783,-1.2759,-1.275,-1.2718,-1.2734,-1.2792,-1.28,-1.2947,-1.3209,-1.347,-1.374,-1.3979,-1.4218,-1.4311,-1.4257,-1.4257,-1.4201,-1.4118,-1.4043,-1.4024,-1.4005,-1.3977,-1.409,-1.4279,-1.4427,-1.4559,-1.4634,-1.4616,-1.4606,-1.4682,-3.3241,-3.2599,-3.2369,-3.2461,-3.2772,-3.3437,-3.3105,-3.1803,-3.0162,-2.9018,-2.77,-2.6301,-2.5663,-2.5119,-2.51,-2.51,-2.51,-2.51,-2.51,-2.51,-2.51,-2.51,-2.51,-2.51,-2.51,-2.51,-2.51,-2.5086,-2.5086,-2.5086,-2.4734,-2.4148,-2.3793,-2.3501,-2.331,-2.3325,-2.3252,-2.3091,-2.271,-2.2418,-2.2184,-2.1745,-2.1467,-2.1276,-2.1203,-2.1203,-2.1203,-2.1203,-2.1203,-2.1203,-2.1203,-2.1276,-2.1554,-2.1554,-2.1554,-2.1584,-2.1715,-2.1818,-2.1467,-2.0708,-1.9468,-1.8033,-1.6381,-1.4983,-1.4219,-1.3721,-1.3721,-1.3703,-1.3693,-1.3693,-1.3693,-1.3693,-1.3693,-1.3693,-1.3693,-1.3703,-1.3701,-1.3623,-1.3674,-1.3618,-1.3459,-1.3239,-1.2873,-1.2799,-1.2799,-1.2799,-1.2799,-1.2799,-1.2799,-1.2799,-1.2799,-1.2807,-1.2931,-1.3161,-1.3523,-1.3846,-1.4041,-1.4231,-1.4381,-1.4455,-1.438,-1.4345,-1.4298,-1.4241,-1.4203,-1.4185,-1.4185,-1.4317,-1.4427,-1.455,-1.4682,-1.4766,-1.4832,-1.4795,-1.4776,-3.2811,-3.2274,-3.1977,-3.1917,-3.2224,-3.3286,-3.2799,-3.1227,-3.0502,-2.966,-2.8624,-2.6645,-2.571,-2.5797,-2.5423,-2.51,-2.51,-2.51,-2.51,-2.51,-2.51,-2.51,-2.51,-2.51,-2.51,-2.51,-2.51,-2.51,-2.5071,-2.4895,-2.4587,-2.4148,-2.3998,-2.3603,-2.3296,-2.3252,-2.3354,-2.3208,-2.2974,-2.2593,-2.2257,-2.1906,-2.1554,-2.135,-2.1276,-2.1262,-2.1233,-2.1247,-2.1218,-2.1218,-2.1203,-2.1364,-2.1672,-2.1789,-2.1993,-2.2023,-2.2052,-2.214,-2.1991,-2.1642,-2.0083,-1.8568,-1.7522,-1.6121,-1.4738,-1.392,-1.3807,-1.3721,-1.3703,-1.3693,-1.3693,-1.3693,-1.3693,-1.3693,-1.3693,-1.3693,-1.359,-1.3504,-1.3409,-1.3358,-1.3195,-1.3019,-1.2857,-1.2824,-1.2799,-1.2799,-1.2799,-1.2799,-1.2799,-1.2799,-1.2799,-1.2799,-1.2939,-1.3128,-1.349,-1.3785,-1.4009,-1.4239,-1.4586,-1.4621,-1.4531,-1.4544,-1.4531,-1.4468,-1.4355,-1.4345,-1.4295,-1.4436,-1.4578,-1.4682,-1.4757,-1.4832,-1.487,-1.487,-1.4861,-3.2225,-3.19,-3.1221,-3.118,-3.1532,-3.3065,-3.2787,-3.1275,-3.1414,-3.1254,-3.0424,-2.7817,-2.6588,-2.6506,-2.5712,-2.5119,-2.51,-2.51,-2.51,-2.51,-2.51,-2.51,-2.51,-2.51,-2.51,-2.51,-2.51,-2.5086,-2.5012,-2.488,-2.4631,-2.4148,-2.3884,-2.3559,-2.331,-2.3369,-2.3471,-2.3471,-2.3369,-2.3135,-2.2565,-2.2052,-2.1686,-2.1525,-2.1467,-2.1423,-2.1364,-2.1306,-2.1262,-2.1233,-2.135,-2.1511,-2.1979,-2.2315,-2.2564,-2.2535,-2.2535,-2.2476,-2.252,-2.2335,-2.0744,-1.9402,-1.8431,-1.6783,-1.5246,-1.4192,-1.3977,-1.3882,-1.3873,-1.3816,-1.3807,-1.3807,-1.3807,-1.3807,-1.3807,-1.3807,-1.3765,-1.3496,-1.3124,-1.3058,-1.2922,-1.2767,-1.2841,-1.2799,-1.2799,-1.2799,-1.2799,-1.2799,-1.2799,-1.2799,-1.2799,-1.2799,-1.2865,-1.303,-1.3227,-1.3555,-1.3884,-1.4193,-1.4544,-1.4688,-1.4535,-1.466,-1.4814,-1.4691,-1.4581,-1.4455,-1.4446,-1.4597,-1.4691,-1.471,-1.4795,-1.487,-1.4898,-1.4898,-1.4898,-3.1593,-3.1554,-3.1103,-3.1199,-3.1783,-3.2854,-3.3095,-3.2633,-3.3008,-3.1999,-2.9922,-2.7834,-2.6736,-2.6855,-2.5712,-2.51,-2.51,-2.51,-2.51,-2.51,-2.51,-2.51,-2.51,-2.51,-2.51,-2.51,-2.51,-2.51,-2.5056,-2.4954,-2.4793,-2.447,-2.4148,-2.3808,-2.3515,-2.3632,-2.3749,-2.3749,-2.3943,-2.3779,-2.3325,-2.3179,-2.3003,-2.2696,-2.255,-2.2228,-2.2096,-2.1935,-2.1628,-2.1379,-2.1759,-2.233,-2.3091,-2.3398,-2.334,-2.3106,-2.3062,-2.293,-2.2828,-2.2657,-2.1352,-1.9699,-1.836,-1.6769,-1.5491,-1.4673,-1.4203,-1.4128,-1.4043,-1.3977,-1.3929,-1.3939,-1.3939,-1.3939,-1.392,-1.392,-1.3889,-1.3395,-1.2903,-1.2735,-1.2586,-1.2653,-1.275,-1.2807,-1.2799,-1.2799,-1.2799,-1.2799,-1.2799,-1.2799,-1.2799,-1.2799,-1.2799,-1.2898,-1.3062,-1.3301,-1.3663,-1.3884,-1.417,-1.4366,-1.4539,-1.4651,-1.4763,-1.4828,-1.4785,-1.4672,-1.4644,-1.4766,-1.4832,-1.4804,-1.4814,-1.4889,-1.4898,-1.4898,-1.4898,-3.1377,-3.1445,-3.1074,-3.117,-3.1687,-3.2575,-3.3025,-3.3166,-3.3425,-3.2488,-3.0506,-2.85,-2.7344,-2.6988,-2.5678,-2.51,-2.51,-2.51,-2.51,-2.51,-2.51,-2.51,-2.51,-2.51,-2.51,-2.51,-2.51,-2.51,-2.51,-2.5056,-2.491,-2.4631,-2.4368,-2.4177,-2.3881,-2.3998,-2.4086,-2.4071,-2.4456,-2.4426,-2.4075,-2.3779,-2.3267,-2.2988,-2.2842,-2.2667,-2.2637,-2.2476,-2.2403,-2.2257,-2.2608,-2.2769,-2.3296,-2.353,-2.3588,-2.3413,-2.331,-2.3296,-2.3089,-2.2676,-2.1801,-2.0036,-1.8871,-1.7517,-1.5389,-1.4568,-1.444,-1.4345,-1.4222,-1.4147,-1.4137,-1.4137,-1.4137,-1.4137,-1.3981,-1.3854,-1.36,-1.3198,-1.2838,-1.2633,-1.2604,-1.2727,-1.2783,-1.2831,-1.284,-1.2913,-1.2896,-1.2807,-1.2799,-1.2799,-1.2799,-1.2799,-1.2799,-1.2799,-1.2898,-1.3137,-1.3433,-1.3663,-1.3827,-1.4146,-1.4366,-1.4539,-1.4693,-1.4758,-1.4856,-1.487,-1.488,-1.4898,-1.4898,-1.487,-1.487,-1.4898,-1.4898,-1.4898,-1.4898,-3.1309,-3.1348,-3.1035,-3.1054,-3.1434,-3.2366,-3.2865,-3.2995,-3.3129,-3.2431,-3.1034,-2.927,-2.8128,-2.6925,-2.5745,-2.5356,-2.51,-2.51,-2.51,-2.51,-2.51,-2.51,-2.51,-2.51,-2.51,-2.51,-2.51,-2.51,-2.51,-2.5071,-2.4968,-2.4705,-2.4558,-2.4456,-2.4265,-2.4206,-2.4247,-2.4441,-2.4675,-2.4836,-2.447,-2.3998,-2.3501,-2.3106,-2.287,-2.2871,-2.2915,-2.3003,-2.3193,-2.3164,-2.3223,-2.3369,-2.3471,-2.3676,-2.3632,-2.3545,-2.3384,-2.3369,-2.3325,-2.3116,-2.1673,-2.0189,-1.9468,-1.8035,-1.5949,-1.502,-1.4881,-1.4648,-1.4525,-1.443,-1.443,-1.4449,-1.4449,-1.4386,-1.4192,-1.3852,-1.347,-1.3118,-1.2902,-1.2686,-1.2702,-1.2816,-1.2881,-1.2888,-1.2921,-1.3027,-1.2994,-1.2864,-1.2799,-1.2799,-1.2799,-1.2799,-1.2799,-1.2799,-1.2807,-1.2972,-1.3235,-1.3334,-1.3531,-1.3916,-1.4235,-1.4399,-1.4572,-1.4735,-1.48,-1.4833,-1.4866,-1.4898,-1.4898,-1.4833,-1.4898,-1.4898,-1.4898,-1.4898,-1.4898,-3.0996,-3.0996,-3.0918,-3.1054,-3.1463,-3.2575,-3.2884,-3.2555,-3.2456,-3.1312,-2.9729,-2.9297,-2.8361,-2.702,-2.5712,-2.5119,-2.51,-2.51,-2.51,-2.51,-2.51,-2.51,-2.51,-2.51,-2.51,-2.51,-2.51,-2.51,-2.51,-2.5086,-2.5071,-2.4968,-2.469,-2.4602,-2.4558,-2.4529,-2.4558,-2.4705,-2.4851,-2.5012,-2.5027,-2.4734,-2.4617,-2.4456,-2.4485,-2.406,-2.3764,-2.3796,-2.353,-2.3384,-2.3427,-2.3662,-2.3735,-2.3779,-2.372,-2.3545,-2.3384,-2.3413,-2.3354,-2.3325,-2.2015,-2.1227,-2.0331,-1.897,-1.7222,-1.596,-1.5719,-1.53,-1.5144,-1.4969,-1.4917,-1.4946,-1.4964,-1.4913,-1.4758,-1.4157,-1.3639,-1.3411,-1.321,-1.3029,-1.2929,-1.3027,-1.3108,-1.3108,-1.3068,-1.3092,-1.3019,-1.2896,-1.2815,-1.2807,-1.2815,-1.2807,-1.2807,-1.2799,-1.2799,-1.2799,-1.2972,-1.3071,-1.3235,-1.3588,-1.3916,-1.4277,-1.4441,-1.4473,-1.467,-1.4768,-1.48,-1.467,-1.4768,-1.4702,-1.4833,-1.4898,-1.4866,-1.4898,-1.4898]},{"header":{"parameterUnit":"m.s-1","parameterCategory":1,"la1":31.0,"la2":29.5877,"lo1":-88.7671,"lo2":-86.6584,"dy":0.0162,"dx":0.0185,"nx":115,"ny":88,"refTime":"2023-04-20T06:00:00:Z","depth":0,"parameterNumber":3,"parameterNumberName":"V-component_of_WINDS"},"data":[0.0,0.0,0.0,0.0,0.0,0.0,0.0,0.0,0.0,0.0,0.0,0.0,0.0,0.0,0.0,0.0,0.0,0.0,0.0,0.0,0.0,0.0,0.0,0.0,0.0,0.0,0.0,0.0,0.0,0.0,0.0,0.0,0.0,0.0,0.0,0.0,0.0,0.0,0.0,0.0,0.0,0.0,0.0,0.0,0.0,0.0,0.0,0.0,0.0,0.0,0.0,0.0,0.0,0.0,0.0,0.0,0.0,0.0,0.0,0.0,0.0,0.0,0.0,0.0,0.0,0.0,0.0,0.0,0.0,0.0,0.0,0.0,0.0,0.0,0.0,0.0,0.0,0.0,0.0,0.0,0.0,0.0,0.0,0.0,0.0,0.0,0.0,0.0,0.0,0.0,0.0,0.0,0.0,0.0,0.0,0.0,0.0,0.0,0.0,0.0,0.0,0.0,0.0,0.0,0.0,0.0,0.0,0.0,0.0,0.0,0.0,0.0,0.0,0.0,0.0,0.0,0.0,0.0,0.0,0.0,0.0,0.0,0.0,0.0,0.0,0.0,0.0,0.0,0.0,0.0,0.0,0.0,0.0,0.0,0.0,0.0,0.0,0.0,0.0,0.0,0.0,0.0,0.0,0.0,0.0,0.0,0.0,0.0,0.0,0.0,0.0,0.0,0.0,0.0,0.0,0.0,0.0,0.0,0.0,0.0,0.0,0.0,0.0,0.0,0.0,0.0,0.0,0.0,0.0,0.0,0.0,0.0,0.0,0.0,0.0,0.0,0.0,0.0,0.0,0.0,0.0,0.0,0.0,0.0,0.0,0.0,0.0,0.0,0.0,0.0,0.0,0.0,0.0,0.0,0.0,0.0,0.0,0.0,0.0,0.0,0.0,0.0,0.0,0.0,0.0,0.0,0.0,0.0,0.0,0.0,0.0,0.0,0.0,0.0,0.0,0.0,0.0,0.0,0.0,0.0,0.0,0.0,0.0,0.0,0.0,0.0,0.0,0.0,0.0,0.0,0.0,0.0,0.0,0.0,0.0,0.0,0.0,0.0,0.0,0.0,0.0,0.0,0.0,0.0,0.0,0.0,0.0,0.0,0.0,0.0,0.0,0.0,0.0,0.0,0.0,0.0,0.0,0.0,0.0,0.0,0.0,0.0,0.0,0.0,0.0,0.0,0.0,0.0,0.0,0.0,0.0,0.0,0.0,0.0,0.0,0.0,0.0,0.0,0.0,0.0,0.0,0.0,0.0,0.0,0.0,0.0,0.0,0.0,0.0,0.0,0.0,0.0,0.0,0.0,0.0,0.0,0.0,0.0,0.0,0.0,0.0,0.0,0.0,0.0,0.0,0.0,0.0,0.0,0.0,0.0,0.0,0.0,0.0,0.0,0.0,0.0,0.0,0.0,0.0,0.0,0.0,0.0,0.0,0.0,0.0,0.0,0.0,0.0,0.0,0.0,0.0,0.0,0.0,0.0,0.0,0.0,0.0,0.0,0.0,0.0,0.0,0.0,0.0,0.0,0.0,0.0,0.0,0.0,0.0,0.0,0.0,0.0,0.0,0.0,0.0,0.0,0.0,0.0,0.0,0.0,0.0,0.0,0.0,0.0,0.0,0.0,0.0,0.0,0.0,0.0,0.0,0.0,0.0,0.0,0.0,0.0,0.0,0.0,0.0,0.0,0.0,0.0,0.0,0.0,0.0,0.0,0.0,0.0,0.0,0.0,0.0,0.0,0.0,0.0,0.0,0.0,0.0,0.0,0.0,0.0,0.0,0.0,0.0,0.0,0.0,0.0,0.0,0.0,0.0,0.0,0.0,0.0,0.0,0.0,0.0,0.0,0.0,0.0,0.0,0.0,0.0,0.0,0.0,0.0,0.0,0.0,0.0,0.0,0.0,0.0,0.0,0.0,0.0,0.0,0.0,0.0,0.0,0.0,0.0,0.0,0.0,0.0,0.0,0.0,0.0,0.0,0.0,0.0,0.0,0.0,0.0,0.0,0.0,0.0,0.0,0.0,0.0,0.0,0.0,0.0,0.0,0.0,0.0,0.0,0.0,0.0,0.0,0.0,0.0,0.0,0.0,0.0,0.0,0.0,0.0,0.0,0.0,0.0,0.0,0.0,0.0,0.0,0.0,0.0,0.0,0.0,0.0,0.0,0.0,0.0,0.0,0.0,0.0,0.0,0.0,0.0,0.0,0.0,0.0,0.0,0.0,0.0,0.0,0.0,0.0,0.0,0.0,0.0,0.0,0.0,0.0,0.0,0.0,0.0,0.0,0.0,0.0,0.0,0.0,0.0,0.0,0.0,0.0,0.0,0.0,0.0,0.0,0.0,0.0,0.0,0.0,0.0,0.0,0.0,0.0,0.0,0.0,0.0,0.0,0.0,0.0,0.0,0.0,0.0,0.0,0.0,0.0,0.0,0.0,0.0,0.0,0.0,0.0,0.0,0.0,0.0,0.0,0.0,0.0,0.0,0.0,0.0,0.0,0.0,0.0,0.0,0.0,0.0,0.0,0.0,0.0,0.0,0.0,0.0,0.0,0.0,0.0,0.0,0.0,0.0,0.0,0.0,0.0,0.0,0.0,0.0,0.0,0.0,0.0,0.0,0.0,0.0,0.0,0.0,0.0,0.0,0.0,0.0,0.0,0.0,0.0,0.0,0.0,0.0,0.0,0.0,0.0,0.0,0.0,0.0,0.0,0.0,0.0,0.0,0.0,0.0,0.0,0.0,0.0,0.0,0.0,0.0,0.0,0.0,0.0,0.0,0.0,0.0,0.0,0.0,0.0,0.0,0.0,0.0,0.0,0.0,0.0,0.0,0.0,0.0,0.0,0.0,0.0,0.0,0.0,0.0,0.0,0.0,0.0,0.0,0.0,0.0,0.0,0.0,0.0,0.0,0.0,0.0,0.0,0.0,0.0,0.0,0.0,0.0,0.0,0.0,0.0,0.0,0.0,0.0,0.0,0.0,0.0,0.0,0.0,0.0,0.0,0.0,0.0,0.0,0.0,0.0,0.0,0.0,0.0,0.0,0.0,0.0,0.0,0.0,0.0,0.0,0.0,0.0,0.0,0.0,0.0,0.0,0.0,0.0,0.0,0.0,0.0,0.0,0.0,0.0,0.0,0.0,0.0,0.0,0.0,0.0,0.0,0.0,0.0,0.0,0.0,0.0,0.0,0.0,0.0,0.0,0.0,0.0,0.0,0.0,0.0,0.0,0.0,0.0,0.0,0.0,0.0,0.0,0.0,0.0,0.0,0.0,0.0,0.0,0.0,0.0,0.0,0.0,0.0,0.0,0.0,0.0,0.0,0.0,0.0,0.0,0.0,0.0,0.0,0.0,0.0,0.0,0.0,0.0,0.0,0.0,0.0,0.0,0.0,0.0,0.0,0.0,0.0,0.0,0.0,0.0,0.0,0.0,0.0,0.0,0.0,0.0,0.0,0.0,0.0,0.0,0.0,0.0,0.0,0.0,0.0,0.0,0.0,0.0,0.0,0.0,0.0,0.0,0.0,0.0,0.0,0.0,0.0,0.0,0.0,0.0,0.0,0.0,0.0,0.0,0.0,0.0,0.0,0.0,0.0,0.0,0.0,0.0,0.0,0.0,0.0,0.0,0.0,0.0,0.0,0.0,0.0,0.0,0.0,0.0,0.0,0.0,0.0,0.0,0.0,0.0,0.0,0.0,0.0,0.0,0.0,0.0,0.0,0.0,0.0,0.0,0.0,0.0,0.0,0.0,0.0,0.0,0.0,0.0,0.0,0.0,0.0,0.0,0.0,0.0,0.0,0.0,0.0,0.0,0.0,0.0,0.0,0.0,0.0,0.0,0.0,0.0,0.0,0.0,0.0,0.0,0.0,0.0,0.0,0.0,0.0,0.0,0.0,0.0,0.0,0.0,0.0,0.0,0.0,0.0,0.0,0.0,0.0,0.0,0.0,0.0,0.0,0.0,0.0,0.0,0.0,0.0,0.0,0.0,0.0,0.0,0.0,0.0,0.0,0.0,0.0,0.0,0.0,0.0,0.0,0.0,0.0,0.0,0.0,0.0,0.0,0.0,0.0,0.0,0.0,0.0,0.0,0.0,0.0,0.0,0.0,0.0,0.0,0.0,0.0,0.0,0.0,0.0,0.0,0.0,0.0,0.0,0.0,0.0,0.0,0.0,0.0,0.0,0.0,0.0,0.0,0.0,0.0,0.0,0.0,0.0,0.0,0.0,0.0,0.0,0.0,0.0,0.0,0.0,0.0,0.0,0.0,0.0,0.0,0.0,0.8698,0.0,0.0,0.0,0.0,0.0,0.0,0.0,0.0,0.0,0.0,0.0,0.0,0.0,0.0,0.0,0.0,0.0,0.0,0.0,0.0,0.0,0.0,0.0,0.0,0.0,0.0,0.0,0.0,0.0,0.0,0.0,0.0,0.0,0.0,0.0,0.0,0.0,0.0,0.0,0.0,0.0,0.0,0.0,0.0,0.0,0.0,0.0,0.0,0.0,0.0,0.0,0.0,0.0,0.0,0.0,0.0,0.0,0.0,0.0,0.0,0.0,0.0,0.0,0.0,0.0,0.0,0.0,0.0,0.0,0.0,0.0,0.0,0.0,0.0,0.0,0.0,0.0,0.0,0.0,0.0,0.0,0.0,0.0,0.0,0.0,0.0,0.0,0.0,0.0,0.0,0.0,0.0,0.0,0.0,0.0,0.0,0.0,0.0,0.0,0.0,0.0,0.0,0.0,0.0,0.0,0.0,0.0,0.0,0.0,0.0,0.7869,0.7541,0.7996,0.8477,0.8901,0.0,0.0,0.0,0.0,0.0,0.0,0.0,0.0,0.0,0.0,0.0,0.0,0.0,0.0,0.0,0.0,0.0,0.0,0.0,0.0,0.0,0.0,0.0,0.0,0.0,0.0,0.0,0.0,0.0,0.0,0.0,0.0,0.0,0.0,0.0,0.0,0.0,0.0,0.0,0.0,0.0,0.0,0.0,0.0,0.0,0.0,0.0,0.0,0.0,0.0,0.0,0.0,0.0,0.0,0.0,0.0,0.0,0.0,0.0,0.0,0.0,0.0,0.0,0.0,0.0,0.0,0.0,0.0,0.0,0.0,0.0,0.0,0.0,0.0,0.0,0.0,0.0,0.0,0.0,0.0,0.0,0.0,0.0,0.0,0.0,0.0,0.0,0.0,0.0,0.0,0.0,0.0,0.0,0.0,0.0,0.0,0.0,0.0,0.0,0.0,0.0,0.0,0.0,0.0,0.0,0.0,0.0,0.0,0.0,0.0,0.0,0.0,0.8837,0.9197,0.9218,0.0,0.0,0.0,0.0,0.0,0.0,0.0,0.0,0.0,0.0,0.0,0.0,0.0,0.0,0.0,0.0,0.0,0.0,0.0,0.0,0.0,0.0,0.0,0.0,0.0,0.0,0.0,0.0,0.0,0.0,0.0,0.0,0.0,0.0,0.0,0.0,0.0,0.0,0.0,0.0,0.0,0.0,0.0,0.0,0.0,0.0,0.0,0.0,0.0,0.0,0.0,0.0,0.0,0.0,0.0,0.0,0.0,0.0,0.0,0.0,0.0,0.0,0.0,0.0,0.0,0.0,0.0,0.0,0.0,0.0,0.0,0.0,0.0,0.0,0.0,0.0,0.0,0.0,0.0,0.0,0.0,0.0,0.0,0.0,0.0,0.0,0.0,0.0,0.0,0.0,0.0,0.0,0.0,0.0,0.0,0.0,0.0,0.0,0.0,0.0,0.0,0.0,0.0,0.0,0.0,0.0,0.0,0.0,0.0,0.0,0.9802,0.9869,1.0003,0.0,1.0096,0.0,0.0,0.0,0.0,0.0,0.0,0.0,0.0,0.0,0.0,0.0,0.0,0.0,0.0,0.0,0.0,0.0,0.0,0.0,0.0,0.0,0.0,0.0,0.0,0.0,0.0,0.0,0.0,0.0,0.0,0.0,0.0,0.0,0.0,0.0,0.0,0.0,0.0,0.0,0.0,0.0,0.0,0.0,0.0,0.0,0.0,0.0,0.0,0.0,0.0,0.0,0.0,0.0,0.0,0.0,0.0,0.0,0.0,0.0,0.0,0.0,0.0,0.0,0.0,0.0,0.0,0.0,0.0,0.0,0.0,0.0,0.0,0.0,0.0,0.0,0.0,0.0,0.0,0.0,0.0,0.0,0.0,0.0,0.0,0.0,0.0,0.0,0.0,0.0,0.0,0.0,0.0,0.0,0.0,0.0,0.0,0.0,0.0,0.0,0.0,0.0,0.0,0.0,0.0,0.0,0.0,0.0,0.0,0.0,0.0,0.9995,1.0149,1.0179,1.0194,0.0,0.0,0.0,0.0,0.0,0.0,0.0,0.0,0.0,0.0,0.0,0.0,0.0,0.0,0.0,0.0,0.0,0.0,0.0,0.0,0.0,0.0,0.0,0.0,0.0,0.0,0.0,0.0,0.0,0.0,0.0,0.0,0.0,0.0,0.0,0.0,0.0,0.0,0.0,0.0,0.0,0.0,0.0,0.0,0.0,0.0,0.0,0.0,0.0,0.0,0.0,0.0,0.0,0.0,0.0,0.0,0.0,0.0,0.0,0.0,0.0,0.0,0.0,0.0,0.0,0.0,0.0,0.0,0.0,0.0,0.0,0.0,0.0,0.0,0.0,0.0,0.0,0.0,0.0,0.0,0.0,0.0,0.0,0.0,0.0,0.0,0.0,0.0,0.0,0.0,0.0,0.0,0.0,0.0,0.0,0.0,0.0,0.0,0.0,0.0,0.0,0.0,0.0,0.0,0.0,0.0,0.0,0.0,0.0,0.0,0.9926,0.9998,1.0202,1.0234,1.0297,1.0537,0.0,0.0,0.0,0.0,0.0,0.0,0.0,0.0,0.0,0.0,0.0,0.0,0.0,0.0,0.0,0.0,0.0,0.0,0.0,0.0,0.0,0.0,0.0,0.0,0.0,0.0,0.0,0.0,0.0,0.0,0.0,0.0,0.0,0.0,0.0,0.0,0.0,0.0,0.0,0.0,0.0,0.0,0.0,0.0,0.0,0.0,0.0,0.0,0.0,0.0,0.0,0.0,0.0,0.0,0.0,0.0,0.0,0.0,0.0,0.0,0.0,0.0,0.0,0.0,0.0,0.0,0.0,0.0,0.0,0.0,0.0,0.0,0.0,0.0,0.0,0.0,0.0,0.0,0.0,0.0,0.0,0.0,0.0,0.0,0.0,0.0,0.0,0.0,0.0,0.0,0.0,0.0,0.0,0.0,0.0,0.0,0.0,0.0,0.0,0.0,0.0,0.0,0.0,0.0,0.0,0.0,0.0,0.0,1.0095,0.996,1.0029,1.0263,1.0233,1.0603,0.0,0.0,0.0,0.0,0.0,0.0,0.0,0.0,0.0,0.0,0.0,0.0,0.0,0.0,0.0,0.0,0.0,0.0,0.0,0.0,0.0,0.0,0.0,0.0,0.0,0.0,0.0,0.0,0.0,0.0,0.0,0.0,0.0,0.0,0.0,0.0,0.0,0.0,0.0,0.0,0.0,0.0,0.0,0.0,0.0,0.0,0.0,0.0,0.0,0.0,0.0,0.0,0.0,0.0,0.0,0.0,0.0,0.0,0.0,0.0,0.0,0.0,0.0,0.0,0.0,0.0,0.0,0.0,0.0,0.0,0.0,0.0,0.0,0.0,0.0,0.0,0.0,0.0,0.0,0.0,0.0,0.0,0.0,0.0,0.0,0.0,0.0,0.0,0.0,0.0,0.0,0.0,0.0,0.0,0.0,0.0,0.0,0.0,0.0,0.0,0.0,0.0,0.0,0.0,0.0,0.0,0.0,0.0,0.0,1.0077,1.0141,1.0197,1.027,1.0272,1.0647,0.0,0.0,0.0,0.0,0.0,0.0,0.0,0.0,0.0,0.0,0.0,0.0,0.0,0.0,0.0,0.0,0.0,0.0,0.0,0.0,0.0,0.0,0.0,0.0,0.0,0.0,0.0,0.0,0.0,0.0,0.0,0.0,0.0,0.0,0.0,0.0,0.0,0.0,0.0,0.0,0.0,0.0,0.0,0.0,0.0,0.0,0.0,0.0,0.0,0.0,0.0,0.0,0.0,0.0,0.0,0.0,0.0,0.0,0.0,0.0,0.0,0.0,0.0,0.0,0.0,0.0,0.0,0.0,0.0,0.0,0.0,0.0,0.0,0.0,0.0,0.0,0.0,0.0,0.0,0.0,0.0,0.0,0.0,0.0,0.0,0.0,0.0,0.0,0.0,0.0,0.0,0.0,0.0,0.0,0.0,0.0,0.0,0.0,0.0,0.0,0.0,0.0,0.0,0.0,0.0,0.0,0.0,0.0,0.0,1.0481,0.0,1.1092,1.1132,1.1129,1.1505,0.0,0.0,0.0,0.0,0.0,0.0,0.0,0.0,0.0,0.0,0.0,0.0,0.0,0.0,0.0,0.0,0.0,0.0,0.0,0.0,0.0,0.0,0.0,0.0,0.0,0.0,0.0,0.0,0.0,0.0,0.0,0.0,0.0,0.0,0.0,0.0,0.0,0.0,0.0,0.0,0.0,0.0,0.0,0.0,0.0,0.0,0.0,0.0,0.0,0.0,0.0,0.0,0.0,0.0,0.0,0.0,0.0,0.0,0.0,0.0,0.0,0.0,0.0,0.0,0.0,0.0,0.0,0.0,0.0,0.0,0.0,0.0,0.0,0.0,0.0,0.0,0.0,0.0,0.0,0.0,0.0,0.0,0.0,0.0,0.0,0.0,0.0,0.0,0.0,0.0,0.0,0.0,0.0,0.0,0.0,0.0,0.0,0.0,0.0,0.0,0.0,0.0,0.0,0.0,0.0,0.0,0.0,0.0,1.0506,1.1312,1.2303,1.2773,1.2812,1.2764,1.3177,0.0,0.0,0.0,0.0,0.0,0.0,0.0,0.0,0.0,0.0,0.0,0.0,0.0,0.0,0.0,0.0,0.0,0.0,0.0,0.0,0.0,0.0,0.0,0.0,0.0,0.0,0.0,0.0,0.0,0.0,0.0,0.0,0.0,0.0,0.0,0.0,0.0,0.0,0.0,0.0,0.0,0.0,0.0,0.0,0.0,0.0,0.0,0.0,0.0,0.0,0.0,0.0,0.0,0.0,0.0,0.0,0.0,0.0,0.0,0.0,0.0,0.0,0.0,0.0,0.0,0.0,0.0,0.0,0.0,0.0,0.0,0.0,0.0,0.0,0.0,0.0,0.0,0.0,0.0,0.0,0.0,0.0,0.0,0.0,0.0,0.0,0.0,0.0,0.0,0.0,0.0,0.0,0.0,0.0,0.0,0.0,0.0,0.0,0.0,0.0,0.0,0.0,0.0,0.0,0.0,0.0,0.0,0.0,0.0,1.3167,1.3493,1.3652,1.3645,1.3682,1.3827,0.0,0.0,0.0,0.0,0.0,0.0,0.0,0.0,0.0,0.0,0.0,0.0,0.0,0.0,0.0,0.0,0.0,0.0,0.0,0.0,0.0,0.0,0.0,0.0,0.0,0.0,0.0,0.0,0.0,0.0,0.0,0.0,0.0,0.0,0.0,0.0,0.0,0.0,0.0,0.0,0.0,0.0,0.0,0.0,0.0,0.0,0.0,0.0,0.0,0.0,0.0,0.0,0.0,0.0,0.0,0.0,0.0,0.0,0.0,0.0,0.0,0.0,0.0,0.0,0.0,0.0,0.0,0.0,0.0,0.0,0.0,0.0,0.0,0.0,0.0,0.0,0.0,0.0,0.0,0.0,0.0,0.0,0.0,0.0,0.0,0.0,0.0,0.0,0.0,0.0,0.0,0.0,0.0,0.0,0.0,0.0,0.0,0.0,0.0,0.0,0.0,0.0,0.0,0.0,0.0,0.0,0.0,0.0,0.0,1.6676,1.6198,1.5931,1.5928,1.5933,1.5618,1.4979,0.0,0.0,0.0,0.0,0.0,0.0,0.0,0.0,0.0,0.0,0.0,0.0,0.0,0.0,0.0,0.0,0.0,0.0,0.0,0.0,0.0,0.0,0.0,0.0,0.0,0.0,0.0,0.0,0.0,0.0,0.0,0.0,0.0,0.0,0.0,0.0,0.0,0.0,0.0,0.0,0.0,0.0,0.0,0.0,0.0,0.0,0.0,0.0,0.0,0.0,0.0,0.0,0.0,0.0,0.0,0.0,0.0,0.0,0.0,0.0,0.0,0.0,0.0,0.0,0.0,0.0,0.0,0.0,0.0,0.0,0.0,0.0,0.0,0.0,0.0,0.0,0.0,0.0,0.0,0.0,0.0,0.0,0.0,0.0,0.0,0.0,0.0,0.0,0.0,0.0,0.0,0.0,0.0,0.0,0.0,0.0,0.0,0.0,0.0,0.0,0.0,0.0,0.0,0.0,0.0,0.0,0.0,0.0,2.1338,2.0083,1.9369,1.9275,1.9234,1.8424,0.0,0.0,0.0,0.0,0.0,0.0,0.0,0.0,0.0,0.0,0.0,0.0,0.0,0.0,0.0,0.0,0.0,0.0,0.0,0.0,0.0,0.0,0.0,0.0,0.0,0.0,0.0,0.0,0.0,0.0,0.0,0.0,0.0,0.0,0.0,0.0,0.0,0.0,0.0,0.0,0.0,0.0,0.0,0.0,0.0,0.0,0.0,0.0,0.0,0.0,0.0,0.0,0.0,0.0,0.0,0.0,0.0,0.0,0.0,0.0,0.0,0.0,0.0,0.0,0.0,0.0,0.0,0.0,0.0,0.0,0.0,0.0,0.0,0.0,0.0,0.0,0.0,0.0,0.0,0.0,0.0,0.0,0.0,0.0,0.0,0.0,0.0,0.0,0.0,0.0,0.0,0.0,0.0,0.0,0.0,0.0,0.0,0.0,0.0,0.0,0.0,0.0,0.0,0.0,0.0,0.0,0.0,0.0,0.0,2.2215,2.3687,2.3598,2.1825,2.1188,2.0089,0.0,0.0,0.0,0.0,0.0,0.0,0.0,0.0,0.0,0.0,0.0,0.0,0.0,0.0,0.0,0.0,0.0,0.0,0.0,0.0,0.0,0.0,0.0,0.0,0.0,0.0,0.0,0.0,0.0,0.0,0.0,0.0,0.0,0.0,0.0,0.0,0.0,0.0,0.0,0.0,0.0,0.0,0.0,0.0,0.0,0.0,0.0,0.0,0.0,0.0,0.0,0.0,0.0,0.0,0.0,0.0,0.0,0.0,0.0,0.0,0.0,0.0,0.0,0.0,0.0,0.0,0.0,0.0,0.0,0.0,0.0,0.0,0.0,0.0,0.0,0.0,0.0,0.0,0.0,0.0,0.0,0.0,0.0,0.0,0.0,0.0,0.0,0.0,0.0,0.0,0.0,0.0,0.0,0.0,0.0,0.0,0.0,0.0,0.0,0.0,0.0,0.0,0.0,0.0,0.0,0.0,0.0,0.0,2.1974,2.4074,2.6275,2.6737,2.5344,2.385,2.2119,0.0,0.0,0.0,0.0,0.0,0.0,0.0,0.0,0.0,0.0,0.0,0.0,0.0,0.0,0.0,0.0,0.0,0.0,0.0,0.0,0.0,0.0,0.0,0.0,0.0,0.0,0.0,0.0,0.0,0.0,0.0,0.0,0.0,0.0,0.0,0.0,0.0,0.0,0.0,0.0,0.0,0.0,0.0,0.0,0.0,0.0,0.0,0.0,0.0,0.0,0.0,0.0,0.0,0.0,0.0,0.0,0.0,0.0,0.0,0.0,0.0,0.0,0.0,0.0,0.0,0.0,0.0,0.0,0.0,0.0,0.0,0.0,0.0,0.0,0.0,0.0,0.0,0.0,0.0,0.0,0.0,0.0,0.0,0.0,0.0,0.0,0.0,0.0,0.0,0.0,0.0,0.0,0.0,0.0,0.0,0.0,0.0,0.0,0.0,0.0,0.0,0.0,0.0,0.0,0.0,0.0,0.0,0.0,2.3719,2.6305,2.8037,2.8959,2.8953,2.6714,2.4307,0.0,0.0,0.0,0.0,0.0,0.0,0.0,0.0,0.0,0.0,0.0,0.0,0.0,0.0,0.0,0.0,0.0,0.0,0.0,0.0,0.0,0.0,0.0,0.0,0.0,0.0,0.0,0.0,0.0,0.0,0.0,0.0,0.0,0.0,0.0,0.0,0.0,0.0,0.0,0.0,0.0,0.0,0.0,0.0,0.0,0.0,0.0,0.0,0.0,0.0,0.0,0.0,0.0,0.0,0.0,0.0,0.0,0.0,0.0,0.0,0.0,0.0,0.0,0.0,0.0,0.0,0.0,0.0,0.0,0.0,0.0,0.0,0.0,0.0,0.0,0.0,0.0,0.0,0.0,0.0,0.0,0.0,0.0,0.0,0.0,0.0,0.0,0.0,0.0,0.0,0.0,0.0,0.0,0.0,0.0,0.0,0.0,0.0,0.0,0.0,0.0,0.0,0.0,0.0,0.0,0.0,0.0,0.0,2.4678,2.7245,2.8952,2.9864,2.9907,2.8151,2.6303,0.0,0.0,0.0,0.0,0.0,0.0,0.0,0.0,0.0,0.0,0.0,0.0,0.0,0.0,0.0,0.0,0.0,0.0,0.0,0.0,0.0,0.0,0.0,0.0,0.0,0.0,0.0,0.0,0.0,0.0,0.0,0.0,0.0,0.0,0.0,0.0,0.0,0.0,0.0,0.0,0.0,0.0,0.0,0.0,0.0,0.0,0.0,0.0,1.2567,0.0,0.0,0.0,0.0,0.0,0.0,0.0,0.0,0.0,0.0,0.0,0.0,0.0,0.0,0.0,0.0,0.0,0.0,0.0,0.0,0.0,0.0,0.0,0.0,0.0,0.0,0.0,0.0,0.0,0.0,0.0,0.0,0.0,0.0,0.0,0.0,0.0,0.0,0.0,0.0,0.0,0.0,0.0,0.0,0.0,0.0,0.0,0.0,0.0,0.0,0.0,0.0,0.0,0.0,0.0,0.0,0.0,0.0,0.0,2.6287,2.9238,3.0609,3.1329,3.1331,2.9777,2.7923,0.0,0.0,0.0,0.0,0.0,0.0,0.0,0.0,0.0,0.0,0.0,0.0,0.0,0.0,0.0,0.0,0.0,0.0,0.0,0.0,0.0,0.0,0.0,0.0,0.0,0.0,0.0,0.0,0.0,0.0,0.0,0.0,0.0,0.0,0.0,0.0,0.0,0.0,0.0,0.0,0.0,0.0,0.0,0.0,0.0,0.0,0.0,0.0,0.0,0.0,0.0,0.0,0.0,0.0,0.0,0.0,0.0,0.0,0.0,0.0,0.0,0.0,0.0,0.0,0.0,0.0,0.0,0.0,0.0,0.0,0.0,0.0,0.0,0.0,0.0,0.0,0.0,0.0,0.0,0.0,0.0,0.0,0.0,0.0,0.0,0.0,0.0,0.0,0.0,0.0,0.0,0.0,0.0,0.0,0.0,0.0,0.0,0.0,0.0,0.0,0.0,0.0,0.0,0.0,0.0,0.0,0.0,2.5097,2.7987,3.1366,3.221,3.2622,3.2661,3.1131,2.9168,2.6768,0.0,0.0,0.0,0.0,0.0,0.0,0.0,0.0,0.0,0.0,0.0,0.0,0.0,0.0,0.0,0.0,0.0,0.0,0.0,0.0,0.0,0.0,0.0,0.0,0.0,0.0,0.0,0.0,0.0,0.0,0.0,0.0,0.0,0.0,0.0,0.0,0.0,0.0,1.3125,1.5178,0.0,0.0,0.0,0.0,0.0,0.0,0.0,0.0,1.5913,0.0,0.0,0.0,0.0,0.0,0.0,0.0,0.0,0.0,0.0,0.0,0.0,0.0,0.0,0.0,0.0,0.0,0.0,0.0,0.0,0.0,0.0,0.0,0.0,0.0,0.0,0.0,0.0,0.0,0.0,0.0,0.0,0.0,0.0,0.0,0.0,0.0,0.0,0.0,0.0,0.0,0.0,0.0,0.0,0.0,0.0,0.0,0.0,0.0,0.0,0.0,0.0,0.0,0.0,0.0,0.0,2.4423,2.6238,2.8905,3.2276,3.2541,3.2615,3.2661,3.1169,2.9449,2.7623,0.0,0.0,0.0,0.0,0.0,0.0,0.0,0.0,0.0,0.0,0.0,0.0,0.0,0.0,0.0,0.0,0.0,0.0,0.0,0.0,0.0,0.0,0.0,0.0,0.0,0.0,0.0,0.0,0.0,0.0,0.0,0.0,0.0,0.0,0.0,0.0,0.0,0.0,0.0,1.626,1.6985,0.0,0.0,0.0,0.0,0.0,0.0,0.0,0.0,1.8455,0.0,0.0,0.0,0.0,0.0,0.0,0.0,0.0,0.0,0.0,0.0,0.0,0.0,0.0,0.0,0.0,0.0,0.0,0.0,0.0,0.0,0.0,0.0,0.0,0.0,0.0,0.0,0.0,0.0,0.0,0.0,0.0,0.0,0.0,0.0,0.0,0.0,0.0,0.0,0.0,0.0,0.0,0.0,0.0,0.0,0.0,0.0,0.0,0.0,0.0,0.0,0.0,0.0,0.0,0.0,2.5401,2.7634,3.0412,3.376,3.3912,3.3763,3.3352,3.1371,2.9506,0.0,0.0,0.0,0.0,0.0,0.0,0.0,0.0,0.0,0.0,0.0,0.0,0.0,0.0,0.0,0.0,0.0,0.0,0.0,0.0,0.0,0.0,0.0,0.0,0.0,0.0,0.0,0.0,0.0,0.0,0.0,0.0,0.0,0.0,0.0,0.0,0.0,0.0,0.0,0.0,1.7596,1.8427,1.9984,0.0,0.0,0.0,0.0,0.0,0.0,2.0417,2.036,0.0,0.0,0.0,0.0,0.0,0.0,0.0,0.0,0.0,0.0,0.0,0.0,0.0,0.0,0.0,0.0,0.0,0.0,0.0,0.0,0.0,0.0,0.0,0.0,0.0,0.0,0.0,0.0,0.0,0.0,0.0,0.0,0.0,0.0,0.0,0.0,0.0,0.0,0.0,0.0,0.0,0.0,0.0,0.0,0.0,0.0,0.0,0.0,0.0,0.0,0.0,0.0,0.0,0.0,0.0,2.6257,2.8892,3.1792,3.494,3.517,3.4797,3.401,3.1607,2.9444,0.0,0.0,0.0,0.0,0.0,0.0,0.0,0.0,0.0,0.0,0.0,0.0,0.0,0.0,0.0,0.0,0.0,0.0,0.0,0.0,0.0,0.0,0.0,0.0,0.0,0.0,0.0,0.0,0.0,0.0,0.0,0.0,0.0,0.0,0.0,0.0,0.0,0.0,0.0,0.0,0.0,1.9969,2.1519,2.115,0.0,0.0,0.0,0.0,2.2068,2.2535,0.0,0.0,0.0,0.0,0.0,0.0,0.0,0.0,0.0,0.0,0.0,0.0,0.0,0.0,0.0,0.0,0.0,0.0,0.0,0.0,0.0,0.0,0.0,0.0,0.0,0.0,0.0,0.0,0.0,0.0,0.0,0.0,0.0,0.0,0.0,0.0,0.0,0.0,0.0,0.0,0.0,0.0,0.0,0.0,0.0,0.0,0.0,0.0,0.0,0.0,0.0,0.0,0.0,0.0,0.0,0.0,2.7075,2.9675,3.2314,3.4936,3.5097,3.4759,3.401,3.1607,2.9187,0.0,0.0,0.0,0.0,0.0,0.0,0.0,0.0,0.0,0.0,0.0,0.0,0.0,0.0,0.0,0.0,0.0,0.0,0.0,0.0,0.0,0.0,0.0,0.0,0.0,0.0,0.0,0.0,0.0,0.0,0.0,0.0,0.0,0.0,0.0,0.0,0.0,0.0,0.0,0.0,0.0,2.0847,2.2409,2.2594,2.2258,0.0,0.0,2.3922,2.4825,2.6284,0.0,0.0,0.0,0.0,0.0,0.0,0.0,0.0,0.0,0.0,0.0,0.0,0.0,0.0,0.0,0.0,0.0,0.0,0.0,0.0,0.0,0.0,0.0,0.0,0.0,0.0,0.0,0.0,0.0,0.0,0.0,0.0,0.0,0.0,0.0,0.0,0.0,0.0,0.0,0.0,0.0,0.0,0.0,0.0,0.0,0.0,0.0,0.0,0.0,0.0,0.0,0.0,0.0,0.0,0.0,2.4075,2.7329,3.0314,3.2635,3.4289,3.4395,3.3827,3.255,3.0628,2.8678,0.0,0.0,0.0,0.0,0.0,0.0,0.0,0.0,0.0,0.0,0.0,0.0,0.0,0.0,0.0,0.0,0.0,0.0,0.0,0.0,0.0,0.0,0.0,0.0,0.0,0.0,0.0,0.0,0.0,0.0,0.0,0.0,0.0,0.0,0.0,0.0,0.0,0.0,0.0,0.0,0.0,0.0,2.3361,2.4452,0.0,0.0,0.0,2.655,2.6908,0.0,0.0,0.0,0.0,0.0,0.0,0.0,0.0,0.0,0.0,0.0,0.0,0.0,0.0,0.0,0.0,0.0,0.0,0.0,0.0,0.0,0.0,0.0,0.0,0.0,0.0,0.0,0.0,0.0,0.0,0.0,0.0,0.0,0.0,0.0,0.0,0.0,0.0,0.0,0.0,0.0,0.0,0.0,0.0,0.0,0.0,0.0,0.0,0.0,0.0,0.0,0.0,0.0,0.0,0.0,0.0,0.0,2.7697,3.0806,3.2969,3.4065,3.4183,3.3428,3.1748,3.0404,0.0,0.0,0.0,0.0,0.0,0.0,0.0,0.0,0.0,0.0,0.0,0.0,0.0,0.0,0.0,0.0,0.0,0.0,0.0,0.0,0.0,0.0,0.0,0.0,0.0,0.0,0.0,1.3595,0.0,0.0,0.0,0.0,0.0,0.0,0.0,0.0,0.0,0.0,0.0,0.0,0.0,0.0,2.2983,2.465,2.6548,2.7897,0.0,0.0,2.949,2.9491,3.0469,3.039,0.0,0.0,0.0,0.0,0.0,0.0,0.0,0.0,0.0,0.0,0.0,0.0,0.0,0.0,0.0,0.0,0.0,0.0,0.0,0.0,0.0,0.0,0.0,0.0,0.0,0.0,0.0,0.0,0.0,0.0,0.0,0.0,0.0,0.0,0.0,0.0,0.0,0.0,0.0,0.0,0.0,0.0,0.0,0.0,0.0,0.0,0.0,0.0,0.0,0.0,0.0,0.0,0.0,0.0,0.0,2.8457,3.1134,3.3295,3.494,3.506,3.4339,3.2661,3.1844,2.9906,0.0,0.0,0.0,0.0,0.0,0.0,0.0,0.0,0.0,0.0,0.0,0.0,0.0,0.0,0.0,0.0,0.0,0.0,0.0,0.0,0.0,0.0,0.0,0.0,0.0,0.0,0.0,0.0,0.0,0.0,0.0,0.0,0.0,0.0,0.0,0.0,0.0,0.0,0.0,0.0,0.0,2.487,2.6556,2.8944,3.082,0.0,0.0,3.3037,3.3037,3.4433,3.4197,3.0114,0.0,0.0,0.0,0.0,0.0,0.0,0.0,0.0,0.0,0.0,0.0,0.0,0.0,0.0,0.0,0.0,0.0,0.0,0.0,0.0,0.0,0.0,0.0,0.0,0.0,0.0,0.0,0.0,0.0,0.0,0.0,0.0,0.0,0.0,0.0,0.0,0.0,0.0,0.0,0.0,0.0,0.0,0.0,0.0,0.0,0.0,0.0,0.0,0.0,0.0,0.0,0.0,0.0,2.5759,2.8632,3.116,3.3045,3.4213,3.3836,3.3072,3.1973,3.0739,2.9219,0.0,0.0,0.0,0.0,0.0,0.0,0.0,0.0,0.0,0.0,0.0,0.0,0.0,0.0,0.0,0.0,0.0,0.0,0.0,0.0,0.0,0.0,0.0,0.0,0.0,0.0,0.0,0.0,1.9151,1.9755,1.9967,0.0,0.0,0.0,0.0,0.0,0.0,0.0,0.0,0.0,0.0,2.6795,2.9023,3.1091,0.0,0.0,3.3656,3.4008,3.3489,3.3964,3.3467,3.078,2.9882,0.0,0.0,0.0,0.0,0.0,0.0,0.0,0.0,0.0,0.0,0.0,0.0,0.0,0.0,0.0,0.0,0.0,0.0,0.0,0.0,0.0,0.0,0.0,0.0,0.0,0.0,0.0,0.0,0.0,0.0,0.0,0.0,0.0,0.0,0.0,0.0,0.0,0.0,0.0,0.0,0.0,0.0,0.0,0.0,0.0,0.0,0.0,0.0,0.0,0.0,0.0,0.0,2.6223,2.9027,3.105,3.2627,3.3794,3.2998,3.2237,3.1522,3.0429,2.932,0.0,0.0,0.0,0.0,0.0,0.0,0.0,0.0,0.0,0.0,0.0,0.0,0.0,0.0,0.0,0.0,0.0,0.0,0.0,0.0,0.0,0.0,0.0,0.0,0.0,0.0,0.0,0.0,2.097,2.1384,2.0572,0.0,0.0,0.0,0.0,0.0,0.0,0.0,0.0,0.0,0.0,2.8984,3.1246,3.2842,3.3965,3.4459,3.5092,3.5172,3.4298,3.4198,3.3589,3.1835,0.0,0.0,0.0,0.0,0.0,0.0,0.0,0.0,0.0,0.0,0.0,0.0,0.0,0.0,0.0,0.0,0.0,0.0,0.0,0.0,0.0,0.0,0.0,0.0,0.0,0.0,0.0,0.0,0.0,0.0,1.7361,0.0,0.0,0.0,0.0,0.0,0.0,0.0,0.0,0.0,0.0,0.0,0.0,0.0,0.0,0.0,0.0,0.0,0.0,0.0,0.0,0.0,0.0,2.6522,2.9809,3.0881,3.2159,3.376,3.3006,3.2245,3.156,3.1513,3.0733,2.9151,0.0,0.0,0.0,0.0,0.0,0.0,0.0,0.0,0.0,0.0,0.0,0.0,0.0,0.0,0.0,0.0,0.0,0.0,0.0,0.0,0.0,0.0,0.0,0.0,0.0,0.0,1.9244,2.076,2.1506,0.0,0.0,0.0,0.0,0.0,0.0,0.0,0.0,0.0,0.0,2.8594,3.1364,3.3118,3.4126,3.5249,3.6917,3.7149,3.6916,3.6019,3.591,3.5345,0.0,0.0,0.0,0.0,0.0,0.0,0.0,0.0,0.0,0.0,0.0,0.0,0.0,0.0,0.0,0.0,0.0,0.0,0.0,0.0,0.0,0.0,0.0,0.0,0.0,0.0,0.0,1.863,1.8935,0.0,0.0,0.0,0.0,0.0,0.0,0.0,0.0,0.0,0.0,0.0,2.894,2.8956,0.0,0.0,0.0,0.0,0.0,0.0,0.0,0.0,0.0,0.0,0.0,0.0,2.6611,2.9809,3.1341,3.2919,3.456,3.3303,3.2504,3.2317,3.1862,3.1117,3.0072,0.0,0.0,0.0,0.0,0.0,0.0,0.0,0.0,0.0,0.0,0.0,0.0,0.0,0.0,0.0,0.0,0.0,0.0,0.0,0.0,0.0,0.0,0.0,0.0,0.0,2.1609,0.0,0.0,0.0,0.0,0.0,0.0,0.0,0.0,0.0,0.0,0.0,2.7653,2.9687,3.0427,3.1869,3.475,3.537,3.599,0.0,0.0,0.0,0.0,0.0,0.0,0.0,0.0,0.0,0.0,0.0,0.0,0.0,0.0,3.3151,3.0201,3.0076,3.0495,3.0443,0.0,0.0,0.0,0.0,0.0,0.0,0.0,0.0,0.0,0.0,0.0,0.0,0.0,0.0,2.2189,0.0,2.272,0.0,0.0,0.0,0.0,0.0,0.0,0.0,0.0,2.9385,3.0733,3.1966,3.2147,3.2363,0.0,3.1571,2.973,0.0,0.0,0.0,0.0,0.0,0.0,0.0,0.0,2.7068,3.0266,3.1509,3.2801,3.4099,3.2884,3.2046,3.1824,3.1663,3.1332,3.0901,2.9581,2.8371,0.0,0.0,0.0,0.0,0.0,0.0,0.0,0.0,0.0,0.0,0.0,0.0,0.0,0.0,0.0,0.0,0.0,0.0,0.0,0.0,0.0,0.0,0.0,2.3526,0.0,0.0,0.0,0.0,0.0,0.0,0.0,0.0,0.0,2.6361,2.8397,3.0742,3.2729,3.2766,3.3465,3.5681,0.0,0.0,0.0,0.0,0.0,0.0,0.0,3.6123,3.6366,3.6679,3.7336,3.8687,3.9122,3.9323,3.9323,0.0,0.0,3.4824,3.4567,3.4956,3.4919,3.4863,3.478,3.4777,3.5417,3.612,0.0,0.0,0.0,0.0,0.0,0.0,0.0,0.0,2.7132,2.7195,0.0,2.7048,0.0,0.0,0.0,0.0,0.0,2.7804,0.0,0.0,3.2647,3.3897,3.4117,3.447,3.4712,3.4708,3.3408,3.2717,3.2573,2.9541,0.0,0.0,0.0,0.0,0.0,0.0,2.7997,3.1222,3.1416,3.1813,3.2644,3.1943,3.1149,3.0456,3.1106,3.1537,3.1597,3.0846,3.0453,3.0448,2.8251,0.0,0.0,0.0,0.0,0.0,0.0,0.0,0.0,0.0,0.0,0.0,0.0,0.0,0.0,0.0,0.0,0.0,0.0,0.0,0.0,2.3968,0.0,0.0,0.0,0.0,0.0,0.0,0.0,0.0,0.0,0.0,2.9922,3.1913,3.3784,3.4678,0.0,0.0,0.0,0.0,3.7731,3.7499,3.8076,3.8303,3.7524,3.804,3.8842,3.9647,0.0,0.0,4.2235,4.1747,4.1366,4.1288,4.2031,4.1679,3.9284,3.8658,3.8544,3.8468,3.8427,3.8353,3.8398,3.8982,3.9527,3.5625,0.0,0.0,0.0,0.0,3.0465,3.1127,3.1836,3.1618,3.1339,3.103,3.0227,0.0,0.0,0.0,0.0,0.0,0.0,3.1548,3.3449,3.471,3.5681,3.644,3.656,3.6727,3.6945,3.5964,3.5302,3.4926,3.3481,3.0986,2.7582,0.0,0.0,0.0,0.0,2.9422,3.2024,3.2775,3.3232,3.354,3.3363,3.3135,3.2905,3.1997,3.1795,3.2408,3.1696,3.1014,3.045,3.0335,0.0,0.0,0.0,0.0,0.0,0.0,0.0,0.0,0.0,0.0,0.0,0.0,0.0,0.0,0.0,0.0,0.0,0.0,0.0,2.7539,2.7877,2.7614,0.0,0.0,0.0,0.0,0.0,0.0,0.0,0.0,0.0,3.4964,3.5133,3.5569,0.0,0.0,3.5053,3.7429,3.9134,4.0102,4.0025,4.0178,0.0,4.0839,4.0614,4.0665,4.15,4.3382,4.5068,4.5853,4.6314,4.6578,4.654,4.626,4.5906,4.5757,4.3744,4.2226,4.2069,4.2069,4.2262,4.2752,4.3103,4.3563,4.0892,3.806,3.6377,3.5363,3.4906,3.5095,3.5262,3.5369,3.5377,3.5122,3.4694,3.4193,3.3102,3.1591,3.0948,0.0,0.0,0.0,3.3459,3.5067,3.5864,3.6749,3.7606,3.7796,3.7934,3.8078,3.7388,3.6888,3.6598,3.5577,3.3979,3.1719,0.0,0.0,2.9783,2.9798,3.084,3.2936,3.3532,3.3824,3.3853,3.3564,3.3608,3.3907,3.3004,3.2721,3.3251,3.283,3.2328,3.1901,3.206,3.1551,0.0,0.0,0.0,0.0,0.0,0.0,0.0,0.0,0.0,0.0,0.0,2.2924,2.3275,0.0,0.0,0.0,2.9228,3.0455,3.1015,3.074,0.0,0.0,0.0,0.0,0.0,0.0,0.0,3.3803,3.53,3.6706,3.7895,3.796,3.8081,3.8717,3.6889,3.6459,3.9143,0.0,4.1996,4.165,4.188,4.2266,4.2772,4.274,4.2903,4.3769,4.5454,4.6865,4.7416,4.8226,4.8764,4.8723,4.8361,4.8196,4.8703,4.7057,4.567,4.5618,4.5616,4.5796,4.6243,4.6317,4.6605,4.5553,4.542,4.2354,4.0978,4.0727,4.0175,3.9559,3.8834,3.8734,3.8653,3.8581,3.8372,3.7449,3.592,3.4436,0.0,3.382,3.4544,3.5222,3.582,3.6542,3.7271,3.7983,3.8328,3.8444,3.846,3.7948,3.7748,3.7671,3.6453,3.5886,3.5942,3.3213,3.179,3.1668,3.1553,3.2277,3.3847,3.3881,3.3928,3.3966,3.3274,3.3277,3.4094,3.4101,3.406,3.401,3.3972,3.4033,3.405,3.3447,3.308,3.3068,0.0,0.0,0.0,0.0,0.0,0.0,0.0,0.0,0.0,0.0,0.0,0.0,0.0,0.0,0.0,3.2773,0.0,3.3914,3.3151,0.0,0.0,0.0,3.3056,3.4531,3.4764,3.5364,3.6846,0.0,0.0,3.9182,4.0319,4.1041,4.1259,3.9966,3.9543,4.1092,4.2735,4.353,4.2767,4.3301,4.3796,4.3916,4.4426,4.5136,4.6006,4.6982,4.7458,4.7663,4.8241,4.8737,4.8817,4.8801,4.8828,4.8904,4.8794,4.8898,4.8803,4.8699,4.8584,4.8558,4.8577,4.8565,4.6665,4.7958,4.6111,4.4531,4.3422,4.4385,4.4693,4.444,4.3218,4.2348,4.1696,3.9885,3.8581,3.7603,3.724,3.7059,3.7059,3.724,3.7372,3.7424,3.7613,3.7787,3.7943,3.8021,3.8061,3.8101,3.7937,3.8008,3.8248,3.7367,3.7006,3.7133,3.5961,3.4959,3.4165,3.3519,3.37,3.4683,3.4717,3.5039,3.5683,3.5502,3.5567,3.5806,3.517,3.4547,3.4022,3.3983,3.4003,3.4044,3.4481,3.449,3.3933,3.2341,0.0,0.0,0.0,0.0,0.0,0.0,0.0,0.0,0.0,2.7325,2.7567,0.0,3.3237,0.0,3.63,3.8062,3.8047,3.7878,0.0,0.0,3.7331,3.773,3.8096,3.8718,3.8995,3.873,3.9889,4.0336,3.9428,4.1786,4.3302,4.277,4.256,4.2621,4.302,4.4478,4.5282,4.4545,4.497,4.5593,4.5514,4.5749,4.618,4.7041,4.7364,4.7686,4.8352,4.8661,4.8815,4.8813,4.88,4.9023,4.9605,4.9722,4.9987,5.0434,4.9631,4.8895,4.946,4.9544,4.9708,4.8935,4.9952,4.9149,4.8016,4.6827,4.6977,4.683,4.6457,4.5924,4.5454,4.491,4.2529,4.1035,4.0247,3.9506,3.9191,3.92,3.9191,3.9084,3.8924,3.8968,3.8924,3.8905,3.886,3.8717,3.842,3.8717,3.8824,3.8679,3.87,3.8797,3.894,3.8005,3.7227,3.6622,3.5499,3.5146,3.5608,3.5765,3.606,3.6555,3.6724,3.6649,3.6321,3.5867,3.5284,3.4454,3.4475,3.4496,3.4482,3.4957,3.507,3.4599,3.3433,3.2381,0.0,0.0,0.0,0.0,0.0,0.0,0.0,0.0,0.0,0.0,0.0,3.6918,3.7288,3.9304,4.0439,4.0048,4.0032,3.99,3.9735,4.0135,4.0526,4.0834,4.1289,4.1404,4.0947,4.1719,4.2051,4.1522,4.3026,4.4234,4.4198,4.4311,4.4461,4.4635,4.5422,4.58,4.5486,4.5812,4.6138,4.6212,4.6217,4.6373,4.6842,4.7237,4.7713,4.8296,4.8608,4.8879,4.9111,4.9262,4.9605,5.0385,5.0579,5.077,5.0992,5.0545,5.0082,5.0384,5.0434,5.0605,5.1069,5.1124,5.115,5.0802,5.0118,4.8766,4.7689,4.6975,4.7471,4.7652,4.7399,4.5128,4.3761,4.3099,4.1549,4.0771,4.0582,4.0654,4.047,4.0102,4.0161,4.0152,4.0083,3.9976,3.9556,3.8939,3.9494,3.9494,3.8958,3.9833,4.0409,4.0515,3.9443,3.8888,3.8822,3.747,3.6666,3.6518,3.6937,3.715,3.7168,3.7505,3.728,3.6351,3.6354,3.6008,3.5192,3.5195,3.5218,3.5231,3.5428,3.5488,3.542,3.4804,3.4228,0.0,3.2852,0.0,0.0,0.0,0.0,0.0,0.0,0.0,0.0,3.8394,4.0198,4.118,4.188,4.2041,4.1359,4.1251,4.1505,4.2091,4.2194,4.2443,4.3063,4.3053,4.2947,4.2947,4.2947,4.3209,4.364,4.4011,4.4513,4.5015,4.5333,4.5509,4.5762,4.5753,4.5772,4.5978,4.6129,4.6383,4.6438,4.6529,4.6607,4.6529,4.7002,4.7505,4.7623,4.8052,4.8557,4.9021,4.9372,4.9995,5.0852,5.1086,5.1281,5.1279,5.1226,5.1163,5.1159,5.1136,5.1203,4.9826,5.0324,5.0381,5.062,5.0954,5.0735,5.0162,4.934,4.8206,4.7327,4.6602,4.4874,4.4367,4.4765,4.3841,4.2671,4.1439,4.2044,4.1533,4.0102,4.0121,4.0047,3.9916,3.9344,3.8999,3.8858,3.8329,3.8364,3.8903,3.912,3.9479,4.0059,3.9903,3.986,3.9814,0.0,0.0,0.0,3.8032,3.85,3.8599,3.876,3.824,3.6913,3.6866,0.0,3.5937,3.592,3.5921,3.5999,3.6658,0.0,0.0,0.0,0.0,0.0,0.0,0.0,0.0,0.0,0.0,0.0,3.9584,3.9669,3.8774,4.0249,4.1955,4.3446,4.3777,4.4047,4.4481,4.4542,4.4597,4.4691,4.4705,4.4752,4.4812,4.4213,4.3782,4.3777,4.3777,4.3586,4.3329,4.4169,4.4873,4.4651,4.5456,4.6232,4.6362,4.6105,4.5941,4.603,4.6717,4.7208,4.7227,4.7815,4.7932,4.7544,4.732,4.7285,4.6729,4.6659,4.6778,4.7039,4.8048,4.9101,4.9372,5.0346,5.132,5.132,5.1316,5.1308,5.128,5.1242,5.1208,5.0924,0.0,5.1283,5.1249,0.0,5.1679,5.0955,4.9469,4.9078,4.8424,4.7652,4.7228,4.683,4.6468,4.5992,4.5327,4.4554,4.488,4.4289,4.2997,4.2629,4.2164,4.166,4.0895,4.0139,3.9392,3.9354,3.9354,3.9427,3.9795,4.0373,4.1074,4.0766,4.0607,4.0607,4.0522,3.9891,3.8651,3.9297,3.9669,3.9761,4.0089,3.9663,3.8492,3.8457,0.0,0.0,0.0,0.0,0.0,0.0,0.0,0.0,3.8803,0.0,3.949,3.9213,3.9391,4.0261,4.0713,4.1327,4.2148,4.3,4.2964,4.1809,4.2842,4.3903,4.4737,4.4838,4.4997,4.5338,4.5434,4.5414,4.5339,4.5362,4.5352,4.525,4.4939,4.4814,4.5119,4.4857,4.4743,4.5234,4.5545,4.5927,4.5922,4.6571,4.7144,4.7128,4.6997,4.6885,4.7117,4.76,4.7994,4.8156,4.8438,4.8713,4.8256,4.8146,4.7606,4.6399,4.6554,4.6978,4.7391,4.825,4.8995,4.9921,5.0782,5.1294,5.1283,5.132,5.1318,5.1304,5.123,5.119,5.2391,5.2409,5.2553,5.2235,5.1665,5.2183,5.106,4.8944,0.0,0.0,0.0,4.9293,4.8894,4.7906,4.7651,4.7536,4.7478,4.7518,4.7049,4.6161,4.5366,4.4514,4.3668,4.2751,4.168,4.06,4.1074,4.1074,4.06,4.1349,4.1895,4.2226,4.1787,4.1431,4.1324,4.1324,4.0967,4.037,4.0545,4.0646,4.0672,4.0964,4.0717,3.9816,3.987,3.9629,3.9084,3.9291,3.9458,3.9614,4.0077,4.0344,4.0355,4.0556,4.0761,4.0928,4.0982,4.1642,4.3113,4.3227,4.38,4.5191,4.5277,4.5056,4.4447,4.4993,4.5376,4.5381,4.5386,4.5414,4.5408,4.5566,4.5589,4.5533,4.5681,4.5757,4.5741,4.5741,4.6003,4.6533,4.6156,4.6233,4.7412,4.7106,4.6953,4.7597,4.787,4.8138,4.8176,4.7979,4.7823,4.8118,4.8412,4.8699,4.8857,4.9109,4.9097,4.9005,4.8945,4.8459,4.7351,4.7195,4.7765,4.8342,4.8618,4.9083,5.0279,5.0754,5.1032,5.1088,5.1201,5.132,5.1316,5.1248,5.1218,5.2391,5.2463,5.3145,5.3363,5.3222,5.2628,5.1094,4.8873,4.831,4.8377,4.8811,4.7544,4.7652,4.8692,4.8004,4.7625,4.7551,4.8058,4.7875,4.701,4.6065,4.5224,4.4382,4.2965,4.2537,4.2919,4.244,4.244,4.3026,4.374,4.3536,4.2511,4.2894,4.2822,4.219,4.2119,4.2083,4.194,4.1437,4.1231,4.1254,4.0799,4.0182,3.9532,3.9512,3.9548,3.9685,3.9748,3.9963,4.0428,4.1151,4.1688,4.2043,4.2811,4.3572,4.4262,4.4351,4.4527,4.4816,4.4816,4.4886,4.5164,4.5256,4.5255,4.5151,4.5232,4.5309,4.5309,4.535,4.5413,4.5446,4.6051,4.6429,4.6503,4.7072,4.7477,4.7346,4.7335,4.7412,4.7603,4.7526,4.745,4.7832,4.775,4.7679,4.7908,4.852,4.9137,4.9465,4.8797,4.8143,4.8314,4.886,4.9223,4.9434,4.995,5.0044,4.9654,4.9642,4.9588,4.9154,4.8226,4.7871,4.8105,4.8058,4.8008,4.8345,4.9279,5.0212,5.0431,5.0854,5.1203,5.1281,5.1261,5.1282,5.2391,5.2445,5.2783,5.2956,5.2925,5.2547,5.2033,5.1396,5.0626,4.9981,4.9582,4.9655,5.0416,5.1454,5.1563,5.1588,5.1495,5.0862,5.0063,4.9121,4.78,4.6708,4.5902,4.5189,4.4832,4.4703,4.3929,4.374,4.4061,4.405,4.3847,4.3572,4.3918,4.3918,4.3572,4.3536,4.3358,4.2919,4.2221,4.1843,4.1867,4.1669,4.1387,4.1103,4.1103,4.1367,4.195,4.1685,4.1883,4.2586,4.3372,4.3704,4.3489,4.4468,4.5088,4.501,4.5039,4.5085,4.5148,4.5125,4.5131,4.5192,4.5224,4.5251,4.5277,4.5283,4.5283,4.5283,4.5347,4.5554,4.5926,4.6329,4.6755,4.7226,4.7603,4.7827,4.7799,4.7794,4.7985,4.8372,4.8061,4.8138,4.9054,4.8793,4.8716,4.9093,4.9557,4.9939,5.0245,4.9684,4.925,4.9498,4.9842,5.0027,5.0117,5.0433,5.0603,5.0399,5.0459,5.054,5.0473,4.9319,4.8573,4.8722,4.8526,4.8446,4.8712,4.9882,5.0615,5.0719,5.0555,5.0786,5.1127,5.1312,5.1304,5.2524,5.2391,5.2391,5.2391,5.2469,5.2785,5.3096,5.3289,5.3085,5.2335,5.1405,5.2165,5.2951,5.3748,5.4363,5.4725,5.4665,5.3099,5.1921,5.1082,4.9228,4.7979,4.7305,4.7114,4.6853,4.6534,4.5951,4.5595,4.5392,4.4988,4.481,4.4881,4.4703,4.4585,4.4585,4.4585,4.43,4.374,4.2965,4.2476,4.2297,4.2405,4.2553,4.2721,4.2686,4.313,4.3935,4.3645,4.3738,4.4518,4.5255,4.5402,4.4959,4.587,4.619,4.5594,4.5524,4.5542,4.5627,4.5662,4.5576,4.5458,4.5448,4.5519,4.5562,4.5583,4.5588,4.5588,4.5583,4.5932,4.6707,4.7057,4.7357,4.8001,4.8307,4.846,4.8367,4.8367,4.8596,4.9175,4.8754,4.894,4.9818,4.9748,4.9595,5.0054,5.0271,5.0265,5.0309,5.0224,5.0294,5.0429,5.0497,5.0479,5.0576,5.0617,5.0674,5.0847,5.093,5.103,5.0936,4.9999,4.9343,4.9495,4.8953,4.8645,4.9348,4.9892,5.0197,5.0066,5.0056,5.04,5.1127,5.1084,5.1119,5.2937,5.2424,5.2391,5.2391,5.2571,5.3912,5.3759,5.2849,5.402,5.4617,5.4207,5.3096,5.3012,5.3639,5.3844,5.4315,5.4822,5.3099,5.2281,5.1897,4.9619,4.8344,4.817,4.7561,4.7815,4.8782,4.877,4.8235,4.7687,4.8235,4.7664,4.5844,4.4953,4.4667,4.4621,4.4631,4.4596,4.4489,4.3775,4.3036,4.2333,4.2308,4.2665,4.3404,4.3393,4.3803,4.4671,4.4677,4.4844,4.5391,4.587,4.6219,4.645,4.6982,4.7226,4.7119,4.7125,4.7169,4.7182,4.7326,4.6982,4.63,4.6235,4.6336,4.6385,4.6397,4.6385,4.6424,4.6424,4.6784,4.7668,4.8367,4.8745,4.8931,4.9581,5.0149,4.9989,5.0054,5.0086,5.0162,4.9933,5.0124,5.0206,5.0168,5.0162,5.0239,5.0242,5.0224,5.0292,5.0169,5.0145,5.0259,5.023,5.0206,5.025,5.0271,5.039,5.0524,5.0716,5.0895,5.0884,5.0552,5.0009,4.9729,4.8882,4.8183,4.8062,4.7902,4.8209,4.9093,4.9585,5.0311,5.0969,5.085,5.0693,5.2656,5.2391,5.2391,5.2391,5.2553,5.3614,5.3709,5.3254,5.4334,5.4839,5.4837,5.4612,5.4991,5.574,5.5776,5.5957,5.6102,5.4086,5.3086,5.2834,5.0866,4.9851,4.9734,4.9865,4.9972,4.9924,4.9555,4.8925,4.8294,4.8032,4.7426,4.6569,4.6141,4.6034,4.6034,4.6034,4.5784,4.5309,4.5024,4.4464,4.3714,4.3251,4.3393,4.4061,4.4157,4.4535,4.5243,4.4946,4.4982,4.5621,4.6195,4.6314,4.6015,4.7146,4.7613,4.7167,4.7286,4.7378,4.7378,4.7429,4.7353,4.7023,4.7034,4.7094,4.7207,4.7192,4.7411,4.787,4.757,4.7652,4.8482,4.8908,4.9291,4.9744,5.0165,5.0344,5.0283,5.0277,5.0277,5.0277,5.0277,5.0277,5.0277,5.0277,5.0277,5.0271,5.023,5.0206,5.0218,5.0152,5.0076,5.0126,5.0082,5.0089,5.0169,5.023,5.0346,5.0453,5.061,5.075,5.0915,5.042,4.9934,5.0102,4.9414,4.8955,4.919,4.9494,4.9759,4.9788,4.9893,5.0774,5.0579,5.1086,5.1474,5.2593,5.2442,5.2391,5.2391,5.248,5.3247,5.3581,5.3713,5.4479,5.4798,5.4889,5.5659,5.6308,5.6858,5.71,5.7188,5.6899,5.4979,5.3857,5.3412,5.1789,5.0926,5.0868,5.1238,5.1295,5.0853,5.0293,4.946,4.8472,4.7473,4.7009,4.7009,4.7009,4.7009,4.7009,4.7009,4.6723,4.6141,4.5927,4.5595,4.5202,4.4524,4.4382,4.4881,4.4953,4.5309,4.607,4.5559,4.5534,4.6128,4.667,4.6739,4.6202,4.7553,4.8191,4.7819,4.7947,4.8066,4.8104,4.8104,4.801,4.7871,4.7846,4.7896,4.7981,4.8029,4.8489,4.9184,4.8858,4.8825,4.9289,4.9448,4.9715,5.0201,5.0277,5.0277,5.0277,5.0277,5.0277,5.0277,5.0277,5.0277,5.0277,5.0277,5.0277,5.0271,5.0236,5.0194,5.0175,5.0082,5.005,5.0063,5.0025,5.0038,5.0139,5.0244,5.0323,5.0386,5.0507,5.0726,5.0988,5.0399,5.0215,5.0618,5.0322,5.0024,4.9684,5.0342,5.0763,5.0835,5.0825,5.0733,5.0618,5.1515,5.1904,5.3149,5.2442,5.2391,5.2391,5.2463,5.3213,5.3565,5.3548,5.4385,5.4737,5.4828,5.5616,5.5998,5.6172,5.6871,5.7188,5.6971,5.5558,5.4496,5.3724,5.2156,5.1241,5.1067,5.0987,5.1287,5.1691,5.1579,5.0744,4.9305,4.7854,4.7009,4.708,4.7152,4.7045,4.7045,4.7045,4.6973,4.6819,4.6212,4.6141,4.6652,4.6034,4.5677,4.5749,4.5737,4.6105,4.6795,4.6902,4.6902,4.6938,4.7334,4.7565,4.762,4.8526,4.922,4.9614,4.9728,4.9734,4.9703,4.9621,4.94,4.8806,4.87,4.8739,4.8764,4.8851,4.9254,5.0041,5.0013,5.0048,5.0124,5.0092,5.0168,5.0277,5.0277,5.0277,5.0277,5.0277,5.0277,5.0277,5.0277,5.0277,5.0277,5.0277,5.0359,5.0347,5.0268,5.0302,5.0316,5.0146,5.0139,5.0145,5.0094,5.0005,5.0076,5.0145,5.0194,5.0271,5.0407,5.0644,5.0801,5.092,5.1003,5.1018,5.0622,5.029,5.0022,4.9903,4.9935,4.993,4.9886,4.9917,5.0774,5.1125,5.1632,5.2766,5.2391,5.2391,5.2391,5.2445,5.2729,5.2835,5.287,5.3128,5.3548,5.4116,5.4874,5.5495,5.6025,5.6858,5.7188,5.708,5.6066,5.545,5.5051,5.4002,5.3135,5.2558,5.2867,5.2578,5.2014,5.2283,5.1935,5.0923,5.0245,4.9745,4.9174,4.8699,4.8247,4.7759,4.7259,4.7009,4.6973,4.6676,4.6712,4.6973,4.6723,4.6569,4.6581,4.6581,4.6688,4.7009,4.7009,4.7009,4.7009,4.7254,4.7396,4.7468,4.8273,4.9145,4.9811,4.9893,4.9893,4.9893,4.9893,4.9772,4.9514,4.9496,4.9491,4.9568,4.9613,4.9772,5.0088,5.0188,5.0224,5.0236,5.0259,5.0277,5.0277,5.0277,5.0277,5.0277,5.0277,5.0277,5.0277,5.0277,5.0277,5.0397,5.0779,5.0888,5.0544,5.114,5.1396,5.1072,5.0874,5.0783,5.0674,5.0312,4.9933,4.9953,5.0057,5.0126,5.0145,5.0239,5.0458,5.0635,5.077,5.0829,5.1145,5.0846,5.0786,5.0594,5.0593,5.039,5.039,5.0229,5.0307,5.1162,5.1747,5.2175,5.2516,5.2463,5.2409,5.2391,5.2391,5.2391,5.2391,5.2391,5.2409,5.2852,5.3647,5.4428,5.5232,5.6025,5.6858,5.7188,5.7152,5.6609,5.6259,5.5957,5.5364,5.4676,5.3988,5.4223,5.3812,5.2865,5.2809,5.2613,5.2113,5.1828,5.1422,5.0852,5.009,4.946,4.8865,4.7901,4.7413,4.7402,4.7402,4.7402,4.7366,4.7366,4.7413,4.733,4.7152,4.7009,4.7009,4.7009,4.7009,4.702,4.7088,4.7265,4.7648,4.8215,4.8974,4.9745,4.9893,4.9893,4.9893,4.9893,4.9893,4.9893,4.9893,4.9913,4.9991,4.9973,5.0005,5.005,5.0114,5.0157,5.0207,5.0218,5.0298,5.0309,5.0277,5.0277,5.0277,5.0277,5.0277,5.0277,5.0277,5.0277,5.0353,5.0818,5.0971,5.0703,5.1712,5.2031,5.1846,5.1476,5.1288,5.1144,5.0444,5.004,4.9997,5.0076,5.0063,5.0076,5.0114,5.0298,5.0495,5.0631,5.0817,5.1086,5.1254,5.1271,5.132,5.132,5.132,5.132,5.1164,5.1047,5.1785,5.2487,5.2913,5.2531,5.262,5.2496,5.2424,5.2391,5.2391,5.2391,5.2391,5.2391,5.2852,5.3647,5.4428,5.5232,5.6025,5.6858,5.7188,5.7188,5.708,5.673,5.6138,5.6029,5.5619,5.4882,5.488,5.4779,5.4353,5.3491,5.3054,5.3077,5.2541,5.2101,5.1708,5.103,5.0566,5.0459,4.8972,4.8199,4.8199,4.8199,4.8187,4.8199,4.8187,4.8199,4.8115,4.7544,4.7223,4.7152,4.708,4.7116,4.708,4.708,4.7536,4.8271,4.8486,4.8924,4.971,4.9893,4.9893,4.9893,4.9893,4.9893,4.9893,4.9893,4.9893,4.9906,4.9946,4.9979,4.9992,5.0044,5.0082,5.0089,5.0145,5.0218,5.0303,5.0315,5.0277,5.0277,5.0277,5.0277,5.0277,5.0277,5.0277,5.0315,5.0665,5.0971,5.1379,5.1871,5.2228,5.2538,5.2122,5.1516,5.1271,5.0968,5.0616,5.0321,5.0063,5.0056,5.0018,5.0063,5.0174,5.0422,5.0567,5.0731,5.1035,5.1248,5.1271,5.1318,5.132,5.132,5.132,5.1359,5.1437,5.1863,5.2485,5.3531,5.3443,5.3339,5.3141,5.2804,5.2424,5.2391,5.2391,5.2409,5.2391,5.2852,5.3647,5.4463,5.5247,5.6025,5.6845,5.7176,5.7188,5.7188,5.7043,5.6826,5.679,5.639,5.5809,5.6035,5.6148,5.5904,5.5619,5.5383,5.5196,5.4969,5.4706,5.3992,5.2791,5.1899,5.128,4.9817,4.8948,4.896,4.8948,4.8948,4.896,4.896,4.896,4.8925,4.8699,4.8592,4.8568,4.8068,4.7841,4.7806,4.7806,4.8045,4.8382,4.8495,4.894,4.9738,4.9893,4.9893,4.9893,4.9931,4.9931,4.9893,4.9893,4.9893,4.9893,4.9906,4.9926,4.9926,4.9979,5.0012,5.0063,5.0114,5.0145,5.025,5.0253,5.0277,5.0277,5.0277,5.0277,5.0277,5.0277,5.0277,5.055,5.1047,5.1773,5.1875,5.2895,5.3823,5.3483,5.3142,5.3004,5.2857,5.2151,5.114,5.0643,5.0328,5.0258,5.01,5.0012,5.0057,5.0269,5.0485,5.0674,5.0937,5.1162,5.1267,5.1277,5.132,5.132,5.132,5.132,5.1476,5.1671,5.2329,5.3299,5.3705,5.3886,5.369,5.3385,5.3003,5.3003,5.2837,5.2587,5.2516,5.3073,5.4021,5.4251,5.4957,5.5812,5.6245,5.6492,5.6718,5.678,5.6923,5.7163,5.7188,5.6848,5.646,5.6757,5.6943,5.6773,5.6653,5.6559,5.6465,5.641,5.6133,5.5455,5.4349,5.3362,5.2493,5.1018,5.009,4.9805,4.9769,4.9733,4.9769,4.9733,4.9733,4.9698,4.9448,4.9483,4.9662,4.9281,4.8758,4.827,4.7949,4.7969,4.8412,4.8522,4.8915,4.9712,5.0189,5.0265,5.0006,5.0227,5.0227,5.0,4.9893,4.9893,4.9893,4.9893,4.9893,4.9899,4.9926,4.9953,4.9959,5.0012,5.007,5.0107,5.0194,5.0253,5.0271,5.0277,5.0277,5.0277,5.0277,5.0436,5.0971,5.1467,5.2499,5.2639,5.3754,5.4832,5.4262,5.3995,5.3765,5.3236,5.2203,5.1368,5.0799,5.0591,5.046,5.0232,4.9973,5.0012,5.0131,5.032,5.0524,5.09,5.1159,5.1265,5.132,5.132,5.132,5.132,5.1318,5.1591,5.1863,5.2021,5.287,5.351,5.4288,5.4163,5.4057,5.4024,5.4024,5.3705,5.3119,5.2894,5.3613,5.4533,5.4223,5.4548,5.5482,5.5539,5.5758,5.5978,5.6459,5.6746,5.7087,5.7188,5.7103,5.7078,5.7012,5.6972,5.692,5.6733,5.6613,5.6559,5.6451,5.6396,5.6204,5.5419,5.4799,5.38,5.2493,5.1351,5.0816,5.0637,5.0554,5.0554,5.0566,5.0566,5.0518,4.9983,4.9947,5.0447,5.0352,4.9674,4.8413,4.777,4.7865,4.8428,4.8605,4.9213,5.0189,5.0865,5.0827,5.0455,5.0865,5.1016,5.0379,5.0303,5.0038,5.0265,5.0265,5.0151,5.0113,5.0006,4.9893,4.9906,4.9946,4.9986,5.0005,5.0126,5.0218,5.0271,5.0277,5.0277,5.0315,5.0359,5.0665,5.1423,5.1767,5.2646,5.3506,5.4064,5.4486,5.4666,5.433,5.3509,5.2964,5.2613,5.193,5.1461,5.083,5.0661,5.0167,4.994,4.9973,5.005,5.023,5.045,5.0813,5.1053,5.1176,5.1258,5.1241,5.1261,5.1318,5.1474,5.1785,5.1896,5.1929,5.2324,5.4405,5.5046,5.4901,5.483,5.4812,5.4812,5.4711,5.4544,5.4423,5.4564,5.4949,5.4754,5.4817,5.5298,5.617,5.6397,5.6387,5.7231,5.7441,5.7235,5.7188,5.7188,5.7163,5.7061,5.6997,5.6959,5.6737,5.6613,5.6586,5.6478,5.6396,5.6383,5.5669,5.512,5.4657,5.3314,5.2541,5.222,5.1637,5.1351,5.1351,5.1351,5.1387,5.1351,5.1137,5.1101,5.128,5.0816,5.0054,4.9127,4.8841,4.8875,4.9342,4.988,5.0554,5.1464,5.1881,5.1995,5.1805,5.1919,5.1957,5.1805,5.1547,5.1736,5.1698,5.1168,5.094,5.0751,5.0341,4.9931,4.9931,4.9944,4.994,4.9992,5.0107,5.0212,5.0259,5.0277,5.0277,5.0353,5.0812,5.1232,5.1767,5.2569,5.3448,5.404,5.449,5.4763,5.4881,5.4833,5.4117,5.4086,5.3722,5.285,5.2099,5.1385,5.0785,5.0134,4.9913,4.9933,5.005,5.0203,5.0404,5.0653,5.0774,5.0885,5.1029,5.1047,5.1152,5.1186,5.1336,5.152,5.1431,5.142,5.1789,5.4527,5.5382,5.5257,5.5353,5.5548,5.5548,5.5451,5.5237,5.5149,5.528,5.5337,5.473,5.4992,5.5808,5.6072,5.657,5.7079,5.7975,5.8312,5.8226,5.7913,5.755,5.7284,5.71,5.7074,5.7049,5.6891,5.6799,5.6746,5.6586,5.6492,5.6429,5.5982,5.5562,5.5085,5.4063,5.3184,5.2791,5.2149,5.1708,5.1708,5.1708,5.1672,5.1708,5.1708,5.1708,5.1601,5.1244,5.0637,4.9947,4.9531,4.955,5.019,5.0609,5.1354,5.2294,5.2715,5.279,5.2525,5.2677,5.2753,5.2487,5.2411,5.2222,5.1881,5.1426,5.1199,5.113,5.0379,5.0189,5.0334,5.0151,4.9971,5.0018,5.0101,5.0175,5.0236,5.0303,5.0277,5.0436,5.0741,5.1429,5.1926,5.2996,5.3779,5.4403,5.4872,5.4974,5.5026,5.4956,5.4761,5.4503,5.3897,5.2798,5.1857,5.1144,5.0658,5.0044,4.9899,4.9913,5.0012,5.0131,5.0303,5.0475,5.0547,5.0645,5.0743,5.085,5.0837,5.094,5.1075,5.1157,5.1131,5.1041,5.1399,5.4209,5.538,5.538,5.5761,5.6251,5.6318,5.6109,5.5698,5.5554,5.5801,5.6005,5.4773,5.5408,5.6863,5.6393,5.6589,5.8338,5.8702,5.9036,5.9036,5.8673,5.7985,5.7478,5.7248,5.7163,5.715,5.7049,5.6995,5.6891,5.672,5.6613,5.651,5.6415,5.6039,5.5419,5.455,5.3813,5.3255,5.2434,5.2006,5.1899,5.1815,5.1708,5.1708,5.1708,5.1708,5.1708,5.1601,5.128,5.0661,4.9912,5.015,5.0882,5.1013,5.1672,5.2582,5.3383,5.351,5.298,5.348,5.3548,5.3018,5.2828,5.2374,5.2108,5.1919,5.1767,5.1767,5.0675,5.0675,5.0827,5.0492,5.0129,5.0101,5.007,5.012,5.0182,5.0248,5.0315,5.0474,5.0512,5.1353,5.2155,5.3034,5.3588,5.4339,5.4852,5.5057,5.505,5.4941,5.4662,5.4314,5.3473,5.2449,5.1585,5.0758,5.0379,4.9969,4.9931,4.9906,4.994,5.0044,5.0186,5.0292,5.0298,5.0387,5.0542,5.0592,5.0567,5.0707,5.0844,5.092,5.092,5.0828,5.1008,5.4001,5.5185,5.5167,5.592,5.6973,5.7074,5.7066,5.7031,5.6847,5.6899,5.7083,5.6616,5.6642,5.7175,5.7859,5.8621,5.8695,5.9578,6.011,5.9454,5.8782,5.8383,5.7985,5.755,5.7224,5.7163,5.7049,5.6946,5.6842,5.6812,5.6653,5.6478,5.6546,5.6434,5.6053,5.529,5.4906,5.4456,5.335,5.2649,5.2447,5.2054,5.1769,5.1733,5.1721,5.1685,5.1708,5.1708,5.1601,5.1435,5.1258,5.1095,5.1398,5.2163,5.2902,5.3541,5.4208,5.4496,5.4389,5.4427,5.4579,5.4276,5.4117,5.4314,5.4124,5.3366,5.3139,5.3018,5.2374,5.1616,5.1199,5.1054,5.0685,5.0341,5.0171,5.0266,5.0264,5.0286,5.0544,5.1162,5.1735,5.2155,5.2079,5.383,5.4333,5.4434,5.4686,5.505,5.5035,5.4934,5.4722,5.4404,5.3707,5.2836,5.2222,5.1319,5.0492,5.0075,4.9931,4.9893,4.9926,4.9946,5.0044,5.0044,4.9987,5.0141,5.0331,5.0368,5.0345,5.051,5.0632,5.067,5.0666,5.0599,5.0587,5.3748,5.4544,5.4667,5.5319,5.6218,5.662,5.6899,5.7113,5.7361,5.7495,5.7456,5.709,5.7051,5.7415,5.8568,5.9001,5.9481,6.0619,6.0942,6.0267,5.9674,5.9131,5.8383,5.7985,5.7623,5.7284,5.7125,5.7036,5.6972,5.6894,5.6803,5.6693,5.6707,5.6626,5.6398,5.5728,5.5259,5.4955,5.4063,5.3278,5.2876,5.2569,5.2144,5.1942,5.1845,5.1796,5.1796,5.1808,5.1771,5.1733,5.1697,5.179,5.1975,5.2732,5.3522,5.4057,5.4613,5.486,5.4882,5.492,5.4882,5.492,5.492,5.4655,5.4427,5.3897,5.3745,5.351,5.2866,5.207,5.135,5.1654,5.1354,5.0853,5.0653,5.1028,5.1554,5.1043,5.0659,5.1385,5.1843,5.2416,5.3142,5.4199,5.4669,5.4603,5.478,5.5106,5.5028,5.4941,5.4972,5.4616,5.4063,5.3442,5.2904,5.1995,5.0789,5.0265,4.9931,4.9893,4.9906,4.9906,4.9913,4.9906,4.9926,4.9946,5.0107,5.0131,5.0141,5.0186,5.0303,5.0376,5.0465,5.041,5.0378,5.3612,5.4042,5.4167,5.4568,5.5195,5.5898,5.6362,5.6627,5.7248,5.7532,5.7542,5.7006,5.7273,5.7586,5.8312,5.9117,6.0066,6.1196,6.1485,6.1014,6.0652,5.9964,5.9108,5.8528,5.8166,5.7563,5.7284,5.7187,5.71,5.7074,5.6959,5.6933,5.6868,5.6773,5.6487,5.5991,5.5638,5.5451,5.4683,5.3836,5.3184,5.3024,5.2611,5.2039,5.198,5.1907,5.1895,5.1907,5.1882,5.1758,5.1746,5.1957,5.2381,5.3004,5.3444,5.3977,5.4511,5.4852,5.492,5.492,5.492,5.492,5.492,5.4609,5.4117,5.4041,5.401,5.3783,5.3366,5.2677,5.1767,5.2222,5.2189,5.1681,5.1521,5.2265,5.2977,5.1865,5.1437,5.1697,5.2346,5.2881,5.3276,5.3945,5.4401,5.4829,5.4967,5.5054,5.5014,5.4971,5.4971,5.4941,5.4457,5.3904,5.3328,5.2601,5.1395,5.0978,5.0417,5.0265,5.0265,5.0303,5.0341,4.9969,4.9906,4.9926,4.9933,4.9992,4.9974,4.9953,5.0006,5.0177,5.0235,5.0235,5.0333,5.3908,5.399,5.4026,5.4443,5.5144,5.5865,5.6313,5.6591,5.7155,5.7458,5.7646,5.8022,5.7842,5.7875,5.8408,5.9193,6.026,6.1396,6.1919,6.1593,6.1195,6.0507,6.0072,5.9131,5.8782,5.8709,5.8021,5.7246,5.7208,5.7136,5.7036,5.6894,5.692,5.6881,5.6737,5.6501,5.6277,5.6076,5.5388,5.4634,5.392,5.321,5.2595,5.1954,5.1993,5.2005,5.1968,5.2005,5.2005,5.1882,5.1858,5.1834,5.209,5.2769,5.3293,5.3655,5.4364,5.4822,5.4867,5.492,5.492,5.492,5.492,5.492,5.4685,5.4647,5.4541,5.4541,5.442,5.4041,5.3366,5.3359,5.3061,5.2586,5.2354,5.254,5.2829,5.2603,5.2285,5.2589,5.306,5.341,5.3773,5.4078,5.4509,5.4822,5.4895,5.5002,5.5035,5.5021,5.5028,5.4985,5.4889,5.4298,5.3745,5.298,5.2146,5.1957,5.1547,5.1206,5.113,5.1047,5.0865,5.0189,4.9931,4.9899,4.9899,4.9893,4.9899,4.992,4.9959,5.0037,5.0279,5.0564,5.078,5.379,5.3439,5.3664,5.4171,5.4895,5.5636,5.6228,5.6705,5.7306,5.7662,5.7845,5.8051,5.8031,5.8064,5.8929,5.9947,6.0948,6.1573,6.1992,6.1883,6.1593,6.1159,6.0869,5.9891,5.9638,5.9312,5.8407,5.7778,5.7678,5.7331,5.7136,5.7061,5.7074,5.6997,5.6816,5.6724,5.664,5.6389,5.5995,5.5419,5.4563,5.3541,5.2618,5.2208,5.2054,5.2102,5.2126,5.215,5.2138,5.2017,5.1932,5.187,5.2054,5.2393,5.3025,5.3393,5.4112,5.4684,5.4837,5.492,5.492,5.492,5.492,5.492,5.492,5.4882,5.492,5.492,5.4882,5.4579,5.3707,5.4086,5.3873,5.3341,5.3148,5.338,5.3619,5.3516,5.3423,5.343,5.3658,5.397,5.4269,5.4568,5.4807,5.4898,5.4881,5.4943,5.5019,5.505,5.5057,5.5,5.4903,5.4556,5.4086,5.3556,5.2942,5.279,5.2601,5.226,5.1805,5.1578,5.0865,5.0075,4.9969,5.0038,4.9931,4.9924,4.9931,5.0038,5.0406,5.0685,5.0772,5.0903,5.1244,5.3555,5.299,5.3314,5.3873,5.4668,5.5361,5.6139,5.6833,5.7577,5.7881,5.79,5.7902,5.78,5.8014,5.9031,6.0337,6.1559,6.1737,6.1992,6.1992,6.1955,6.1593,6.1195,6.0833,6.0543,6.0254,5.9131,5.8565,5.8153,5.755,5.7224,5.7163,5.7176,5.71,5.692,5.6816,5.6667,5.6546,5.641,5.599,5.5062,5.3794,5.2801,5.2414,5.2258,5.2186,5.2198,5.2281,5.2257,5.215,5.2054,5.1968,5.1981,5.222,5.2627,5.3191,5.3879,5.4405,5.4784,5.492,5.492,5.492,5.492,5.492,5.492,5.492,5.492,5.492,5.4882,5.4731,5.4238,5.4541,5.4503,5.4177,5.4031,5.4188,5.4437,5.4455,5.4213,5.4197,5.4269,5.4339,5.4499,5.4842,5.5011,5.5029,5.5012,5.505,5.512,5.5064,5.5042,5.5,5.4873,5.4632,5.4352,5.4238,5.3783,5.3556,5.3442,5.3177,5.2563,5.2002,5.1319,5.0834,5.0379,5.0448,5.0227,5.0227,5.053,5.0865,5.1161,5.135,5.1464,5.1729,5.2032,5.352,5.3161,5.3246,5.3753,5.4668,5.5446,5.6139,5.69,5.7611,5.79,5.8009,5.792,5.7638,5.7724,5.8599,5.9527,6.0425,6.1459,6.1992,6.2028,6.1992,6.1955,6.1738,6.1086,6.1267,6.1086,6.0072,5.9108,5.8565,5.7804,5.7261,5.7297,5.7261,5.7163,5.7061,5.6894,5.6799,5.6684,5.6505,5.6026,5.5098,5.3833,5.3121,5.2851,5.2545,5.2366,5.2402,5.2521,5.2484,5.2281,5.2246,5.2174,5.2114,5.2078,5.2337,5.2877,5.3598,5.4334,5.4715,5.486,5.492,5.492,5.492,5.492,5.492,5.492,5.492,5.492,5.492,5.4844,5.4655,5.4806,5.4806,5.4731,5.4594,5.4715,5.4919,5.4883,5.4718,5.4874,5.4917,5.4594,5.4473,5.488,5.5183,5.517,5.5195,5.5188,5.5161,5.5092,5.5042,5.5,5.4941,5.4738,5.4609,5.4503,5.4389,5.42,5.4124,5.3935,5.3215,5.2601,5.2677,5.2153,5.154,5.1161,5.1282,5.1395,5.1502,5.1691,5.1995,5.2146,5.226,5.2525,5.2942,5.2994,5.3058,5.3598,5.436,5.5259,5.6021,5.6731,5.7374,5.7764,5.8119,5.8423,5.8476,5.8685,5.9155,6.0214,6.0798,6.119,6.1737,6.1992,6.2028,6.2028,6.2028,6.1919,6.1666,6.1774,6.1557,6.0942,6.0254,5.9457,5.8565,5.7876,5.7804,5.7406,5.7138,5.7112,5.6972,5.6852,5.668,5.642,5.6004,5.5134,5.421,5.3657,5.3723,5.3145,5.293,5.2978,5.3086,5.2891,5.2556,5.2293,5.2162,5.209,5.2078,5.2173,5.2707,5.3363,5.3932,5.4397,5.47,5.4852,5.492,5.492,5.492,5.492,5.492,5.492,5.492,5.492,5.492,5.492,5.492,5.492,5.492,5.4996,5.5299,5.5322,5.509,5.5061,5.5331,5.5524,5.521,5.4995,5.5275,5.5477,5.5293,5.526,5.5226,5.5192,5.5092,5.5042,5.5007,5.4941,5.4882,5.4844,5.4769,5.4731,5.4617,5.4617,5.4314,5.3624,5.3245,5.3321,5.3056,5.2336,5.2184,5.2374,5.207,5.1767,5.2229,5.2798,5.298,5.3169,5.3707,5.4048,5.2771,5.297,5.3865,5.4881,5.6003,5.6562,5.7205,5.7866,5.79,5.8246,5.8823,5.913,5.9886,6.0837,6.13,6.1542,6.1964,6.2028,6.2028,6.2028,6.2028,6.2028,6.1992,6.1955,6.1955,6.1992,6.1448,6.105,6.0652,5.9796,5.8891,5.842,5.755,5.7223,5.7061,5.6984,5.6855,5.6626,5.6214,5.5847,5.5384,5.4277,5.4207,5.4169,5.3912,5.3399,5.3592,5.3663,5.3277,5.2614,5.234,5.2234,5.2162,5.209,5.209,5.2506,5.3067,5.3588,5.4022,5.4438,5.4807,5.492,5.492,5.492,5.492,5.492,5.492,5.492,5.492,5.492,5.492,5.492,5.492,5.4996,5.5148,5.5602,5.6004,5.5835,5.5938,5.6302,5.6404,5.6081,5.593,5.5962,5.5847,5.5492,5.5382,5.5361,5.523,5.5144,5.5057,5.5021,5.4979,5.4965,5.492,5.492,5.492,5.492,5.492,5.4731,5.4117,5.3927,5.4003,5.3586,5.3056,5.3245,5.3473,5.2722,5.2077,5.3063,5.3821,5.3897,5.4162,5.4655,5.4844,5.3152,5.297,5.3724,5.501,5.6646,5.6765,5.7205,5.7881,5.7918,5.8352,5.9145,5.9676,6.0406,6.0956,6.1235,6.1579,6.1978,6.1992,6.2028,6.2028,6.2028,6.2028,6.2028,6.2028,6.2028,6.2028,6.1774,6.1774,6.1666,6.076,5.9651,5.8528,5.7804,5.7357,5.7125,5.7036,5.6773,5.6429,5.5888,5.5759,5.5281,5.445,5.3836,5.4632,5.4065,5.3362,5.3508,5.3664,5.3349,5.2552,5.241,5.234,5.2234,5.2138,5.2138,5.2268,5.2892,5.3333,5.3637,5.4326,5.4814,5.492,5.492,5.492,5.492,5.492,5.492,5.492,5.492,5.492,5.492,5.492,5.492,5.4996,5.5261,5.5868,5.6307,5.6709,5.6845,5.7285,5.7251,5.6868,5.6968,5.7006,5.6401,5.6001,5.5969,5.5948,5.5475,5.5313,5.513,5.5035,5.5063,5.5011,5.4928,5.5003,5.517,5.5041,5.492,5.492,5.4731,5.4647,5.4496,5.4344,5.3965,5.4276,5.4427,5.3707,5.3518,5.4306,5.4761,5.4541,5.4617,5.4996,5.4996,5.3645,5.4046,5.3897,5.4613,5.5994,5.6272,5.6915,5.7723,5.8157,5.9061,6.0204,6.0876,6.1358,6.1565,6.1622,6.172,6.1978,6.1992,6.2028,6.2028,6.2028,6.2028,6.2028,6.2028,6.2028,6.2028,6.2028,6.2028,6.1883,6.1267,6.029,5.9216,5.8311,5.7659,5.7355,5.7025,5.6704,5.6181,5.5679,5.5493,5.4763,5.4107,5.3704,5.4644,5.4046,5.352,5.3604,5.3688,5.3193,5.2722,5.2446,5.2352,5.2293,5.2222,5.2138,5.2114,5.2788,5.3187,5.353,5.4259,5.4852,5.492,5.492,5.492,5.492,5.492,5.492,5.492,5.492,5.492,5.492,5.492,5.492,5.4996,5.5375,5.5981,5.6543,5.6975,5.7559,5.7931,5.7799,5.7492,5.7763,5.8095,5.7307,5.6549,5.6556,5.6504,5.6094,5.5735,5.5635,5.5617,5.5653,5.5449,5.5397,5.5435,5.5503,5.5246,5.4958,5.492,5.492,5.4882,5.4761,5.4731,5.4693,5.4693,5.4655,5.4579,5.4655,5.4837,5.4875,5.4844,5.5034,5.5337,5.5375,5.3841,5.4371,5.3636,5.4233,5.5626,5.6054,5.6826,5.7819,5.8174,5.9212,6.0747,6.1387,6.1854,6.1937,6.1978,6.1978,6.1992,6.2028,6.2028,6.2028,6.2028,6.2028,6.2028,6.2028,6.2028,6.2028,6.2028,6.2028,6.1992,6.1412,6.0543,5.971,5.9022,5.8275,5.7344,5.7038,5.6696,5.6237,5.5451,5.5266,5.4665,5.36,5.359,5.4288,5.3869,5.358,5.3628,5.3675,5.3277,5.2746,5.2446,5.2364,5.2329,5.2305,5.221,5.2351,5.2647,5.313,5.3528,5.4271,5.4845,5.492,5.492,5.492,5.492,5.492,5.492,5.492,5.492,5.492,5.492,5.492,5.492,5.4958,5.5451,5.6065,5.6656,5.7195,5.7932,5.8509,5.843,5.8592,5.8353,5.8654,5.8376,5.7619,5.7313,5.7262,5.6979,5.6664,5.6394,5.6421,5.6492,5.6221,5.5956,5.601,5.5981,5.5625,5.5337,5.4958,5.492,5.492,5.492,5.4844,5.4844,5.4882,5.4844,5.4731,5.4806,5.4882,5.4958,5.511,5.5489,5.5792,5.5981,5.3609,5.3605,5.2845,5.392,5.5947,5.6166,5.7011,5.8197,5.8103,5.8772,6.0235,6.0927,6.1487,6.1909,6.2028,6.2028,6.2028,6.2028,6.2028,6.2028,6.2028,6.2028,6.2028,6.2028,6.2028,6.2028,6.2028,6.2028,6.2028,6.1847,6.0978,6.0,5.9325,5.8565,5.7321,5.7061,5.6961,5.6683,5.5247,5.5029,5.4669,5.3314,5.3351,5.3724,5.3664,5.3375,5.3434,5.3458,5.3096,5.2613,5.2493,5.2399,5.2364,5.2353,5.2246,5.221,5.2613,5.2875,5.3046,5.4219,5.473,5.4822,5.4807,5.492,5.492,5.492,5.492,5.492,5.492,5.492,5.492,5.492,5.492,5.5034,5.5489,5.5951,5.6543,5.7279,5.7977,5.8722,5.9512,5.9951,5.9362,5.9092,5.9127,5.8758,5.8268,5.7974,5.7787,5.7402,5.707,5.7163,5.7242,5.7101,5.6829,5.661,5.6421,5.6019,5.5678,5.5299,5.4996,5.492,5.492,5.492,5.492,5.492,5.492,5.492,5.511,5.5337,5.5299,5.5451,5.5868,5.636,5.6664,5.4612,5.4188,5.3385,5.3838,5.5011,5.5077,5.6081,5.7733,5.8737,5.9757,6.0636,6.1372,6.1734,6.1964,6.2028,6.2028,6.2028,6.2028,6.2028,6.2028,6.2028,6.2028,6.2028,6.2028,6.2028,6.2028,6.2028,6.2028,6.2028,6.2028,6.1448,6.0507,5.9216,5.8239,5.7478,5.7102,5.6944,5.6257,5.5303,5.4628,5.4254,5.3147,5.2653,5.3266,5.3025,5.2952,5.2987,5.2987,5.2806,5.2516,5.248,5.2445,5.2446,5.2399,5.2352,5.2281,5.2559,5.2747,5.3141,5.3915,5.4468,5.4565,5.4761,5.4905,5.492,5.492,5.492,5.492,5.492,5.492,5.492,5.492,5.492,5.492,5.5261,5.564,5.6224,5.7066,5.7893,5.873,5.9513,6.0058,5.9893,5.964,5.9668,5.9568,5.9109,5.8842,5.8654,5.8047,5.7593,5.7822,5.7946,5.7875,5.774,5.7559,5.7066,5.6573,5.6095,5.564,5.5375,5.5261,5.5072,5.5148,5.5034,5.492,5.5034,5.5185,5.5602,5.583,5.6133,5.6398,5.6777,5.7278,5.7695,5.4885,5.4155,5.3497,5.3814,5.4612,5.4638,5.5658,5.7514,5.9214,6.0251,6.0732,6.1329,6.1776,6.1923,6.2028,6.2028,6.2028,6.2028,6.2028,6.2028,6.2028,6.2028,6.2028,6.2028,6.2028,6.2028,6.2028,6.2028,6.2028,6.2028,6.1304,6.0109,5.8854,5.784,5.7297,5.7116,5.7007,5.6343,5.5558,5.4689,5.4086,5.3229,5.2505,5.2577,5.2541,5.2516,5.2516,5.248,5.248,5.248,5.248,5.2516,5.2516,5.2505,5.247,5.241,5.2457,5.2663,5.2987,5.3823,5.4205,5.4105,5.4611,5.489,5.492,5.492,5.492,5.492,5.492,5.492,5.492,5.492,5.492,5.492,5.5034,5.5413,5.5678,5.6558,5.743,5.8304,5.9262,5.9769,6.0304,6.0318,6.0224,6.0071,5.9918,5.9682,5.9491,5.8922,5.8467,5.8665,5.8873,5.8923,5.8781,5.8577,5.7962,5.718,5.6702,5.633,5.6292,5.6247,5.5792,5.5413,5.5489,5.5527,5.5337,5.5489,5.6247,5.7005,5.7657,5.7809,5.7876,5.8112,5.8491,5.4389,5.3692,5.3151,5.3772,5.4858,5.4928,5.5947,5.7689,5.9279,6.0014,6.0141,6.0912,6.1501,6.1937,6.2028,6.2028,6.2028,6.2028,6.2028,6.2028,6.2028,6.2028,6.2028,6.2028,6.2028,6.2028,6.2028,6.2028,6.2028,6.2028,6.1195,5.9783,5.8565,5.7732,5.7406,5.7333,5.7224,5.6717,5.5812,5.5088,5.446,5.3422,5.277,5.2589,5.248,5.248,5.248,5.248,5.248,5.248,5.248,5.2516,5.2564,5.2564,5.2552,5.2552,5.2625,5.2852,5.2942,5.3894,5.4203,5.4261,5.4744,5.4904,5.492,5.492,5.492,5.492,5.492,5.492,5.492,5.492,5.492,5.492,5.492,5.5072,5.5148,5.5852,5.6725,5.7666,5.8737,5.9495,6.0189,6.0377,6.0377,6.03,6.0186,6.0148,5.9995,6.0071,5.97,5.9738,5.9946,6.0049,5.9831,5.9368,5.8791,5.7969,5.7665,5.7316,5.7316,5.7088,5.6626,5.6323,5.6247,5.6171,5.6057,5.6512,5.727,5.7998,5.8529,5.8832,5.8756,5.8718,5.9022,5.4443,5.3919,5.3738,5.3957,5.4408,5.5375,5.6482,5.7671,5.9117,6.0078,6.0782,6.1401,6.167,6.1978,6.2028,6.2028,6.2028,6.2028,6.2028,6.2028,6.2028,6.2028,6.2028,6.2028,6.2028,6.2028,6.2028,6.1992,6.1992,6.1992,6.1123,5.9674,5.8891,5.8166,5.7695,5.7732,5.755,5.7152,5.621,5.5486,5.4822,5.382,5.3132,5.2661,5.248,5.248,5.248,5.248,5.248,5.248,5.248,5.2661,5.3349,5.3349,5.3349,5.3422,5.3748,5.4085,5.3721,5.4478,5.4975,5.4887,5.5524,5.5433,5.523,5.5034,5.5034,5.4958,5.492,5.492,5.492,5.492,5.492,5.492,5.492,5.4958,5.5079,5.5541,5.6413,5.7551,5.8591,5.9562,6.0241,6.0377,6.0377,6.0377,6.0377,6.0377,6.0377,6.0377,6.0377,6.0415,6.0349,6.0299,6.0219,5.9825,5.9338,5.8851,5.8492,5.8112,5.7809,5.7535,5.7346,5.7118,5.6967,5.6891,5.6891,5.7422,5.7998,5.8491,5.9022,5.9363,5.9628,5.9476,5.9401,5.4338,5.4114,5.3882,5.3781,5.3962,5.5466,5.6525,5.7141,5.8282,5.9327,6.018,6.0826,6.1312,6.1614,6.1854,6.2028,6.2028,6.2028,6.2028,6.2028,6.2028,6.2028,6.2028,6.2028,6.2028,6.2028,6.2028,6.2028,6.1955,6.1521,6.076,5.9674,5.9398,5.842,5.7659,5.755,5.7804,5.7442,5.6862,5.5921,5.5088,5.4218,5.3349,5.2842,5.2661,5.2625,5.2552,5.2589,5.2516,5.2516,5.248,5.2878,5.3639,5.3929,5.4436,5.4508,5.4581,5.4798,5.4774,5.5206,5.546,5.5697,5.6322,5.6454,5.6104,5.583,5.5375,5.5034,5.4958,5.492,5.492,5.492,5.492,5.492,5.492,5.492,5.5147,5.5449,5.6396,5.7572,5.8611,5.965,6.0165,6.0332,6.0377,6.0377,6.0377,6.0377,6.0377,6.0377,6.0377,6.0377,6.0387,6.0306,6.0226,6.0159,5.9787,5.9451,5.9327,5.8916,5.8415,5.8331,5.8415,5.8028,5.7573,5.7535,5.7467,5.8036,5.8605,5.9022,5.9325,5.9628,5.978,5.978,5.9742,5.4098,5.429,5.3737,5.3399,5.3464,5.5234,5.608,5.6133,5.7039,5.8015,5.9071,5.9653,6.0425,6.1142,6.1692,6.1978,6.2028,6.2028,6.2028,6.2028,6.2028,6.2028,6.2028,6.2028,6.2028,6.2028,6.2028,6.1992,6.1811,6.1485,6.0869,5.9674,5.9022,5.8311,5.7695,5.784,5.8094,5.8094,5.784,5.7261,5.5763,5.4581,5.3675,5.3277,5.3132,5.3107,5.2878,5.2733,5.2625,5.2552,5.2842,5.3241,5.4399,5.5233,5.5848,5.5776,5.5776,5.5631,5.574,5.5982,5.6133,5.6446,5.6935,5.7116,5.6899,5.6527,5.6057,5.5678,5.564,5.5413,5.5375,5.5375,5.5375,5.5375,5.5375,5.5375,5.5466,5.5813,5.6423,5.7561,5.8592,5.9585,6.0248,6.0377,6.0377,6.0377,6.0377,6.0377,6.0377,6.0377,6.0377,6.0377,6.0363,6.0328,6.0285,6.0212,6.0137,5.9984,5.986,5.9744,5.9259,5.9349,5.9552,5.9059,5.8483,5.8112,5.8074,5.868,5.9059,5.9135,5.9476,5.978,5.9893,5.9893,5.9893,5.3836,5.4447,5.3805,5.3297,5.3224,5.4678,5.5353,5.54,5.6176,5.7653,5.9283,5.9775,6.0316,6.1033,6.1692,6.2028,6.2028,6.2028,6.2028,6.2028,6.2028,6.2028,6.2028,6.2028,6.2028,6.2028,6.2028,6.2028,6.1919,6.1666,6.1267,6.0471,5.9674,5.8927,5.8202,5.8492,5.8782,5.8782,5.9167,5.8854,5.7732,5.7369,5.6935,5.6174,5.5812,5.5015,5.4689,5.4291,5.353,5.2915,5.3856,5.5269,5.7152,5.7913,5.7768,5.7188,5.708,5.6754,5.65,5.6611,5.6824,5.7211,5.7573,5.765,5.7561,5.7251,5.6967,5.6664,5.6323,5.6057,5.5868,5.5906,5.5906,5.5906,5.583,5.583,5.5837,5.6199,5.6594,5.7593,5.8585,5.937,6.0148,6.0415,6.0377,6.0377,6.0377,6.0377,6.0377,6.0377,6.0377,6.0377,6.0377,6.0356,6.032,6.0308,6.0227,6.0137,6.003,5.9983,5.9982,5.9874,5.9766,5.975,5.9439,5.8984,5.887,5.9363,5.9628,5.9514,5.9552,5.9856,5.9893,5.9893,5.9893,5.3736,5.4465,5.3822,5.3314,5.3327,5.4617,5.5167,5.5265,5.5975,5.7423,5.9072,5.9417,6.0,6.0974,6.1706,6.2028,6.2028,6.2028,6.2028,6.2028,6.2028,6.2028,6.2028,6.2028,6.2028,6.2028,6.2028,6.2028,6.2028,6.1919,6.1557,6.0869,6.0217,5.9747,5.9108,5.9398,5.9615,5.9579,6.0435,6.0362,5.9493,5.8854,5.7587,5.6899,5.6536,5.6102,5.6029,5.5631,5.545,5.5088,5.5957,5.6355,5.7659,5.8239,5.8383,5.7949,5.7695,5.7659,5.7237,5.7108,5.7448,5.788,5.8188,5.8202,5.8841,5.8567,5.7914,5.7535,5.7043,5.6739,5.6702,5.6702,5.6702,5.6702,5.6338,5.6088,5.611,5.6326,5.717,5.8335,5.914,5.9713,6.03,6.053,6.0568,6.0912,6.0835,6.0415,6.0377,6.0377,6.0377,6.0377,6.0377,6.0377,6.0356,6.0344,6.0279,6.0227,6.019,6.0076,5.9983,5.9982,5.9904,5.9888,5.9864,5.978,5.9818,5.9893,5.9893,5.978,5.978,5.9893,5.9893,5.9893,5.9893,5.3686,5.4296,5.3754,5.3382,5.3431,5.4741,5.5172,5.5185,5.6241,5.7321,5.8443,5.8867,5.9809,6.0831,6.1678,6.1882,6.2028,6.2028,6.2028,6.2028,6.2028,6.2028,6.2028,6.2028,6.2028,6.2028,6.2028,6.2028,6.2028,6.1955,6.1702,6.105,6.0688,6.0435,5.9964,5.9819,6.0013,6.0398,6.0978,6.1376,6.0471,5.9398,5.8166,5.7188,5.6694,5.6609,5.6717,5.6935,5.7406,5.7333,5.7478,5.784,5.8094,5.8601,5.8492,5.8275,5.7876,5.784,5.7732,5.7395,5.7871,5.8323,5.8609,5.9106,5.9784,5.9823,5.9133,5.8748,5.8256,5.7876,5.7876,5.7952,5.7952,5.7968,5.7453,5.7013,5.7064,5.7106,5.8196,5.9363,5.9759,6.0293,6.0599,6.0797,6.095,6.1287,6.1134,6.0683,6.0377,6.0377,6.0377,6.0377,6.0377,6.0377,6.0415,6.038,6.0323,6.0301,6.0257,6.0129,6.0014,5.9975,5.9974,5.9934,5.9918,5.991,5.9902,5.9893,5.9893,5.991,5.9893,5.9893,5.9893,5.9893,5.9893,5.3551,5.3687,5.3551,5.3382,5.3414,5.4617,5.4796,5.472,5.6857,5.7895,5.811,5.9246,6.0304,6.1045,6.1692,6.1978,6.2028,6.2028,6.2028,6.2028,6.2028,6.2028,6.2028,6.2028,6.2028,6.2028,6.2028,6.2028,6.2028,6.1992,6.1955,6.1702,6.1014,6.0797,6.0688,6.0616,6.0688,6.105,6.1412,6.1811,6.1847,6.1123,6.0833,6.0435,6.0507,5.9457,5.8818,5.8805,5.8239,5.7876,5.7985,5.8565,5.8746,5.8854,5.8709,5.8275,5.7876,5.7949,5.7804,5.7732,5.8202,5.9324,5.9679,6.0166,6.0811,6.1437,6.1056,6.1082,6.0597,6.0037,5.9969,6.0083,6.0159,6.0373,6.0169,5.9832,5.9672,5.9724,6.0208,6.0647,6.0828,6.1287,6.1669,6.1669,6.1478,6.1593,6.1249,6.0835,6.0453,6.0415,6.0453,6.0415,6.0415,6.0377,6.0377,6.0377,6.038,6.0359,6.0323,6.0204,6.0129,6.0045,6.0005,5.9998,5.995,5.9926,5.9918,5.995,5.9926,5.9942,5.991,5.9893,5.9902,5.9893,5.9893]}]]